[[{"header":{"parameterUnit":"m.s-1","parameterCategory":1,"la1":30.6,"la2":28.766,"lo1":-90.7593,"lo2":-88.6598,"dx":0.0162,"dy":0.0183,"nx":116,"ny":114,"refTime":"2022-11-10T06:00:00:Z","depth":0,"parameterNumber":2,"parameterNumberName":"U-component_of_WINDS"},"data":[0.0,0.0,0.0,0.0,0.0,0.0,0.0,0.0,0.0,0.0,0.0,0.0,0.0,0.0,0.0,0.0,0.0,0.0,0.0,0.0,0.0,0.0,0.0,0.0,0.0,0.0,0.0,0.0,0.0,0.0,0.0,0.0,0.0,0.0,0.0,0.0,0.0,0.0,0.0,0.0,0.0,0.0,0.0,0.0,0.0,0.0,0.0,0.0,0.0,0.0,0.0,0.0,0.0,0.0,0.0,0.0,0.0,0.0,0.0,0.0,0.0,0.0,0.0,0.0,0.0,0.0,0.0,0.0,0.0,0.0,0.0,0.0,0.0,0.0,0.0,0.0,0.0,0.0,0.0,0.0,0.0,0.0,0.0,0.0,0.0,0.0,0.0,0.0,0.0,0.0,0.0,0.0,0.0,0.0,0.0,0.0,0.0,0.0,0.0,0.0,0.0,0.0,0.0,0.0,0.0,0.0,0.0,0.0,0.0,0.0,0.0,0.0,0.0,0.0,0.0,0.0,0.0,0.0,0.0,0.0,0.0,0.0,0.0,0.0,0.0,0.0,0.0,0.0,0.0,0.0,0.0,0.0,0.0,0.0,0.0,0.0,0.0,0.0,0.0,0.0,0.0,0.0,0.0,0.0,0.0,0.0,0.0,0.0,0.0,0.0,0.0,0.0,0.0,0.0,0.0,0.0,0.0,0.0,0.0,0.0,0.0,0.0,0.0,0.0,0.0,0.0,0.0,0.0,0.0,0.0,0.0,0.0,0.0,0.0,0.0,0.0,0.0,0.0,0.0,0.0,0.0,0.0,0.0,0.0,0.0,0.0,0.0,0.0,0.0,0.0,0.0,0.0,0.0,0.0,0.0,0.0,0.0,0.0,0.0,0.0,0.0,0.0,0.0,0.0,0.0,0.0,0.0,0.0,0.0,0.0,0.0,0.0,0.0,0.0,0.0,0.0,0.0,0.0,0.0,0.0,0.0,0.0,0.0,0.0,0.0,0.0,0.0,0.0,0.0,0.0,0.0,0.0,0.0,0.0,0.0,0.0,0.0,0.0,0.0,0.0,0.0,0.0,0.0,0.0,0.0,0.0,0.0,0.0,0.0,0.0,0.0,0.0,0.0,0.0,0.0,0.0,0.0,0.0,0.0,0.0,0.0,0.0,0.0,0.0,0.0,0.0,0.0,0.0,0.0,0.0,0.0,0.0,0.0,0.0,0.0,0.0,0.0,0.0,0.0,0.0,0.0,0.0,0.0,0.0,0.0,0.0,0.0,0.0,0.0,0.0,0.0,0.0,0.0,0.0,0.0,0.0,0.0,0.0,0.0,0.0,0.0,0.0,0.0,0.0,0.0,0.0,0.0,0.0,0.0,0.0,0.0,0.0,0.0,0.0,0.0,0.0,0.0,0.0,0.0,0.0,0.0,0.0,0.0,0.0,0.0,0.0,0.0,0.0,0.0,0.0,0.0,0.0,0.0,0.0,0.0,0.0,0.0,0.0,0.0,0.0,0.0,0.0,0.0,0.0,0.0,0.0,0.0,0.0,0.0,0.0,0.0,0.0,0.0,0.0,0.0,0.0,0.0,0.0,0.0,0.0,0.0,0.0,0.0,0.0,0.0,0.0,0.0,0.0,0.0,0.0,0.0,0.0,0.0,0.0,0.0,0.0,0.0,0.0,0.0,0.0,0.0,0.0,0.0,0.0,0.0,0.0,0.0,0.0,0.0,0.0,0.0,0.0,0.0,0.0,0.0,0.0,0.0,0.0,0.0,0.0,0.0,0.0,0.0,0.0,0.0,0.0,0.0,0.0,0.0,0.0,0.0,0.0,0.0,0.0,0.0,0.0,0.0,0.0,0.0,0.0,0.0,0.0,0.0,0.0,0.0,0.0,0.0,0.0,0.0,0.0,0.0,0.0,0.0,0.0,0.0,0.0,0.0,0.0,0.0,0.0,0.0,0.0,0.0,0.0,0.0,0.0,0.0,0.0,0.0,0.0,0.0,0.0,0.0,0.0,0.0,0.0,0.0,0.0,0.0,0.0,0.0,0.0,0.0,0.0,0.0,0.0,0.0,0.0,0.0,0.0,0.0,0.0,0.0,0.0,0.0,0.0,0.0,0.0,0.0,0.0,0.0,0.0,0.0,0.0,0.0,0.0,0.0,0.0,0.0,0.0,0.0,0.0,0.0,0.0,0.0,0.0,0.0,0.0,0.0,0.0,0.0,0.0,0.0,0.0,0.0,0.0,0.0,0.0,0.0,0.0,0.0,0.0,0.0,0.0,0.0,0.0,0.0,0.0,0.0,0.0,0.0,0.0,0.0,0.0,0.0,0.0,0.0,0.0,0.0,0.0,0.0,0.0,0.0,0.0,0.0,0.0,0.0,0.0,0.0,0.0,0.0,0.0,0.0,0.0,0.0,0.0,0.0,0.0,0.0,0.0,0.0,0.0,0.0,0.0,0.0,0.0,0.0,0.0,0.0,0.0,0.0,0.0,0.0,0.0,0.0,0.0,0.0,0.0,0.0,0.0,0.0,0.0,0.0,0.0,0.0,0.0,0.0,0.0,0.0,0.0,0.0,0.0,0.0,0.0,0.0,0.0,0.0,0.0,0.0,0.0,0.0,0.0,0.0,0.0,0.0,0.0,0.0,0.0,0.0,0.0,0.0,0.0,0.0,0.0,0.0,0.0,0.0,0.0,0.0,0.0,0.0,0.0,0.0,0.0,0.0,0.0,0.0,0.0,0.0,0.0,0.0,0.0,0.0,0.0,0.0,0.0,0.0,0.0,0.0,0.0,0.0,0.0,0.0,0.0,0.0,0.0,0.0,0.0,0.0,0.0,0.0,0.0,0.0,0.0,0.0,0.0,0.0,0.0,0.0,0.0,0.0,0.0,0.0,0.0,0.0,0.0,0.0,0.0,0.0,0.0,0.0,0.0,0.0,0.0,0.0,0.0,0.0,0.0,0.0,0.0,0.0,0.0,0.0,0.0,0.0,0.0,0.0,0.0,0.0,0.0,0.0,0.0,0.0,0.0,0.0,0.0,0.0,0.0,0.0,0.0,0.0,0.0,0.0,0.0,0.0,0.0,0.0,0.0,0.0,0.0,0.0,0.0,0.0,0.0,0.0,0.0,0.0,0.0,0.0,0.0,0.0,0.0,0.0,0.0,0.0,0.0,0.0,0.0,0.0,0.0,0.0,0.0,0.0,0.0,0.0,0.0,0.0,0.0,0.0,0.0,0.0,0.0,0.0,0.0,0.0,0.0,0.0,0.0,0.0,0.0,0.0,0.0,0.0,0.0,0.0,0.0,0.0,0.0,0.0,0.0,0.0,0.0,0.0,0.0,0.0,0.0,0.0,0.0,0.0,0.0,0.0,0.0,0.0,0.0,0.0,0.0,0.0,0.0,0.0,0.0,0.0,0.0,0.0,0.0,0.0,0.0,0.0,0.0,0.0,0.0,0.0,0.0,0.0,0.0,0.0,0.0,0.0,0.0,0.0,0.0,0.0,0.0,0.0,0.0,0.0,0.0,0.0,0.0,0.0,0.0,0.0,0.0,0.0,0.0,0.0,0.0,0.0,0.0,0.0,0.0,0.0,0.0,0.0,0.0,0.0,0.0,0.0,0.0,0.0,0.0,0.0,0.0,0.0,0.0,0.0,0.0,0.0,0.0,0.0,0.0,0.0,0.0,0.0,0.0,0.0,0.0,0.0,0.0,0.0,0.0,0.0,0.0,0.0,0.0,0.0,0.0,0.0,0.0,0.0,0.0,0.0,0.0,0.0,0.0,0.0,0.0,0.0,0.0,0.0,0.0,0.0,0.0,0.0,0.0,0.0,0.0,0.0,0.0,0.0,0.0,0.0,0.0,0.0,0.0,0.0,0.0,0.0,0.0,0.0,0.0,0.0,0.0,0.0,0.0,0.0,0.0,0.0,0.0,0.0,0.0,0.0,0.0,0.0,0.0,0.0,0.0,0.0,0.0,0.0,0.0,0.0,0.0,0.0,0.0,0.0,0.0,0.0,0.0,0.0,0.0,0.0,0.0,0.0,0.0,0.0,0.0,0.0,0.0,0.0,0.0,0.0,0.0,0.0,0.0,0.0,0.0,0.0,0.0,0.0,0.0,0.0,0.0,0.0,0.0,0.0,0.0,0.0,0.0,0.0,0.0,0.0,0.0,0.0,0.0,0.0,0.0,0.0,0.0,0.0,0.0,0.0,0.0,0.0,0.0,0.0,0.0,0.0,0.0,0.0,0.0,0.0,0.0,0.0,0.0,0.0,0.0,0.0,0.0,0.0,0.0,0.0,0.0,0.0,0.0,0.0,0.0,0.0,0.0,0.0,0.0,0.0,0.0,0.0,0.0,0.0,0.0,0.0,0.0,0.0,0.0,0.0,0.0,0.0,0.0,0.0,0.0,0.0,0.0,0.0,0.0,0.0,0.0,0.0,0.0,0.0,0.0,0.0,0.0,0.0,0.0,0.0,0.0,0.0,0.0,0.0,0.0,0.0,0.0,0.0,0.0,0.0,0.0,0.0,0.0,0.0,0.0,0.0,0.0,0.0,0.0,0.0,0.0,0.0,0.0,0.0,0.0,0.0,0.0,0.0,0.0,0.0,0.0,0.0,0.0,0.0,0.0,0.0,0.0,0.0,0.0,0.0,0.0,0.0,0.0,0.0,0.0,0.0,0.0,0.0,0.0,0.0,0.0,0.0,0.0,0.0,0.0,0.0,0.0,0.0,0.0,0.0,0.0,0.0,0.0,0.0,0.0,0.0,0.0,0.0,0.0,0.0,0.0,0.0,0.0,0.0,0.0,0.0,0.0,0.0,0.0,0.0,0.0,0.0,0.0,0.0,0.0,0.0,0.0,0.0,0.0,0.0,0.0,0.0,0.0,0.0,0.0,0.0,0.0,0.0,0.0,0.0,0.0,0.0,0.0,0.0,0.0,0.0,0.0,0.0,0.0,0.0,0.0,0.0,0.0,0.0,0.0,0.0,0.0,0.0,0.0,0.0,0.0,0.0,0.0,0.0,0.0,0.0,0.0,0.0,0.0,0.0,0.0,0.0,0.0,0.0,0.0,0.0,0.0,0.0,0.0,0.0,0.0,0.0,0.0,0.0,0.0,0.0,0.0,0.0,0.0,0.0,0.0,0.0,0.0,0.0,0.0,0.0,0.0,0.0,0.0,0.0,0.0,0.0,0.0,0.0,0.0,0.0,0.0,0.0,0.0,0.0,0.0,0.0,0.0,0.0,0.0,0.0,0.0,0.0,0.0,0.0,0.0,0.0,0.0,0.0,0.0,0.0,0.0,0.0,0.0,0.0,0.0,0.0,0.0,0.0,0.0,0.0,0.0,0.0,0.0,0.0,0.0,0.0,0.0,0.0,0.0,0.0,0.0,0.0,0.0,0.0,0.0,0.0,0.0,0.0,0.0,0.0,0.0,0.0,0.0,0.0,0.0,0.0,0.0,0.0,0.0,0.0,0.0,0.0,0.0,0.0,0.0,0.0,0.0,0.0,0.0,0.0,0.0,0.0,0.0,0.0,0.0,0.0,0.0,0.0,0.0,0.0,0.0,0.0,0.0,0.0,0.0,0.0,0.0,0.0,0.0,0.0,0.0,0.0,0.0,0.0,0.0,0.0,0.0,0.0,0.0,0.0,0.0,0.0,0.0,0.0,0.0,0.0,0.0,0.0,0.0,0.0,0.0,0.0,0.0,0.0,0.0,0.0,0.0,0.0,0.0,0.0,0.0,0.0,0.0,0.0,0.0,0.0,0.0,0.0,0.0,0.0,0.0,0.0,0.0,0.0,0.0,0.0,0.0,0.0,0.0,0.0,0.0,0.0,0.0,0.0,0.0,0.0,0.0,0.0,0.0,0.0,0.0,0.0,0.0,0.0,0.0,0.0,0.0,0.0,0.0,0.0,0.0,0.0,0.0,0.0,0.0,0.0,0.0,0.0,0.0,0.0,0.0,0.0,0.0,0.0,0.0,0.0,0.0,0.0,0.0,0.0,0.0,0.0,0.0,0.0,0.0,0.0,0.0,0.0,0.0,0.0,0.0,0.0,0.0,0.0,0.0,0.0,0.0,0.0,0.0,0.0,0.0,0.0,0.0,5.6759,5.1292,0.0,0.0,0.0,0.0,0.0,0.0,0.0,0.0,0.0,0.0,0.0,0.0,0.0,0.0,0.0,0.0,0.0,0.0,0.0,0.0,0.0,0.0,0.0,3.4504,3.5165,3.5605,3.5642,0.0,0.0,0.0,0.0,0.0,0.0,0.0,3.7441,3.7441,3.7897,3.881,4.1423,4.4579,4.8051,4.5461,4.331,4.1574,0.0,0.0,0.0,0.0,0.0,0.0,0.0,0.0,0.0,0.0,0.0,0.0,0.0,0.0,0.0,0.0,0.0,0.0,0.0,0.0,0.0,0.0,0.0,0.0,0.0,0.0,0.0,0.0,0.0,0.0,0.0,0.0,0.0,0.0,0.0,0.0,0.0,0.0,0.0,0.0,0.0,0.0,0.0,0.0,0.0,0.0,0.0,0.0,0.0,0.0,0.0,0.0,0.0,0.0,0.0,0.0,0.0,0.0,0.0,0.0,0.0,0.0,0.0,0.0,0.0,0.0,0.0,0.0,0.0,0.0,5.9323,5.6747,0.0,0.0,0.0,0.0,0.0,0.0,0.0,0.0,0.0,0.0,0.0,0.0,0.0,0.0,0.0,0.0,0.0,0.0,0.0,0.0,0.0,3.521,3.521,3.5862,3.634,3.6486,3.6486,3.6633,3.689,3.6927,3.7,3.711,3.7147,3.7771,3.9093,3.9154,4.0221,4.2411,4.68,5.0689,5.3992,5.3992,5.2399,4.94,4.5461,0.0,0.0,0.0,0.0,0.0,0.0,0.0,0.0,0.0,0.0,0.0,0.0,0.0,0.0,0.0,0.0,0.0,0.0,0.0,0.0,0.0,0.0,0.0,0.0,0.0,0.0,0.0,0.0,0.0,0.0,0.0,0.0,0.0,0.0,0.0,0.0,0.0,0.0,0.0,0.0,0.0,0.0,0.0,0.0,0.0,0.0,0.0,0.0,0.0,0.0,0.0,0.0,0.0,0.0,0.0,0.0,0.0,0.0,0.0,0.0,0.0,0.0,0.0,6.3588,6.4019,6.4752,6.4757,6.4723,6.4575,6.2563,6.3327,6.5495,6.0302,0.0,0.0,0.0,0.0,0.0,0.0,0.0,0.0,0.0,0.0,0.0,0.0,0.0,0.0,0.0,0.0,0.0,0.0,0.0,3.6119,3.6119,3.6229,3.656,3.7257,3.7331,3.7918,3.9313,3.9423,3.9753,4.0451,4.0487,4.0598,4.0781,4.1021,4.2716,4.5929,5.4207,5.8973,6.0418,6.0418,6.0122,5.9407,5.3345,4.8984,4.6053,0.0,0.0,0.0,0.0,0.0,0.0,0.0,0.0,0.0,0.0,0.0,0.0,0.0,0.0,0.0,0.0,0.0,0.0,0.0,0.0,0.0,0.0,0.0,0.0,0.0,0.0,0.0,0.0,0.0,0.0,0.0,0.0,0.0,0.0,0.0,0.0,0.0,0.0,0.0,0.0,0.0,5.227,5.4906,0.0,0.0,0.0,0.0,0.0,0.0,0.0,0.0,0.0,0.0,0.0,0.0,0.0,6.3427,6.5834,6.7305,6.9141,7.1353,7.1899,7.2624,7.3345,7.3306,7.3265,7.3075,6.9929,0.0,6.5116,6.5684,0.0,0.0,0.0,0.0,0.0,0.0,0.0,0.0,0.0,0.0,0.0,0.0,0.0,0.0,0.0,0.0,0.0,0.0,0.0,0.0,0.0,3.8781,4.0267,4.1149,4.2664,4.3364,4.2965,4.2934,4.2395,4.1148,4.123,4.1545,4.1989,4.4132,4.8168,5.4069,5.8213,6.1658,6.4458,6.4458,6.4726,6.4993,6.1721,5.654,5.024,5.024,0.0,0.0,0.0,0.0,0.0,0.0,0.0,0.0,0.0,0.0,0.0,0.0,0.0,0.0,0.0,0.0,0.0,0.0,0.0,0.0,0.0,0.0,0.0,0.0,0.0,0.0,0.0,0.0,0.0,0.0,0.0,0.0,0.0,0.0,0.0,0.0,0.0,0.0,0.0,5.2652,5.5517,5.8536,5.8345,5.7542,0.0,0.0,0.0,0.0,0.0,0.0,0.0,0.0,0.0,6.6445,6.6942,6.8356,7.0877,7.154,7.2386,7.3419,7.3688,7.4446,7.562,7.5577,7.5842,7.6221,7.4743,7.3265,7.1711,6.9133,6.7921,6.7466,0.0,0.0,0.0,0.0,6.3372,6.3676,0.0,0.0,0.0,0.0,0.0,0.0,0.0,0.0,0.0,0.0,0.0,0.0,3.8756,4.2017,4.4453,4.496,4.7207,4.7784,4.5866,4.5662,4.4469,4.194,4.2137,4.2662,4.3348,4.8093,5.38,6.0335,6.1887,6.4267,6.7362,6.7362,6.7668,6.8203,6.7171,6.2357,5.5021,5.483,5.2308,4.8449,0.0,0.0,0.0,0.0,0.0,0.0,0.0,0.0,0.0,0.0,0.0,0.0,0.0,0.0,0.0,0.0,0.0,0.0,0.0,0.0,0.0,0.0,0.0,0.0,0.0,0.0,0.0,0.0,0.0,0.0,0.0,0.0,0.0,0.0,0.0,0.0,0.0,5.6434,5.888,6.1631,6.1975,6.144,0.0,0.0,0.0,0.0,0.0,0.0,6.5413,6.549,6.7286,7.1259,7.1603,7.2711,7.4813,7.4974,7.4979,7.4866,7.479,7.5317,7.6449,7.6449,7.679,7.7396,7.7623,7.7699,7.7358,7.2734,7.1218,7.1673,7.0384,6.8754,6.7238,6.8072,6.8337,6.8603,0.0,0.0,0.0,0.0,0.0,0.0,0.0,0.0,0.0,0.0,0.0,4.2402,4.2062,4.5618,4.7875,4.7569,4.8708,4.87,4.7024,4.6607,4.568,4.3918,4.4291,4.4733,4.5095,5.2862,5.8432,6.1488,6.6369,6.8852,6.9082,6.9082,6.9082,6.9043,6.7439,6.4649,6.1096,6.0332,5.7581,5.3454,5.0283,0.0,0.0,0.0,0.0,0.0,0.0,0.0,0.0,0.0,0.0,0.0,0.0,0.0,0.0,0.0,0.0,0.0,0.0,0.0,0.0,0.0,0.0,0.0,0.0,0.0,0.0,0.0,0.0,0.0,0.0,0.0,0.0,0.0,0.0,0.0,0.0,0.0,0.0,6.2739,6.698,0.0,0.0,0.0,0.0,6.5146,6.5184,6.633,6.8814,6.8929,7.0495,7.3896,7.4813,7.5653,7.657,7.7189,7.7493,7.7493,7.7331,7.7244,7.732,7.732,7.7358,7.7434,7.8192,7.8533,7.8457,7.7396,7.6979,7.679,7.4326,7.3265,7.3265,7.4136,7.4478,7.5046,0.0,0.0,0.0,3.3807,3.4468,3.5174,3.5752,3.678,3.7661,3.8212,4.0933,4.2969,4.3404,4.7926,5.1339,5.2319,5.441,5.4876,5.3034,5.16,4.9706,4.7281,4.6978,4.9159,5.404,5.8614,6.2765,6.6483,6.8317,6.9731,7.0801,7.0801,7.1107,7.1603,7.0419,6.9234,6.7935,6.549,6.2013,5.8154,5.8039,5.4524,0.0,0.0,0.0,0.0,0.0,0.0,0.0,0.0,0.0,0.0,0.0,0.0,0.0,0.0,0.0,0.0,0.0,0.0,0.0,0.0,0.0,0.0,0.0,0.0,0.0,0.0,0.0,0.0,0.0,0.0,0.0,0.0,0.0,0.0,0.0,0.0,0.0,6.5108,6.7897,0.0,6.7171,6.8547,6.9273,6.8661,7.0648,7.252,7.3934,7.401,7.4813,7.6609,7.6953,7.7526,7.8366,7.8447,7.8749,7.932,7.9115,7.9291,7.9784,7.9784,8.0087,8.0618,8.0921,8.1035,8.0997,8.0731,7.9973,7.8912,7.8002,7.7661,7.7737,7.8571,7.8874,7.9253,0.0,0.0,0.0,3.4174,3.4908,3.5716,3.656,3.7367,3.8419,3.9866,4.2776,4.5185,4.6569,5.1462,5.5085,5.6139,5.8244,5.8405,5.5684,5.4314,5.2183,4.8946,4.9838,5.3754,6.0874,6.31,6.6101,7.0037,7.0342,7.103,7.2138,7.2138,7.2444,7.2979,7.2406,7.2138,7.1985,6.9769,6.6713,6.335,6.3045,5.888,5.2728,0.0,0.0,0.0,0.0,0.0,0.0,0.0,0.0,0.0,0.0,0.0,0.0,0.0,0.0,0.0,0.0,0.0,0.0,0.0,0.0,0.0,0.0,0.0,0.0,0.0,0.0,0.0,0.0,0.0,0.0,0.0,0.0,0.0,0.0,6.3159,6.5872,6.698,6.9578,7.0877,6.9731,7.1374,7.252,7.252,7.4889,7.657,7.7105,7.7411,7.7831,7.8404,7.8978,7.9551,8.0124,8.0162,8.0461,8.1032,8.1127,8.1414,8.1944,8.2248,8.2702,8.3271,8.3536,8.365,8.365,8.3953,8.3422,8.2323,8.1186,8.0731,8.0807,8.1338,8.1527,8.1755,0.0,0.0,3.4064,3.4844,3.5716,3.656,3.7367,3.8175,3.9688,4.2411,4.6006,4.9227,5.1682,5.6206,5.8997,5.866,5.9769,5.8651,5.4499,5.4406,5.2831,4.9045,5.3006,5.8349,6.4913,6.6319,6.8547,7.1833,7.2711,7.3132,7.3132,7.3132,7.3093,7.3093,7.3093,7.3093,7.3093,7.3055,7.1603,6.9005,6.484,6.1134,5.7772,0.0,0.0,0.0,0.0,0.0,0.0,0.0,0.0,0.0,0.0,0.0,0.0,0.0,0.0,0.0,0.0,0.0,0.0,0.0,0.0,0.0,0.0,0.0,0.0,0.0,0.0,0.0,0.0,0.0,0.0,0.0,0.0,0.0,6.3962,6.7897,6.9846,6.8317,7.252,7.4889,7.3284,7.531,7.6761,7.6761,7.7564,7.8061,7.8137,7.8901,7.9398,7.9436,8.1041,8.192,8.1958,8.2485,8.2859,8.2897,8.3481,8.3764,8.3802,8.4673,8.5052,8.5052,8.5848,8.6151,8.6227,8.7061,8.7402,8.7099,8.3802,8.2551,8.2551,8.2551,8.2551,8.2816,3.3807,3.3807,3.4064,3.4844,3.5716,3.656,3.7367,3.8175,3.9688,4.2411,4.6006,4.9541,5.2845,5.673,5.9311,5.9836,6.0762,6.017,5.7536,5.6625,5.5936,5.5508,6.0913,6.5508,6.8831,7.1035,7.317,7.531,7.5577,7.5692,7.5692,7.5692,7.5348,7.4813,7.4813,7.4813,7.4775,7.4125,7.3476,7.2635,7.0228,6.6904,6.3159,0.0,0.0,0.0,0.0,0.0,0.0,0.0,0.0,0.0,0.0,0.0,0.0,0.0,0.0,0.0,0.0,0.0,0.0,0.0,0.0,0.0,0.0,0.0,0.0,0.0,0.0,0.0,0.0,0.0,0.0,0.0,6.6789,6.8547,6.9502,7.0075,7.1145,7.317,7.5157,7.6188,7.573,7.6876,7.7908,7.8519,7.8787,7.9474,8.0697,8.0964,8.1652,8.2875,8.3293,8.4055,8.5276,8.5333,8.5925,8.7103,8.7193,8.7554,8.816,8.8426,8.8198,8.7592,8.7819,8.7592,8.7061,8.7289,8.7402,8.7326,8.6379,8.6038,8.6038,8.6038,8.6379,8.6947,3.3807,3.3807,3.4174,3.5349,3.5973,3.667,3.7808,3.8395,4.0228,4.4549,4.7258,5.0552,5.5215,5.8054,5.9779,6.0121,6.0273,5.9536,5.768,5.7559,5.9197,6.2894,6.666,7.0023,7.2979,7.4507,7.5921,7.7258,7.7258,7.7411,7.7793,7.7793,7.7526,7.7067,7.6723,7.6341,7.5959,7.508,7.4736,7.4622,7.3284,7.0228,6.6369,6.5528,6.335,6.0561,5.9376,5.8956,5.8574,5.6243,0.0,0.0,0.0,0.0,0.0,0.0,0.0,0.0,0.0,0.0,0.0,0.0,0.0,0.0,0.0,0.0,0.0,0.0,0.0,0.0,0.0,0.0,0.0,0.0,7.0266,7.2864,7.4622,7.3819,7.3781,7.5768,7.6723,7.7373,7.7755,7.8557,7.9398,8.0277,8.1003,8.1805,8.2798,8.3524,8.4327,8.532,8.5543,8.615,8.7142,8.6926,8.7285,8.8273,8.8473,8.9032,8.9866,9.0245,9.0321,9.0131,8.979,8.9563,8.9449,8.9108,8.9146,8.9335,0.0,0.0,0.0,0.0,8.7895,8.8615,3.3807,3.388,3.4431,3.6009,3.6376,3.6964,3.8469,3.8689,4.0984,4.7475,4.8993,5.1798,5.7845,5.9663,6.0256,5.9956,5.9197,5.8104,5.6708,5.8559,6.2758,6.9586,7.0671,7.2979,7.6914,7.6991,7.7373,7.8137,7.8252,7.8596,7.9169,7.9245,7.9245,7.9092,7.8366,7.7564,7.68,7.5959,7.5615,7.5539,7.4698,7.2024,6.8508,6.7706,6.6025,6.3847,6.2357,6.1822,6.1631,6.0485,0.0,0.0,0.0,0.0,0.0,0.0,0.0,0.0,0.0,0.0,0.0,0.0,0.0,0.0,0.0,0.0,0.0,0.0,0.0,0.0,0.0,0.0,0.0,0.0,7.2062,7.5042,7.8901,7.8099,7.7105,7.6991,7.7755,7.8634,7.9474,8.0391,8.127,8.2149,8.3677,8.4632,8.4709,8.6161,0.0,0.0,0.0,8.8133,8.8281,8.8067,8.8007,8.8235,8.8853,8.9601,9.0396,9.1155,9.1875,9.2405,9.1685,9.1723,9.2254,9.1534,9.1647,9.1988,8.9108,8.7971,8.7971,8.7971,8.8388,8.8994,3.3917,3.4321,3.5092,3.6119,3.6817,3.7588,3.8542,3.8689,4.0984,4.7475,4.8993,5.1798,5.7845,5.9663,6.0523,6.0752,6.0031,5.9592,5.9696,6.406,6.765,6.9814,7.3489,7.6532,7.8748,7.8787,7.8863,7.9054,7.9704,7.9398,7.8252,7.8978,7.8901,7.8252,7.8099,7.7908,7.7678,7.6838,7.6456,7.6379,7.5577,7.4354,7.2902,7.21,7.1489,7.0992,7.0686,7.0572,7.0113,6.7171,6.5643,6.4535,6.1745,5.9988,0.0,0.0,0.0,0.0,0.0,0.0,0.0,0.0,0.0,0.0,0.0,0.0,0.0,0.0,0.0,0.0,0.0,0.0,0.0,7.401,7.6418,7.8596,8.0047,7.9971,7.9513,7.8863,7.9513,8.0353,8.1232,8.2684,8.3907,8.4709,8.5741,8.6619,8.7307,8.7651,8.8148,8.8797,8.8824,8.9501,9.0783,9.0646,9.1187,9.2417,9.2557,0.0,9.3846,9.3997,9.3808,9.3315,9.3163,9.2784,9.2292,9.214,9.214,9.2254,9.1609,9.1344,9.1344,9.1344,9.1458,9.1496,3.5128,3.5018,3.5394,3.667,3.7221,3.7771,3.8579,3.8689,4.0517,4.5514,4.6915,4.9159,5.38,5.5397,5.633,5.6767,5.811,5.9801,6.1695,6.6104,7.0001,7.3189,7.5888,7.8137,7.9856,7.9895,7.9704,7.9283,8.0086,8.0086,7.9283,8.0124,8.0315,7.9895,7.9436,7.8787,7.7908,7.6647,7.6112,7.6036,7.5653,7.5462,7.5348,7.4545,7.4507,7.4851,7.4851,7.4584,7.3972,7.2253,7.0877,6.954,6.7859,6.5834,6.3579,0.0,0.0,0.0,0.0,0.0,0.0,0.0,0.0,0.0,0.0,0.0,0.0,0.0,0.0,6.8661,6.9082,0.0,7.573,7.6609,7.9207,8.127,8.169,8.1729,8.127,8.0047,8.1385,8.2722,8.3563,8.4785,8.5893,8.6734,8.7575,8.8453,8.9294,8.9714,9.0326,9.1166,9.0994,9.1279,9.207,9.1881,9.2152,9.2936,9.2936,9.3391,9.4187,9.4187,9.4187,9.4187,9.377,9.358,9.3542,9.3542,9.3542,9.3542,9.3542,9.305,9.2292,9.2292,9.2557,9.2822,3.6523,3.5973,3.5899,3.7257,3.7624,3.7955,3.8615,3.8689,3.9982,4.3632,4.4811,4.6531,4.974,5.1157,5.2043,5.2344,5.6363,5.9998,6.2448,6.6594,7.1134,7.5997,7.722,7.8557,8.0238,8.043,8.0009,7.9054,7.9856,8.0162,8.0047,8.0926,8.1385,8.1499,8.0659,7.9436,7.7908,7.6188,7.5386,7.5233,7.5233,7.5653,7.6188,7.5844,7.6227,7.6953,7.6953,7.6112,7.508,7.5577,7.4278,7.2597,7.3093,7.0763,6.7247,6.4076,6.0905,0.0,0.0,0.0,0.0,0.0,0.0,0.0,0.0,6.8508,6.8547,6.9846,7.0916,7.1833,7.252,7.5539,7.8252,7.9283,8.1576,8.3295,8.3448,8.3639,8.3181,8.1652,8.3295,8.4938,8.5932,8.6772,8.7651,8.853,8.9332,9.0173,9.1052,9.1701,9.2351,9.3033,9.2855,9.2793,9.2899,9.2706,9.2683,9.2784,9.2784,9.3125,9.3808,9.3808,9.4187,9.4755,9.4111,9.4187,9.4793,9.4604,9.4566,9.4528,9.4376,9.3467,9.2329,9.2671,9.3239,9.3694,3.7367,3.7294,3.7257,3.747,3.8102,3.8615,3.8689,3.8689,3.9982,4.3632,4.4811,4.6531,4.974,5.1157,5.1818,5.1525,5.7921,6.1637,6.0903,6.673,7.1494,7.4354,7.5997,7.764,7.9398,8.0124,7.9742,7.8137,7.9016,7.9016,7.829,7.9169,7.9971,8.0621,7.978,7.8901,7.7908,7.6188,7.5042,7.4354,7.4354,7.4393,7.4622,7.6036,7.7105,7.787,7.787,7.5883,7.3628,7.5806,7.3934,7.1107,7.3361,7.1221,6.74,6.4802,6.2166,5.9529,5.6893,5.9262,6.2624,6.3197,6.5146,6.7859,0.0,7.2902,7.424,7.7373,7.9283,8.043,8.0506,8.1499,8.2798,8.4403,8.4365,8.4403,8.5129,8.5893,8.6008,8.5053,8.5206,8.6008,8.7651,8.853,8.937,9.0249,9.1052,9.1892,9.2771,9.2924,9.2957,9.2945,9.29,9.3106,9.3677,9.3666,9.3909,9.4528,9.4528,9.4566,9.4679,9.4679,9.4717,9.4793,9.4679,9.4717,9.4717,9.4035,9.3732,9.3656,9.286,9.2481,9.2481,9.3959,9.4566,9.4528,3.8212,3.8212,3.8212,3.8212,3.8469,3.8689,3.8689,3.8689,3.9228,4.0738,4.1656,4.2839,4.4653,4.6561,4.8041,4.8827,5.52,5.9609,6.0527,6.6764,7.1565,7.4087,7.5348,7.7029,7.9245,7.9627,7.9436,7.8748,7.9589,7.9551,7.8748,7.9589,7.9933,7.978,7.9436,7.8825,7.7908,7.6723,7.5997,7.5653,7.5653,7.5653,7.5806,7.6991,7.7984,7.8481,7.6494,7.4889,0.0,7.5462,7.4163,7.252,7.6074,7.4278,7.0266,6.7247,6.4229,6.2166,6.3541,6.3809,6.5184,7.1565,7.2367,7.2597,7.6494,7.7602,7.8404,8.0353,8.169,8.2646,8.3142,8.3907,8.4862,8.6084,8.639,8.6619,8.6963,8.7345,8.7613,8.7689,8.8148,8.8759,8.9485,9.0287,9.1128,9.2007,9.2389,9.2924,9.3764,9.3841,9.4026,9.444,9.4395,9.4448,9.46,9.4551,9.4604,9.4793,9.4793,9.4793,9.4793,9.4793,9.4793,9.4755,9.43,9.4111,9.4073,9.3732,9.3277,9.2822,9.2443,9.2292,9.2367,9.3088,9.3353,9.3226,3.8689,3.8689,3.8689,3.8689,3.8689,3.8615,3.8395,3.8579,3.8615,3.8395,3.9239,4.0304,4.1332,4.3387,4.5186,4.6361,5.1931,5.6657,5.9736,6.5365,7.0047,7.3361,7.4545,7.6112,7.8213,7.8939,7.9169,7.8939,7.978,7.9742,7.8939,7.9551,7.9513,7.8939,7.8672,7.8099,7.7258,7.6379,7.5997,7.6036,7.6265,7.6494,7.6838,7.7946,7.8175,7.7564,7.508,7.3743,7.3208,7.3628,7.2329,7.1221,7.4966,7.3399,6.9731,6.7247,6.4305,6.2853,6.7286,6.74,6.8394,7.722,7.8022,7.7373,8.02,8.1041,8.1385,8.1996,8.2951,8.3868,8.4518,8.5511,8.6505,8.7345,8.8224,8.8797,8.8797,8.8988,8.9332,8.9905,9.0555,9.1128,9.1625,9.1969,9.2504,9.3382,9.3459,9.3803,9.4643,9.472,9.4987,9.5516,9.5417,9.5163,9.4839,9.4654,9.444,9.4111,9.4111,9.4111,9.4111,9.4111,9.4111,9.4073,9.3732,9.358,9.358,9.358,9.3239,9.2595,9.214,9.195,9.195,9.1685,9.1913,9.2241,3.8689,3.8689,3.8689,3.8689,3.8689,3.8432,3.7691,3.8212,3.8432,3.7624,3.8909,4.0487,4.2103,4.3718,4.4745,4.4782,4.8933,5.3489,5.8,6.1822,6.6265,7.1565,7.3361,7.466,7.5577,7.8022,7.8901,7.8061,7.8901,7.8901,7.8061,7.8061,7.8061,7.8022,7.7144,7.6341,7.5501,7.466,7.4278,7.4354,7.5195,7.5997,7.6876,7.8596,7.722,7.4354,7.424,7.2635,7.0419,6.9655,6.7209,6.4917,6.7439,6.591,6.3197,6.3083,6.1249,6.0332,6.5413,6.9082,7.2329,7.5921,7.978,8.2569,8.192,8.234,8.2913,8.2951,8.4289,8.5435,8.5473,8.6849,8.8301,8.9103,8.9982,9.0517,9.0517,9.1204,9.1701,9.1701,9.1739,9.2427,9.4108,9.3535,9.3421,9.4299,9.4376,9.472,9.5522,9.556,9.5516,9.5417,9.5277,9.4763,9.3856,9.3719,9.3201,9.2367,9.2367,9.2367,9.2367,9.2367,9.2367,9.2405,9.3239,9.358,9.358,9.358,9.358,9.3391,9.1761,9.1155,9.1041,9.0207,9.0889,9.2292,3.8689,3.8689,3.8689,3.8689,3.8689,3.8248,3.689,3.7367,3.7991,3.8248,3.9239,0.0,0.0,0.0,0.0,0.0,4.7821,5.1146,5.4348,5.9228,6.4073,6.8662,7.0663,7.3399,7.7067,7.7411,7.8252,7.9665,7.9398,7.913,7.8825,7.8252,7.7678,7.7105,7.6838,7.6532,7.6265,7.5997,7.6188,7.6761,7.7029,7.5997,7.4316,7.4889,7.3361,7.061,0.0,6.7362,6.7133,6.7439,6.6407,6.5643,6.9273,6.7706,6.4688,6.5261,6.442,6.4764,7.1489,7.4584,7.6685,8.0047,8.276,8.4594,8.4327,8.448,8.4824,8.5397,8.597,8.6543,8.7116,8.8148,8.9179,9.002,9.0861,9.1586,9.2198,9.2504,9.2847,9.3421,9.3497,9.3955,9.5102,9.4414,9.4261,9.514,9.5216,9.5293,9.5598,9.5509,9.5463,9.5417,9.4744,9.423,9.378,9.3162,9.2695,9.2292,9.2292,9.2292,9.2292,9.1761,9.2102,9.3125,9.286,9.305,9.358,9.358,9.3239,9.2671,9.2102,9.1913,9.1799,9.0965,9.1003,9.137,3.8689,3.8689,3.8689,3.8689,3.8689,0.0,0.0,0.0,0.0,0.0,0.0,0.0,0.0,0.0,0.0,0.0,0.0,4.8704,5.1633,5.5826,6.0059,6.436,6.6459,6.9218,7.2803,7.3327,7.4354,7.5997,7.6991,7.7487,7.7487,7.7526,7.7258,7.6685,7.6379,7.6265,7.6303,7.657,7.6685,7.6647,7.6647,7.4813,7.2062,7.2062,6.9922,0.0,6.484,6.3541,6.2892,6.4076,6.4076,6.4305,6.8203,6.7591,6.5796,6.7897,6.7018,6.7133,7.5004,7.7564,7.8901,8.2531,8.448,8.5435,8.5129,8.555,8.6123,8.6696,8.7307,8.788,8.8415,8.9218,9.0058,9.0899,9.1739,9.258,9.3459,9.3803,9.4299,9.514,9.4987,9.514,9.5981,9.5293,9.4987,9.556,9.5598,9.5598,9.5598,9.5463,9.5265,9.4998,9.4325,9.3611,9.2907,9.2288,9.1822,9.142,9.142,9.142,9.1382,9.0851,9.123,9.2216,9.1988,9.2178,9.2709,9.3012,9.2822,9.2292,9.2292,9.2292,9.2254,9.1723,9.1206,9.0533,3.8689,3.8689,3.8689,0.0,0.0,0.0,0.0,0.0,0.0,0.0,0.0,0.0,0.0,0.0,0.0,0.0,0.0,0.0,4.9697,5.1558,5.4499,5.8909,6.1069,6.2606,6.363,6.6287,6.7782,6.7897,7.1871,7.3858,7.3934,7.5462,7.6227,7.6227,7.5424,7.5119,7.5157,7.5921,7.5348,7.3896,7.3896,7.2329,7.0037,7.0037,6.6942,6.2739,6.3579,6.1287,5.8154,5.9759,6.0485,6.1249,6.4611,6.5643,6.6483,7.0724,6.912,6.7782,7.6036,7.829,7.9283,8.3333,8.4976,8.5397,8.4671,8.5588,8.6619,8.6658,8.7804,8.8797,8.8835,8.9676,9.0631,9.1472,9.2465,9.3421,9.4338,9.5178,9.5981,9.6783,9.6172,9.5981,9.6821,9.6095,9.5598,9.5598,9.5598,9.5598,9.5598,9.5463,9.5036,9.4197,9.3888,9.2945,9.1311,9.109,9.0624,8.979,8.979,8.979,8.979,8.979,8.9828,8.9904,9.0738,9.1117,9.123,9.1988,9.2292,9.2292,9.2292,9.2292,9.2292,9.2203,9.1288,8.9968,0.0,0.0,0.0,0.0,0.0,0.0,0.0,0.0,0.0,0.0,0.0,0.0,0.0,0.0,0.0,0.0,0.0,0.0,4.6024,4.8484,5.1556,5.5172,5.7253,6.0141,6.4105,6.4579,6.5699,6.7563,6.8259,6.8929,6.9502,6.9349,6.9578,7.0113,6.9922,6.9846,6.9846,7.0037,6.9884,6.9502,6.9502,6.763,6.4802,6.4802,6.2471,5.9185,5.9415,5.8803,5.8077,5.9109,6.1516,6.4726,6.8126,6.9158,6.996,7.4201,7.466,7.4966,8.0277,8.2187,8.3104,8.4785,8.5855,8.6581,8.704,8.5473,8.4136,8.4785,8.3295,8.2034,8.2646,8.4976,8.7307,8.8797,9.1319,9.3612,9.5102,9.6019,9.663,9.6859,9.6706,9.6668,9.6898,9.6095,9.5598,9.5598,9.5598,9.5598,9.5598,9.5417,9.4896,9.4058,9.3173,9.219,9.1166,9.0434,9.0017,8.979,8.979,8.979,8.979,8.979,9.0169,9.0775,9.1003,9.142,9.1988,9.2216,9.2292,9.2292,9.2292,9.2292,9.2165,9.1068,9.0436,8.9854,0.0,0.0,0.0,0.0,0.0,0.0,0.0,0.0,0.0,0.0,0.0,0.0,0.0,0.0,0.0,0.0,0.0,0.0,0.0,4.602,4.8083,5.0305,5.2335,5.4903,5.8053,5.8748,6.0156,6.2449,6.3296,6.4565,6.6254,6.6178,6.656,6.7362,6.698,6.6789,6.6827,6.7209,6.6713,0.0,0.0,6.3694,6.0676,6.0293,5.8765,5.6816,5.6816,5.7275,5.8421,6.1822,6.5031,6.8317,7.2482,7.3246,7.3552,7.8099,7.8137,7.7717,8.2302,8.3907,8.448,8.532,8.5893,8.6084,8.5473,8.4098,8.2837,8.2225,8.0888,8.0391,8.234,8.425,8.6543,8.9752,9.1854,9.3688,9.5369,9.6363,9.6898,9.6898,9.6898,9.6898,9.6898,9.6095,9.5598,9.5598,9.5598,9.5598,9.5598,9.5028,9.4278,9.344,9.2364,9.1382,9.0548,9.0055,8.979,8.979,8.979,8.979,8.979,8.979,9.0055,9.0548,9.0548,9.0775,9.1192,9.1192,9.1192,9.123,9.1609,9.1761,9.1711,9.1212,9.0437,8.9444,0.0,0.0,0.0,0.0,0.0,0.0,0.0,0.0,0.0,3.7881,3.8432,3.9423,0.0,0.0,0.0,0.0,0.0,0.0,0.0,0.0,4.4892,4.57,4.742,4.8818,4.9821,5.1615,5.3521,5.5435,5.7693,6.0159,6.2824,6.3482,6.4314,6.5184,6.442,6.4076,6.4114,6.4879,6.3923,6.1898,6.1898,6.0179,5.7504,0.0,5.6014,5.5403,5.5403,5.6396,5.8803,6.5719,6.9196,7.1489,7.6685,7.7411,7.7144,8.1423,8.0238,7.8481,8.2913,8.4289,8.4632,8.532,8.5511,8.4824,8.2225,8.192,8.1423,7.8825,7.8557,7.9933,8.3524,8.4098,8.5741,9.109,9.1854,9.2465,9.449,9.5522,9.6172,9.6515,9.6668,9.6745,9.6745,9.6019,9.5598,9.5598,9.5484,9.5446,9.5446,9.4532,9.3555,9.2518,9.1443,9.0548,8.9828,8.979,8.979,8.979,8.979,8.979,8.979,8.979,8.979,8.979,8.979,8.979,8.979,8.979,8.979,8.9866,9.0624,9.0927,9.1041,9.1698,9.07,8.8938,0.0,0.0,0.0,0.0,0.0,0.0,0.0,0.0,0.0,0.0,3.9606,4.0047,0.0,0.0,0.0,0.0,0.0,0.0,0.0,0.0,0.0,4.4892,4.5257,4.6433,4.8567,4.9301,5.044,5.2151,5.2832,5.3981,5.5417,5.5569,5.6255,5.7351,5.7199,5.7122,5.716,5.7313,5.7122,5.6702,5.6702,5.6358,5.5823,5.567,5.5517,0.0,5.5403,5.6014,5.8077,6.6216,7.0075,7.2482,7.8252,8.0353,8.0735,8.0888,8.1385,8.2111,8.299,8.425,8.532,8.5473,8.5511,8.4671,8.1461,7.9207,7.6876,7.3667,7.145,7.1527,7.6341,7.6647,7.829,8.4785,8.5206,8.6046,8.9867,9.1128,9.2465,9.4567,9.5407,9.5828,9.5828,9.5675,9.5598,9.5598,9.4987,9.4605,9.4605,9.4228,9.3193,9.1443,9.0472,8.9942,8.979,8.979,8.979,8.979,8.979,8.979,8.979,8.979,8.979,8.979,8.979,8.979,8.979,8.979,8.979,8.9828,8.998,9.0017,9.0082,9.0373,8.9457,8.8133,0.0,0.0,0.0,0.0,0.0,0.0,0.0,3.9643,4.0047,4.0487,4.0891,4.1295,4.1699,4.2066,4.2616,0.0,0.0,0.0,0.0,0.0,0.0,4.4048,4.4488,4.5259,4.6397,4.7426,4.8825,5.0672,0.0,5.1748,5.3339,5.3072,5.3224,5.3781,5.3977,5.4065,5.4065,5.4065,5.4065,5.4104,5.4524,5.4715,5.4791,5.525,5.5403,0.0,5.5403,5.5938,5.7542,6.3809,6.7056,6.9999,7.8978,8.1805,8.1461,7.9704,8.1003,8.2722,8.1423,8.3219,8.5511,8.5511,8.5855,8.4824,7.9704,7.7946,7.5921,7.0763,6.8738,6.9196,7.3399,7.4201,7.5997,8.1423,8.4212,8.6352,8.8377,9.0937,9.3038,9.4223,9.4681,9.5102,9.556,9.5216,9.4949,9.4949,9.4141,9.3829,9.4376,9.3313,9.2015,9.0472,9.0017,8.979,8.979,8.979,8.979,8.979,8.979,8.979,8.979,8.979,8.979,8.979,8.979,8.979,8.979,8.979,8.979,8.979,8.979,9.0093,9.0461,9.0152,8.9377,8.8504,0.0,0.0,0.0,0.0,0.0,0.0,3.979,4.0194,4.0634,4.1295,4.2066,4.2543,4.2543,4.2543,4.28,0.0,0.0,0.0,0.0,0.0,0.0,0.0,4.4121,4.4599,4.4966,0.0,0.0,4.9711,4.9711,0.0,0.0,0.0,0.0,0.0,5.2133,5.227,5.227,5.227,5.2384,0.0,0.0,5.3798,5.4218,0.0,0.0,0.0,0.0,5.5823,5.7008,6.144,6.3885,6.6942,7.7296,8.0162,7.9398,7.8099,7.9856,8.1958,8.0926,8.3295,8.6046,8.6046,8.6581,8.5282,7.829,7.722,7.5768,6.8814,6.7362,6.8508,7.2291,7.2902,7.4354,7.8939,8.2607,8.532,8.6581,8.9752,9.2504,9.3879,9.4032,9.4452,9.5484,9.5025,9.4567,9.4338,9.325,9.2939,9.367,9.2124,9.0751,8.9828,8.979,8.979,8.979,8.979,8.979,8.979,8.979,8.979,8.979,8.979,8.979,8.979,8.979,8.979,8.979,8.979,8.979,8.979,8.979,9.0271,9.0788,9.038,8.9668,8.8766,0.0,0.0,0.0,0.0,0.0,0.0,3.99,4.1148,4.2103,4.2176,4.2873,4.3387,4.3387,4.3387,4.3424,0.0,0.0,0.0,0.0,0.0,0.0,0.0,0.0,0.0,0.0,0.0,0.0,4.8493,4.8493,0.0,0.0,0.0,0.0,0.0,0.0,5.055,5.055,5.055,0.0,0.0,0.0,0.0,0.0,0.0,0.0,0.0,0.0,5.5441,5.6282,6.1249,6.3541,6.5299,7.0954,7.2673,7.317,7.5997,7.8137,8.0391,8.3983,8.6352,8.7842,8.7842,8.7918,8.6008,7.8404,7.6761,7.4698,6.7171,6.5643,6.7133,7.21,7.0533,7.0342,7.6112,7.5539,7.6265,8.1614,8.3333,8.6314,9.2465,9.3229,9.3841,9.5446,9.5522,9.5178,9.4452,9.2799,9.1743,9.1549,9.0675,9.0011,8.979,8.979,8.979,8.979,8.979,8.979,8.979,8.979,8.979,8.979,8.979,8.979,8.979,8.979,8.979,8.979,8.979,8.979,8.979,8.979,8.9943,9.0212,9.0944,8.9907,8.8202,0.0,0.0,0.0,0.0,0.0,0.0,4.0561,4.1589,4.247,4.2947,4.3277,4.3497,4.3497,4.3497,4.3497,4.3497,0.0,0.0,0.0,0.0,0.0,0.0,0.0,0.0,0.0,0.0,4.6948,4.7609,4.8086,0.0,0.0,0.0,0.0,0.0,0.0,5.0283,5.0283,5.0283,0.0,0.0,0.0,0.0,0.0,0.0,0.0,0.0,0.0,0.0,5.5785,5.8268,5.9682,6.0828,6.3312,6.4458,6.5643,6.954,7.4393,7.8557,7.8672,8.2913,8.746,8.7957,8.8453,8.6696,7.8557,7.7105,7.5195,6.7056,6.5413,6.6025,6.805,6.8126,6.8661,7.103,7.3972,7.7526,8.192,8.5435,8.9332,9.4032,9.4605,9.4261,9.3382,9.4261,9.4255,9.2741,9.1431,9.0608,9.0418,9.0124,8.9935,8.979,8.979,8.979,8.979,8.979,8.979,8.979,8.979,8.979,8.979,8.979,8.979,8.979,8.979,8.979,8.979,8.979,8.979,8.9866,9.0396,9.0646,9.0812,9.0699,8.9897,8.8686,0.0,0.0,0.0,0.0,0.0,4.0524,4.1332,4.2139,4.2873,4.3424,4.3497,4.3497,4.3497,4.3497,4.3497,4.3497,4.3497,0.0,0.0,0.0,0.0,0.0,0.0,0.0,0.0,0.0,4.7241,4.7462,4.8012,4.8458,0.0,0.0,4.9394,4.983,0.0,0.0,0.0,0.0,0.0,0.0,0.0,0.0,0.0,0.0,0.0,0.0,0.0,0.0,0.0,0.0,0.0,5.8039,5.8842,5.9682,6.1211,6.5452,7.0648,7.5157,7.5883,8.0773,8.6123,8.7995,8.8148,8.5932,7.8748,7.6609,7.4087,6.6865,6.5413,6.5413,6.5413,6.656,6.763,6.7859,7.252,7.764,8.2034,8.639,9.0364,9.3726,9.4338,9.3764,9.1969,9.3339,9.367,9.1956,9.095,9.02,8.9828,8.9887,8.9887,8.979,8.979,8.979,8.979,8.979,8.979,8.979,8.979,8.979,8.979,8.979,8.979,8.979,8.979,8.979,8.979,8.979,8.979,8.9904,9.0775,9.103,9.0932,9.0466,8.9719,8.8765,0.0,0.0,0.0,0.0,0.0,0.0,4.2176,4.2947,4.3497,4.3497,4.3497,4.3497,4.3497,4.3497,4.3497,4.3497,4.3497,0.0,0.0,0.0,0.0,0.0,0.0,0.0,0.0,0.0,4.7498,4.8306,4.8306,4.8458,4.8816,4.8816,4.9145,4.9803,0.0,0.0,0.0,0.0,0.0,0.0,0.0,0.0,5.2996,0.0,0.0,0.0,0.0,0.0,0.0,0.0,0.0,0.0,0.0,5.9682,6.1211,6.5452,6.7324,6.9807,7.8175,8.169,8.4059,8.8224,8.681,8.3219,7.8978,7.4775,7.0533,6.6292,6.5413,6.5413,6.5413,6.6139,6.698,6.7782,7.0075,7.4125,8.085,8.3983,8.681,9.0249,9.1357,9.1816,9.1816,9.3295,9.377,9.2755,9.1824,9.0846,8.9828,8.979,8.979,8.979,8.979,8.979,8.979,8.979,8.979,8.979,8.979,8.979,8.979,8.979,8.979,8.979,8.979,8.979,8.979,8.979,8.979,8.9904,9.0775,9.0774,9.0212,9.0276,8.9375,8.8118,0.0,0.0,0.0,0.0,0.0,0.0,4.2176,4.2983,4.3497,4.3497,4.3497,4.3497,4.3497,4.3497,4.3497,4.3497,4.3497,0.0,0.0,0.0,0.0,0.0,0.0,0.0,0.0,4.7645,4.8049,4.8306,4.8306,4.8458,4.8816,4.8816,4.9015,4.9453,4.9453,4.9627,0.0,0.0,0.0,0.0,0.0,5.2308,5.2919,0.0,0.0,0.0,0.0,0.0,0.0,0.0,0.0,0.0,0.0,0.0,0.0,6.1822,6.4611,6.7782,7.0992,7.4813,7.8328,8.0238,8.0353,7.8901,7.466,7.2635,7.0495,6.6254,6.5413,6.5413,6.5413,6.656,6.7591,6.7859,7.0533,7.5157,8.2493,8.5167,8.853,9.4223,9.3077,9.2465,9.4223,9.2633,9.1812,9.2641,9.1767,9.0749,8.9866,8.979,8.979,8.979,8.979,8.979,8.979,8.979,8.979,8.979,8.979,8.979,8.979,8.979,8.979,8.979,8.979,8.979,8.979,8.979,9.0169,9.0726,9.1121,9.12,9.0991,8.9972,8.902,8.8046,0.0,0.0,0.0,0.0,0.0,0.0,4.258,4.3167,4.3497,4.3497,4.3497,4.3497,4.3497,4.3497,4.3608,4.3938,4.3938,0.0,0.0,0.0,0.0,0.0,0.0,0.0,4.7572,4.8049,4.8306,4.8306,4.8306,4.842,4.8604,4.8604,4.8816,4.9113,4.9113,4.9363,0.0,0.0,0.0,0.0,5.1238,5.2079,5.2881,0.0,0.0,0.0,0.0,0.0,0.0,0.0,0.0,0.0,0.0,0.0,0.0,0.0,6.2013,6.4764,6.6865,6.9999,7.3208,7.5615,7.5692,7.4545,7.2215,7.0457,6.8585,6.5948,6.5413,6.5413,6.5413,6.6522,6.805,6.996,7.1527,7.5271,8.3181,8.4938,8.7536,9.3344,9.2695,9.2427,9.3994,9.2939,9.2307,9.2679,9.2033,9.109,8.9866,8.979,8.979,8.979,8.979,8.979,8.979,8.979,8.979,8.979,8.979,8.979,8.979,8.979,8.979,8.979,8.979,8.979,0.0,9.0169,9.0624,9.1143,9.1582,9.1657,9.1297,8.9808,8.8801,8.801,0.0,0.0,0.0,0.0,0.0,0.0,0.0,4.3497,4.3497,4.3497,4.3497,4.3497,4.3497,4.3497,4.3828,4.4635,4.4745,0.0,0.0,0.0,0.0,0.0,0.0,0.0,4.8269,4.8306,4.8306,4.8306,4.8306,4.8306,4.8306,4.8306,4.8458,4.8746,4.8746,4.9145,4.9803,5.01,5.0259,5.0359,5.12,5.204,0.0,0.0,0.0,0.0,0.0,0.0,0.0,0.0,0.0,0.0,0.0,0.0,0.0,0.0,0.0,0.0,0.0,6.6827,6.8585,7.3323,7.2215,7.019,7.0992,6.8165,0.0,6.5413,6.5413,6.5413,6.549,6.6445,6.8699,7.3132,7.2941,7.4966,8.276,8.3677,8.5053,8.9103,9.1052,9.2083,9.216,9.4128,9.4685,9.2907,9.2623,9.1757,8.998,8.9828,8.979,8.979,8.979,8.979,8.979,8.979,8.979,8.979,8.979,8.979,8.979,8.979,8.979,8.979,8.979,8.979,8.9866,9.0738,9.1117,9.1206,9.2091,9.2007,9.1231,8.9776,8.8764,8.7937,0.0,0.0,0.0,0.0,0.0,0.0,0.0,0.0,0.0,0.0,4.3497,4.3497,4.3497,4.3497,4.3828,0.0,0.0,0.0,0.0,0.0,0.0,0.0,0.0,0.0,4.8306,4.8306,4.8306,4.8306,4.8306,4.8306,4.8306,4.8306,4.8344,4.8421,4.8421,4.8816,4.9453,4.9776,5.0076,5.0321,5.0512,5.1505,0.0,0.0,0.0,0.0,5.5403,5.5403,0.0,0.0,0.0,0.0,0.0,0.0,0.0,0.0,5.972,6.0599,6.1593,0.0,6.3388,6.4573,6.5261,6.5719,0.0,6.5681,6.5413,6.5413,6.5413,6.5605,6.6254,6.9731,7.1985,7.061,7.4393,7.7946,7.9283,8.4862,8.9676,9.193,9.3688,9.4949,9.5637,9.5502,9.4952,9.3783,9.2965,9.2023,9.0851,9.0169,8.979,8.979,8.979,8.979,8.979,8.979,8.979,8.979,8.979,8.979,8.979,8.979,8.979,8.979,8.979,8.979,8.9866,9.0738,9.1166,9.1283,9.1633,9.1342,9.0514,8.9055,8.7946,8.7177,0.0,0.0,0.0,0.0,0.0,0.0,0.0,0.0,0.0,0.0,4.3497,4.3497,4.3497,4.3497,4.3975,0.0,0.0,0.0,0.0,0.0,0.0,0.0,0.0,4.8306,4.8306,4.8306,4.8306,4.8306,4.8306,4.8306,4.8306,4.8306,4.8306,4.8306,4.8458,4.8816,4.9333,4.9655,5.0,5.0283,5.0283,0.0,0.0,0.0,0.0,0.0,5.5403,5.5403,0.0,5.5403,5.5403,5.5479,0.0,0.0,0.0,0.0,5.9147,5.9873,6.0293,6.0714,6.1134,6.1516,6.2624,6.3694,6.4114,6.4802,6.5413,6.5413,6.5719,6.6139,6.6598,6.9846,7.3017,7.4698,7.7067,7.9474,8.1729,8.7651,9.2083,9.3,9.4949,9.621,9.6286,9.5821,9.5074,9.4049,9.3507,9.2565,9.1155,9.1003,9.0586,8.9828,9.0207,9.0207,8.979,8.979,8.979,8.979,8.979,8.979,8.979,8.979,8.979,8.979,8.979,9.0017,9.0472,9.1306,9.1703,9.1842,9.2019,9.137,9.0336,8.8789,8.772,8.6887,0.0,0.0,0.0,0.0,0.0,0.0,0.0,0.0,0.0,0.0,0.0,0.0,0.0,0.0,0.0,0.0,0.0,0.0,0.0,0.0,0.0,0.0,4.8306,4.8306,4.8306,4.8306,4.8379,4.8489,4.8489,4.8563,4.8673,4.8563,4.8489,4.8489,4.8973,4.928,4.9521,4.9844,5.0114,5.0283,5.0283,0.0,0.0,0.0,0.0,0.0,0.0,0.0,0.0,5.5403,5.5403,5.5403,5.5403,0.0,0.0,0.0,0.0,0.0,6.0179,6.0408,6.0714,6.2051,6.2624,6.3274,6.4649,6.5184,6.5452,6.5566,6.6713,6.7744,6.8012,7.0916,7.5195,8.1041,8.0277,8.0773,8.5893,9.0135,9.2809,9.3077,9.5216,9.6477,9.5866,9.5675,9.5203,9.4287,9.3935,9.3117,9.1583,9.1875,9.1458,9.0055,9.07,9.0662,8.9828,8.979,8.979,8.979,8.979,8.979,8.979,8.979,8.979,8.979,8.979,9.0283,9.1155,9.185,9.2237,9.2324,9.2375,9.1454,9.0008,8.8531,8.7539,8.6778,0.0,0.0,0.0,0.0,0.0,0.0,0.0,0.0,0.0,0.0,0.0,0.0,0.0,0.0,0.0,0.0,0.0,0.0,0.0,0.0,0.0,4.8306,4.8306,4.8306,4.8306,4.8306,4.8673,4.937,4.937,4.9738,5.0398,4.9701,4.937,4.9373,5.0454,5.0698,5.0353,5.0723,5.0646,5.0283,5.0283,0.0,0.0,0.0,0.0,0.0,0.0,0.0,0.0,5.5403,5.5403,5.5403,5.5403,0.0,0.0,0.0,0.0,0.0,6.037,6.0408,6.1287,6.4993,6.442,6.3885,6.7591,6.6865,6.5605,6.6369,6.9464,7.2482,7.3896,8.085,8.5626,8.3219,8.3104,8.3907,8.5473,8.8759,9.151,9.2924,9.4681,9.6019,9.663,9.6019,9.5477,9.518,9.3754,9.3051,9.34,9.2038,9.1155,9.0927,9.1041,9.0662,8.9828,8.979,8.979,8.979,8.979,8.979,8.979,8.979,8.979,8.979,8.979,9.0283,9.1105,9.1353,9.1537,9.1604,9.1085,8.9898,8.8418,8.7503,8.6706,8.6235,0.0,0.0,0.0,0.0,0.0,0.0,0.0,0.0,0.0,0.0,0.0,0.0,0.0,0.0,0.0,0.0,0.0,0.0,0.0,0.0,4.8306,4.8306,4.8306,4.8306,4.8306,4.8306,4.871,4.9591,4.9591,4.9994,5.0802,5.0398,5.0215,5.0215,5.078,5.1082,5.118,5.0922,5.0854,5.0971,0.0,0.0,0.0,0.0,0.0,0.0,0.0,0.0,0.0,0.0,5.5403,5.5403,5.5403,0.0,0.0,0.0,0.0,0.0,6.0255,6.0714,6.2624,6.912,6.8508,6.7056,6.9884,7.1412,7.1298,6.8012,7.0724,7.3896,7.466,7.9016,8.3219,8.5397,8.8377,9.0555,9.0899,9.3077,9.4796,9.5102,9.5828,9.6286,9.621,9.5828,9.5509,9.5324,9.4553,9.3954,9.3681,9.291,9.2026,9.1117,9.1534,9.1344,9.051,9.0927,9.07,8.9828,9.0283,9.0245,8.979,8.979,8.979,8.9828,9.0283,9.0965,9.1749,9.1883,9.1731,9.1437,9.0729,8.9313,8.7467,8.6706,8.6452,8.667,0.0,0.0,0.0,0.0,0.0,0.0,0.0,0.0,0.0,0.0,0.0,0.0,0.0,0.0,0.0,0.0,0.0,0.0,0.0,4.8306,4.8306,4.8306,4.8306,4.8306,4.8306,4.8306,4.882,4.9884,4.9884,5.0288,5.1096,5.1279,5.1279,5.1096,5.1443,5.1788,5.2043,5.1563,5.1575,5.1811,0.0,0.0,0.0,0.0,0.0,0.0,0.0,0.0,0.0,0.0,0.0,0.0,0.0,0.0,0.0,5.7695,5.93,6.0828,6.0485,6.1707,6.4726,7.1603,7.1374,7.0342,7.359,7.6227,7.6609,7.1603,7.4087,7.722,7.7411,7.8978,8.2073,8.7766,9.2083,9.4834,9.5255,9.6592,9.728,9.6668,9.6592,9.6324,9.5637,9.5598,9.5509,9.5286,9.5087,9.4638,9.3985,9.3745,9.3012,9.1723,9.2292,9.2216,9.1382,9.2178,9.1875,9.0396,9.0851,9.0738,9.0093,8.9904,8.979,8.9866,9.07,9.1571,9.2279,9.211,9.182,9.1362,9.0184,8.847,8.6706,8.6308,8.6634,8.743,0.0,0.0,0.0,0.0,0.0,0.0,0.0,0.0,0.0,0.0,0.0,0.0,0.0,0.0,0.0,0.0,0.0,0.0,0.0,4.8306,4.8306,4.8306,4.8306,4.8306,4.8306,4.8306,4.9077,5.0729,5.0729,5.1132,5.194,5.2674,5.2637,5.1981,5.3422,5.3628,5.2977,5.3584,5.3391,5.269,5.2652,0.0,0.0,0.0,0.0,0.0,0.0,0.0,0.0,0.0,0.0,0.0,0.0,0.0,5.781,5.7886,6.1822,6.5299,6.144,6.3847,6.7973,7.0151,7.0495,7.2406,8.0353,8.0009,7.8099,7.8404,8.2416,8.6161,8.6963,8.9065,9.0631,9.044,9.1357,9.2656,9.4261,9.5216,9.5751,9.5713,9.5675,9.5675,9.5598,9.5598,9.5598,9.5598,9.4647,9.4392,9.5029,9.4149,9.3542,9.3429,9.3467,9.3088,9.2216,9.305,9.305,9.2102,9.142,9.1079,9.0965,9.0169,8.979,8.9866,9.07,9.1571,9.219,9.0969,9.086,9.1251,8.8326,8.6746,8.6054,8.6706,8.7467,8.8263,0.0,0.0,0.0,0.0,0.0,0.0,0.0,0.0,0.0,0.0,0.0,0.0,0.0,0.0,0.0,0.0,0.0,0.0,0.0,4.8306,4.8306,4.8306,4.8306,4.8306,4.8306,4.8306,4.9114,5.0802,5.1793,5.2454,5.2747,5.3293,5.3376,5.308,5.394,5.4209,5.4094,5.3841,5.3682,5.3569,5.3034,5.3301,0.0,0.0,0.0,0.0,0.0,0.0,0.0,0.0,5.5403,5.5403,5.5403,5.6549,5.7886,5.7886,6.0217,6.2548,6.144,6.4458,6.9043,7.3934,7.5119,7.6227,8.0468,8.4098,8.5626,8.2264,8.3945,8.6428,8.7842,8.8874,9.0402,9.3268,9.2236,9.2007,9.4758,9.5407,9.5598,9.5598,9.5598,9.5598,9.5598,9.5598,9.5554,9.5509,9.5112,9.4934,9.5094,9.4236,9.3681,9.358,9.358,9.3429,9.3088,9.3921,9.4187,9.3846,9.305,9.2367,9.1799,9.1003,9.0624,9.0624,9.0965,9.1571,9.219,9.0834,9.0462,9.0481,8.7961,8.6561,8.6054,8.7322,8.7974,8.8336,0.0,0.0,0.0,0.0,0.0,0.0,0.0,0.0,0.0,0.0,0.0,0.0,0.0,0.0,0.0,0.0,0.0,0.0,4.8196,4.8306,4.8306,4.8306,4.8306,4.8306,4.8306,4.8563,4.9407,5.0802,5.2417,5.3225,5.3225,5.3563,5.372,5.372,5.4228,5.4591,5.4769,5.4287,5.4264,5.4448,5.3874,5.3989,0.0,0.0,0.0,0.0,0.0,0.0,0.0,0.0,5.5403,5.5403,5.5403,5.6549,5.7886,5.7886,6.0026,6.228,6.1745,6.6025,7.1527,7.5119,7.8404,8.1003,8.1881,8.5473,8.7804,8.4824,8.6581,8.8644,8.8492,8.9141,9.0631,9.3535,9.2312,9.2045,9.514,9.5598,9.5598,9.5598,9.5598,9.5598,9.5598,9.5598,9.5554,9.5463,9.5417,9.5324,9.5045,9.4464,9.4111,9.3959,9.3959,9.3959,9.3959,9.4528,9.4793,9.4793,9.4225,9.3504,9.2671,9.1875,9.1344,9.1117,9.1382,9.1799,9.219,9.0834,9.0016,8.9509,8.7994,8.7068,8.6778,8.8118,8.8589,8.8698,0.0,0.0,0.0,0.0,0.0,0.0,0.0,0.0,0.0,0.0,0.0,0.0,0.0,0.0,0.0,0.0,0.0,0.0,4.8196,4.8306,4.8306,4.8306,4.8306,4.8306,4.8306,4.915,4.9994,5.0802,5.2417,5.3225,5.3188,5.3563,5.372,5.3758,5.4458,5.4806,5.4836,5.5233,5.5403,5.5403,5.5403,5.5403,5.5403,0.0,0.0,0.0,0.0,0.0,0.0,0.0,5.5403,5.5403,5.5403,5.6549,5.7925,5.7963,6.2128,6.5987,6.2624,6.9082,7.5959,7.2635,7.936,8.6581,8.5741,8.3639,8.2798,8.6123,9.1472,9.4299,9.0096,9.1395,9.2542,9.0937,9.1319,9.2695,9.5216,9.5598,9.5598,9.5598,9.5598,9.5598,9.5598,9.5598,9.5598,9.5598,9.5463,9.5371,9.5191,9.5045,9.4946,9.4793,9.4793,9.4793,9.4793,9.4793,9.4793,9.4793,9.4793,9.4376,9.358,9.2709,9.1875,9.1155,9.195,9.2292,9.219,9.0872,8.9445,8.8227,8.8227,8.8227,8.8336,8.9096,8.9386,8.9531,0.0,0.0,0.0,0.0,0.0,0.0,0.0,0.0,0.0,0.0,0.0,0.0,0.0,0.0,0.0,0.0,0.0,0.0,4.7388,4.8012,4.8306,4.8306,4.8306,4.8306,4.8306,4.9701,5.0839,5.1646,5.2711,5.3355,5.3563,5.3944,5.4262,5.449,5.499,5.5233,5.5233,5.5351,5.5403,5.5403,5.5403,5.5403,5.5403,0.0,0.0,0.0,0.0,0.0,0.0,0.0,0.0,0.0,5.5403,5.6549,5.8459,6.144,6.442,6.74,7.0533,7.5271,7.9856,8.1843,8.3677,8.5435,8.6963,8.7192,8.6849,8.6046,9.0631,9.3994,9.151,9.1204,9.216,9.4643,9.3191,9.2695,9.5216,9.5598,9.5598,9.5598,9.5598,9.5598,9.5598,9.5598,9.5598,9.5598,9.5554,9.5463,9.5191,9.5143,9.5045,9.4793,9.4793,9.4793,9.4793,9.4793,9.4793,9.4793,9.4793,9.4679,9.4414,9.358,9.3088,9.2822,9.2443,9.2633,9.3099,9.1694,8.9993,8.8263,8.8843,8.8698,8.8372,8.9748,8.9893,8.9531,0.0,0.0,0.0,0.0,0.0,0.0,0.0,0.0,0.0,0.0,4.3497,4.3497,0.0,0.0,0.0,0.0,0.0,0.0,4.7058,4.7572,4.7976,4.8306,4.8306,4.8453,4.882,5.0225,5.1411,5.2223,5.2994,5.3602,5.3944,5.433,5.4623,5.4806,5.5233,5.5403,5.5403,5.5403,5.5403,5.5403,5.5403,5.5403,5.5403,0.0,0.0,0.0,0.0,0.0,0.0,0.0,0.0,0.0,5.5403,5.7695,6.0561,6.144,6.549,7.0151,7.2367,7.7411,8.2684,8.5588,8.681,8.7422,8.7957,8.8224,8.7957,8.6772,9.0975,9.4452,9.3077,9.3,9.3841,9.6019,9.4643,9.3841,9.5369,9.5598,9.5598,9.5598,9.5598,9.5598,9.5598,9.5598,9.5598,9.5598,9.5598,9.5509,9.5286,9.5191,9.5094,9.4895,9.4844,9.4793,9.4793,9.4793,9.4793,9.4793,9.4793,9.4793,9.4755,9.43,9.3883,9.3542,9.2715,9.2538,9.2711,9.1901,9.0629,8.9205,8.9676,8.9567,8.9277,9.0255,9.0292,8.9929,0.0,0.0,0.0,0.0,0.0,0.0,0.0,0.0,0.0,4.3497,4.3497,4.3497,0.0,0.0,0.0,4.4525,4.4672,4.5333,4.6801,4.7021,4.7462,4.8159,4.8269,4.8673,4.9522,5.0602,5.1601,5.2455,5.3349,5.398,5.433,5.4654,5.4806,5.4866,5.5233,5.5403,5.5403,5.5403,5.5403,5.5403,5.5403,5.5403,5.5403,5.5403,0.0,0.0,0.0,0.0,0.0,0.0,0.0,0.0,5.5403,5.9147,6.2815,5.9453,6.5566,7.2941,7.0801,7.6991,8.4403,8.5741,8.9027,9.1281,8.8874,8.7766,8.7384,8.788,9.1969,9.5216,9.4338,9.5598,9.6515,9.5713,9.5598,9.5598,9.5598,9.5598,9.5598,9.5598,9.5598,9.5598,9.5598,9.5598,9.5598,9.5598,9.5598,9.5554,9.5417,9.5239,9.5143,9.4996,9.4895,9.4793,9.4793,9.4793,9.4793,9.4793,9.4793,9.4793,9.4793,9.4793,9.4376,9.3694,9.29,9.2241,9.1622,9.165,9.1285,9.0581,9.0581,9.0581,9.0581,9.0581,9.0581,9.0581,0.0,0.0,0.0,0.0,0.0,0.0,0.0,0.0,4.3497,4.3497,4.3497,4.3497,4.3497,4.3497,0.0,4.3718,4.4342,4.4856,4.5186,4.6434,4.7205,4.7352,4.7976,4.8531,4.8972,4.9858,5.0953,5.2326,5.3545,5.4364,5.4685,5.4776,5.4962,5.526,5.5377,5.5403,5.5403,5.5403,5.5403,5.5403,5.5403,5.5403,5.5403,5.5403,5.5403,0.0,0.0,0.0,0.0,0.0,0.0,0.0,5.5403,5.6702,5.8842,6.1936,6.4955,6.8852,7.6112,8.0162,8.3639,8.9103,9.1625,9.2351,9.0478,9.0402,9.002,8.7575,9.1128,9.4185,9.2656,9.4299,9.5828,9.5637,9.5598,9.5598,9.5598,9.5598,9.5598,9.5598,9.5598,9.5598,9.5598,9.5598,9.5598,9.5598,9.5598,9.5554,9.5417,9.5239,9.5143,9.4996,9.4895,9.4793,9.4793,9.4793,9.4793,9.4793,9.4793,9.4793,9.4793,9.4793,9.4717,9.4528,9.3822,9.3101,9.2402,9.1871,9.1285,9.0581,9.0581,9.0581,9.0581,9.0581,9.0581,9.0581,0.0,0.0,0.0,0.0,0.0,0.0,0.0,0.0,4.3497,4.3497,4.3497,4.3497,4.3497,4.3497,0.0,0.0,4.3864,4.4305,4.4672,4.5847,4.6874,4.7645,4.8237,4.8604,4.8816,4.9936,5.1111,5.2305,5.3564,5.4524,5.5085,5.5085,5.5206,5.5403,5.5403,5.5403,5.5403,5.5403,5.5403,5.5403,5.5403,5.5403,5.5403,5.5403,5.5403,5.5403,5.5403,0.0,0.0,0.0,0.0,0.0,0.0,0.0,5.9835,6.0867,6.4917,7.0381,7.6456,8.02,8.3792,8.9752,9.2771,9.365,9.1166,9.216,9.2886,9.0364,9.2274,9.4261,9.3726,9.4681,9.5598,9.5598,9.5598,9.5598,9.5598,9.5598,9.5598,9.5598,9.5598,9.5598,9.5598,9.5598,9.5598,9.5598,9.5598,9.5554,9.5509,9.5324,9.5143,9.5094,9.4516,9.4225,9.4225,9.4225,9.4225,9.4225,9.4604,9.4793,9.4793,9.4793,9.4599,9.4291,9.3582,9.2858,9.2118,9.1473,9.0939,9.0581,9.0581,9.0581,9.0581,9.0581,9.0581,9.0581,0.0,0.0,0.0,0.0,0.0,0.0,0.0,0.0,0.0,4.3497,4.3497,4.3497,4.3497,4.3497,4.3497,0.0,0.0,0.0,4.4452,4.5441,4.6691,4.8346,4.8711,4.8881,4.8949,5.0229,5.1309,5.2199,5.3315,5.4333,5.5174,5.5326,5.5403,5.5403,5.5403,5.5403,5.5403,5.5403,5.5403,5.5403,5.5403,5.5403,5.5403,5.5403,5.5403,5.5403,5.5403,5.5403,5.5403,5.5403,0.0,0.0,0.0,0.0,6.1134,5.8612,6.3847,7.0916,7.3323,7.8404,8.4212,8.9332,9.2809,9.4223,9.1434,9.2962,9.4643,9.3535,9.4032,9.4796,9.5484,9.5598,9.5598,9.5598,9.5598,9.5598,9.5598,9.5598,9.5598,9.5598,9.5598,9.5598,9.5598,9.5598,9.5598,9.5598,9.5598,9.5598,9.5598,9.5371,9.5191,9.5191,9.4149,9.358,9.358,9.3429,9.3391,9.3391,9.4187,9.4679,9.4793,9.4651,9.4291,9.3739,9.3051,9.2325,9.162,9.0861,9.0581,9.0581,9.0581,9.0581,9.0581,9.0581,9.0581,9.0581,0.0,0.0,0.0,0.0,0.0,0.0,0.0,0.0,0.0,0.0,4.3497,4.3497,4.3497,4.3497,4.3497,4.3497,4.3497,4.3534,4.3644,0.0,0.0,4.8672,4.9048,4.9363,4.9655,4.989,5.0544,5.1686,5.2551,5.3416,5.4295,5.5059,5.5403,5.5403,5.5403,5.5403,5.5403,5.5403,5.5403,5.5403,5.5403,5.5403,5.5403,5.5403,5.5403,5.5403,5.5403,5.5403,5.5403,5.5403,5.5403,0.0,0.0,0.0,5.6587,5.7619,5.8842,6.1096,6.6445,7.5271,8.4212,8.9332,9.1472,9.2198,9.1739,9.1969,9.2656,9.3955,9.4872,9.5484,9.556,9.5598,9.5598,9.5598,9.5598,9.5598,9.5598,9.5598,9.5598,9.5598,9.5598,9.5598,9.5598,9.5598,9.5598,9.5598,9.5598,9.5598,9.5598,9.5371,9.5191,9.5191,9.4149,9.358,9.358,9.286,9.2481,9.2481,9.3353,9.4111,9.4793,9.418,9.3856,9.3739,9.3051,9.2325,9.162,9.0861,9.0581,9.0581,9.0581,9.0581,9.0581,9.0581,9.0581,9.0581,0.0,0.0,0.0,0.0,0.0,0.0,0.0,0.0,0.0,0.0,0.0,4.3497,4.3497,4.3497,4.3497,4.3497,4.3497,4.3968,4.5057,4.6335,4.7653,4.9043,4.9394,4.9627,4.9803,4.9962,5.0583,5.162,5.1964,5.2537,5.3378,5.4256,5.4944,5.5403,5.5403,5.5403,5.5403,5.5403,5.5403,5.5403,5.5403,5.5403,5.5403,5.5403,5.567,5.6014,5.5556,5.5708,5.6014,5.5556,5.5403,5.5403,5.5403,0.0,0.0,0.0,5.7886,5.9376,6.6254,7.573,8.425,8.6505,8.9829,9.2389,9.1892,9.2542,9.3459,9.4185,9.5025,9.5598,9.5598,9.5598,9.5598,9.5598,9.5598,9.5598,9.5598,9.5598,9.5598,9.5598,9.5598,9.5598,9.5598,9.5598,9.5598,9.5598,9.5598,9.5598,9.5598,9.5371,9.5001,9.4544,9.3465,9.2671,9.2178,9.1799,9.1837,9.2292,9.2671,9.3315,9.4111,9.3408,9.3133,9.3114,9.2461,9.1729,9.1093,9.074,9.0581,9.0581,9.0581,9.0581,9.0581,9.0581,9.0581,9.0581,0.0,0.0,0.0,0.0,0.0,0.0,0.0,0.0,0.0,0.0,0.0,4.4011,4.3828,0.0,0.0,0.0,4.3882,4.4823,4.6717,4.7447,4.8315,4.9386,4.9749,4.991,4.991,5.0188,5.0627,5.1276,5.1505,5.1926,5.2499,5.3607,5.4448,5.5097,5.5288,5.5403,5.5403,5.5403,5.5403,5.5441,5.5632,5.5708,5.5747,5.5938,5.6396,5.6855,5.6243,5.6434,5.6778,5.5976,5.5708,5.567,5.5479,5.5403,0.0,0.0,0.0,5.9759,6.6942,7.4545,8.1041,8.3372,8.7422,9.1013,9.1663,9.2809,9.3841,9.4261,9.4834,9.5446,9.5866,9.5751,9.5598,9.5598,9.5598,9.5598,9.5598,9.5598,9.5598,9.5598,9.5598,9.5598,9.5598,9.5598,9.5598,9.5598,9.5598,9.5598,9.5598,9.5142,9.462,9.4011,9.2706,9.1723,9.1117,9.0889,9.1192,9.1988,9.1988,9.2355,9.2995,9.2504,9.2219,9.2128,9.1799,9.1285,9.0581,9.0581,9.0581,9.0581,9.0581,9.0581,9.0581,9.0581,9.0581,9.0581,0.0,0.0,0.0,0.0,0.0,0.0,0.0,0.0,0.0,0.0,0.0,4.548,4.4745,4.4909,4.4809,4.4029,4.4969,4.6298,4.7913,4.8352,4.8905,4.9738,5.0076,0.0,5.0259,5.0283,5.0321,5.0359,5.12,5.162,5.1697,5.3339,5.4104,5.4218,5.5021,5.5403,5.5403,5.5403,5.5403,5.5479,5.6243,5.6549,5.6625,5.7466,5.781,5.781,5.7772,5.781,5.7695,5.6816,5.6549,5.6396,5.5632,5.5403,5.5556,0.0,0.0,0.0,6.633,6.8967,7.21,8.0888,8.3907,8.597,9.0708,9.1854,9.2389,9.407,9.4452,9.4949,9.6554,9.6172,9.5598,9.5598,9.5598,9.5598,9.5598,9.5598,9.5598,9.5598,9.5598,9.5598,9.5598,9.5598,9.5598,9.5598,9.5598,9.5598,9.5598,9.4609,9.4049,9.4011,9.2137,9.1155,9.1079,9.0283,9.0283,9.1155,9.1155,9.1241,9.1414,9.1547,9.1209,9.0664,9.1363,9.1285,9.0581,9.0581,9.0581,9.0581,9.0581,9.0581,9.0581,9.0581,9.0581,9.0581,0.0,0.0,0.0,0.0,0.0,0.0,0.0,0.0,0.0,0.0,0.0,0.0,0.0,4.624,4.6188,4.5889,4.6719,4.7579,4.838,4.9019,4.958,5.01,5.0236,5.0283,5.0283,5.0283,5.0283,5.0283,5.0627,5.0779,5.0779,5.1964,5.2766,5.3339,5.4753,5.5403,5.5403,5.5403,5.5708,5.6434,5.9453,6.0981,6.1516,6.1822,6.2242,6.2701,6.2701,6.2701,6.3159,6.6139,6.4611,6.144,6.1134,5.8803,5.632,5.7199,5.8612,6.0523,6.3121,6.6063,6.9425,7.3858,7.764,8.1003,8.3907,8.6658,8.9065,9.0784,9.2886,9.4758,9.5866,9.6286,9.6439,9.6439,9.6439,9.6248,9.5675,9.5598,9.5598,9.5598,9.5598,9.5598,9.5598,9.5598,9.5598,9.5598,9.5598,9.5598,9.5598,9.4571,9.3745,9.3174,9.1833,9.0813,9.0283,8.998,8.998,9.0283,9.0283,9.0623,9.1262,9.0826,9.092,9.1289,9.11,9.0861,9.0581,9.0581,9.0581,9.0581,9.0581,9.0581,9.0581,9.0581,9.0581,9.0581,0.0,0.0,0.0,4.864,0.0,4.864,4.864,4.8389,4.82,4.82,0.0,0.0,0.0,0.0,4.7542,4.7651,4.8143,4.8613,4.9163,4.9695,5.0076,5.0283,5.0283,5.0283,5.0283,5.0054,5.0015,5.0283,5.0015,5.0054,5.0321,5.12,5.204,5.2843,5.4333,5.5135,5.5441,5.5708,5.6091,5.6893,6.0255,6.1975,6.2662,6.4382,6.5528,6.6369,6.7553,6.8317,6.9234,7.2062,6.9464,6.4993,6.4688,6.1096,5.7199,5.8039,5.9071,6.0141,6.0981,6.3427,6.6483,6.9349,7.2788,7.6303,7.9398,8.3372,8.6772,8.8186,9.1625,9.4643,9.5446,9.6324,9.6783,9.6515,9.6477,9.6248,9.5675,9.5598,9.5598,9.5598,9.5598,9.5598,9.5598,9.5598,9.5598,9.5598,9.5598,9.5598,9.5598,9.4571,9.3431,9.2195,9.1177,9.0396,8.9828,8.979,8.9805,8.9867,8.9867,9.0135,9.0566,9.0379,9.0508,9.0883,9.0674,9.0581,9.0581,9.0581,9.0581,9.0581,9.0581,9.0581,9.0581,9.0581,9.0581,9.0581,5.0283,5.0283,5.0283,5.0283,5.0283,5.0283,5.0283,5.0025,4.983,4.983,0.0,0.0,0.0,0.0,0.0,4.9114,4.9137,4.948,5.0245,5.0283,5.0283,5.0283,5.0283,5.0283,5.0283,4.9519,4.9519,5.0283,4.9519,4.9519,5.0321,5.12,5.204,5.2843,5.3722,5.46,5.5479,5.6282,5.6587,5.6778,5.8727,5.9491,6.0064,6.5146,6.7553,6.8661,7.2062,7.4278,7.5424,7.3972,7.0572,6.6713,6.5566,6.186,5.8077,5.888,5.9109,5.9338,0.0,0.0,0.0,6.7744,6.9655,7.1833,7.7717,8.2225,8.5473,8.6619,9.0784,9.4529,9.5446,9.6324,9.6592,9.5751,9.5598,9.5598,9.5598,9.556,9.556,9.5598,9.5598,9.5598,9.5598,9.5598,9.5598,9.5598,9.5598,9.5598,9.5598,9.4571,9.3117,9.1155,9.0283,8.9828,8.979,8.9828,8.9867,8.9986,9.0024,8.9783,8.9236,9.0043,9.008,8.9459,9.0255,9.0581,9.0581,9.0581,9.0581,9.0581,9.0581,9.0581,9.0581,9.0581,9.0581,9.0581,5.0283,5.0283,5.0283,5.0283,5.0283,5.0283,5.0283,5.0212,5.0188,0.0,0.0,0.0,4.9721,4.9758,4.9868,4.9977,4.9977,5.0054,5.0283,5.0283,5.0283,5.0283,5.0283,5.0283,5.0283,5.0092,5.0092,5.0283,5.0092,5.0092,5.0321,5.12,5.204,5.2843,5.3722,5.4906,5.6282,5.6511,5.6969,5.8154,6.5337,6.8585,6.9655,7.4087,7.5959,7.6418,7.8596,7.9245,7.9704,8.3524,7.9169,7.0801,6.3236,5.9911,5.8803,5.9033,5.9568,6.0102,6.0332,0.0,0.0,0.0,0.0,0.0,7.2597,7.5615,7.9321,8.6314,8.8874,9.1204,9.5713,9.621,9.6095,9.6477,9.6019,9.5598,9.5598,9.5102,9.4949,9.5522,9.5598,9.5598,9.5598,9.5598,9.5598,0.0,9.5598,9.5554,9.5463,9.443,9.3021,9.1155,9.0851,9.0434,8.9828,8.9914,8.9967,8.9986,9.0079,9.0091,9.008,9.03,9.0372,9.0292,9.0509,9.0581,9.0581,9.0581,9.0581,9.0581,9.0581,9.0581,9.0581,9.0581,9.0581,9.0581,5.0283,5.0283,5.0283,5.0283,5.0283,5.0436,5.0779,5.0856,5.0971,0.0,0.0,0.0,5.1353,5.1353,5.1353,5.1353,5.1047,5.0856,5.0856,5.0512,5.0283,5.0283,5.0283,5.0283,5.0283,4.9977,4.9977,5.0283,4.9977,4.9977,5.0321,5.12,5.204,5.2843,5.3722,5.5021,5.6625,5.6969,5.8651,6.1363,6.5375,6.8547,7.1336,7.5539,7.7602,7.8748,8.2913,8.4785,8.5588,8.7995,8.3715,7.5348,6.377,6.1363,6.2357,6.0255,5.9988,6.0408,6.0408,6.0408,6.0599,6.1402,0.0,0.0,6.8165,7.0916,7.4966,0.0,8.4938,8.6619,9.2198,9.1663,9.0975,9.2924,9.2809,9.3191,9.5293,9.5216,9.5064,9.5522,9.5904,9.6133,9.6133,9.6133,9.6133,9.6133,9.5745,9.5463,9.5239,9.4334,9.3313,9.2178,9.1799,9.1344,9.0851,9.091,9.0869,9.0647,9.0701,9.0642,9.0516,9.0516,9.0579,9.0581,9.0581,9.0581,9.0581,9.0581,9.0581,9.0581,9.0581,9.0581,9.0581,9.0581,9.0581,9.0581,0.0,5.0321,5.0283,5.0283,5.0397,5.0703,5.1467,5.1697,5.2002,0.0,5.2805,5.2805,5.2805,5.2805,5.2805,5.2805,5.2155,5.1735,5.1735,5.1009,5.055,5.0436,5.0436,5.0397,5.0283,4.9595,4.9595,5.0283,4.9595,4.9633,5.0474,5.1353,5.2155,5.2957,5.3874,5.5174,5.6778,5.7581,6.0867,6.5337,6.2892,6.4879,6.9769,7.401,7.657,7.8863,8.5664,8.9561,9.1052,8.788,8.4518,7.9398,6.6522,6.4955,6.7018,6.2548,6.0905,6.0485,6.0408,6.0408,6.0561,6.1287,6.1516,0.0,6.5031,6.7859,7.1833,0.0,8.0009,8.1347,8.6467,8.49,8.3868,8.704,8.7918,8.9791,9.4261,9.4911,9.4949,9.5025,9.5713,9.6363,9.6706,9.6745,9.6745,9.6745,9.5883,9.5239,9.5045,9.4312,9.3845,9.358,9.286,9.2405,9.2292,9.2317,9.2072,9.1502,9.1483,9.1174,9.0581,9.0581,9.0581,9.0581,9.0581,9.0581,9.0581,9.0581,9.0581,9.0581,9.0581,9.0581,9.0581,9.0581,9.0581,9.0581,5.039,5.0344,5.0283,5.0283,5.0894,5.1391,5.1582,5.2155,5.2614,5.2766,5.2805,5.2805,5.2805,5.2805,5.2805,5.2805,5.2652,5.2575,5.2575,5.2422,5.2002,5.1391,5.1353,5.1009,5.0321,5.0168,5.013,5.0283,5.013,5.0512,5.1353,5.2193,5.3034,5.3874,5.4753,5.6091,5.7657,5.781,6.1211,6.6751,7.0151,7.4125,7.8481,8.2722,8.4976,8.6046,8.7536,8.8835,8.8683,8.1385,7.9742,7.9245,7.0457,6.7782,6.7706,6.6713,6.4038,6.1211,6.0561,6.0408,6.0446,6.0599,6.1134,0.0,6.6522,6.6865,6.8699,0.0,7.6876,7.6991,8.2111,8.2493,8.2455,8.3754,8.6849,8.9409,9.0402,9.0517,9.0784,9.151,9.1739,9.2886,9.5598,9.5866,9.5866,9.5866,9.5447,9.5229,9.5143,9.4794,9.4314,9.3618,9.3429,9.3012,9.2292,9.2388,9.2099,9.1539,9.1602,9.1252,9.0581,9.0581,9.0581,9.0581,9.0581,9.0581,9.0581,9.0581,9.0581,9.0581,9.0581,9.0581,9.0581,9.0581,9.0581,9.0581,5.0412,5.039,5.0459,5.0894,5.1314,5.1888,5.2728,5.3187,5.3607,5.4027,5.4448,5.4677,5.4677,5.5059,5.5326,5.5326,5.4562,5.4104,5.4104,5.3263,5.2614,5.2231,5.2193,5.1811,5.0971,5.0971,5.0741,5.0283,5.0283,5.0741,5.162,5.2422,5.3263,5.4142,5.5021,5.632,5.8039,6.0141,6.4688,7.0495,7.0877,7.359,7.7908,8.299,8.4938,8.532,8.8301,8.9332,8.8453,8.2951,8.1652,8.127,7.4927,7.1489,6.9616,6.8776,6.5261,6.1516,6.1096,6.0714,6.0408,6.0408,6.0714,0.0,0.0,6.4114,6.5566,7.2788,7.1909,7.1374,7.6456,7.6036,7.5539,7.7678,8.0468,8.2264,8.1843,8.7575,9.1854,9.1854,9.258,9.3764,9.5446,9.5981,9.6012,9.5547,9.5286,9.5143,9.5094,9.4895,9.4604,9.4187,9.4187,9.3997,9.3542,9.3623,9.3122,9.2096,9.2141,9.1657,9.0581,9.0581,9.0581,9.0581,9.0581,9.0581,9.0581,9.0581,9.0581,9.0581,9.0581,9.0581,9.0581,9.0581,9.0581,9.0581,5.0703,5.0642,5.0864,5.1697,5.1964,5.2537,5.3874,5.4371,5.4906,5.5785,5.646,5.711,5.776,5.7875,5.8207,5.8857,5.706,5.5887,5.5925,5.4587,5.367,5.3301,5.3301,5.2843,5.1849,5.1849,5.1505,5.0779,5.0779,5.1238,5.2117,5.2766,5.3531,5.4409,5.525,5.6931,5.9338,6.3083,6.8279,7.3781,7.1642,7.2941,7.6761,8.234,8.3563,8.3028,8.8606,9.0249,8.9409,8.6849,8.6008,8.5015,7.9436,7.5692,7.2902,7.0419,6.6178,6.2242,6.1936,6.1363,6.0867,6.0867,6.0752,6.079,0.0,0.0,0.0,0.0,0.0,0.0,0.0,0.0,0.0,0.0,0.0,0.0,0.0,8.3677,0.0,9.0058,9.1281,9.2771,9.4261,9.6057,9.6661,9.5494,9.5391,9.5333,9.4996,9.4744,9.4642,9.4793,9.4793,9.4793,9.4793,9.4793,9.4142,9.2886,9.2756,9.2048,9.0819,9.0661,9.0581,9.0581,9.0581,9.0581,9.0581,9.0581,9.0581,9.0581,9.0581,9.0581,9.0581,9.0581,9.0581,9.0581,5.1727,5.1499,5.1697,5.2499,5.3301,5.3874,5.4065,5.5365,5.6625,5.7504,5.7748,5.8987,6.1934,5.9766,5.9281,6.2233,5.9626,5.7799,5.7724,5.7532,5.6741,5.5174,5.5097,5.4333,5.269,5.2652,5.2614,5.2499,5.2499,5.2957,5.3836,5.3913,5.4409,5.5288,5.6091,5.9071,6.3618,6.5566,6.9005,7.359,7.9092,8.2034,0.0,8.8071,8.7345,8.4594,8.9027,9.0975,9.1128,8.8644,8.9714,9.0822,8.3524,8.043,7.8443,7.3017,6.8356,6.4649,6.3159,6.2701,6.2624,6.2624,6.2051,6.1478,6.1593,0.0,6.1784,6.2471,0.0,0.0,0.0,0.0,0.0,0.0,0.0,0.0,6.9158,0.0,0.0,0.0,0.0,8.2646,8.937,9.4834,9.7272,9.5532,9.601,9.5942,9.5034,9.4212,9.4035,9.4755,9.4793,9.4793,9.4793,9.4793,9.44,9.368,9.3051,9.2325,9.1583,9.0861,9.0581,9.0581,9.0581,9.0581,9.0581,9.0581,9.0581,9.0581,9.0581,9.0581,9.0581,9.0581,9.0581,9.0581,5.2598,5.2516,5.274,5.3537,5.3958,5.4508,5.5479,5.6613,5.7504,5.7848,5.8334,6.0119,6.3982,6.183,6.2508,6.8387,6.536,6.3981,0.0,6.3302,6.2174,6.335,5.8727,5.6434,5.7199,5.4791,5.3301,5.2805,5.2805,5.3263,5.4104,5.4104,5.4562,5.5556,5.9338,6.2204,6.4649,7.1718,7.4889,7.5692,8.192,8.3219,0.0,8.6619,8.7307,8.6123,8.8874,9.0402,9.1013,0.0,9.0211,8.9982,8.8759,8.4059,7.8748,7.7258,7.2062,6.7133,6.8394,6.8394,6.7897,6.74,6.698,6.5948,6.3006,6.2357,6.2204,6.1707,0.0,0.0,0.0,0.0,0.0,0.0,6.5528,0.0,0.0,0.0,0.0,0.0,0.0,0.0,0.0,0.0,0.0,0.0,9.2688,9.2442,9.1425,9.3264,9.4225,9.4111,9.4566,9.4793,9.4793,9.4793,9.4492,9.3798,9.3462,9.2728,9.1693,9.136,9.1016,9.0581,9.0581,9.0581,9.0581,9.0581,9.0581,9.0581,9.0581,9.0581,9.0581,9.0581,9.0581,9.0581,5.3793,5.3618,5.3673,5.4511,5.4833,5.5476,5.7086,5.7837,5.8383,5.8842,5.9415,6.1774,6.6934,6.4211,6.5417,7.3827,7.0064,6.8675,0.0,0.0,6.6748,6.9827,6.315,6.0054,6.1458,5.8219,5.5632,5.3836,5.3607,5.3836,5.4448,5.4448,5.4906,5.5938,6.0446,6.3885,6.6827,7.5462,7.9245,7.9895,8.49,8.4671,8.169,8.4632,8.6199,8.7078,8.8988,8.9791,9.0173,9.1892,9.1319,9.0096,9.1586,8.7001,8.1079,8.0888,7.6341,7.1909,7.4393,7.359,7.2291,7.3284,7.1259,6.8432,6.6178,6.4229,6.2662,6.1784,6.2089,0.0,0.0,0.0,6.2242,6.1325,0.0,6.3312,0.0,0.0,0.0,0.0,0.0,0.0,0.0,0.0,0.0,0.0,0.0,8.8897,8.9061,9.1621,9.3353,9.3883,9.449,9.4793,9.4793,9.4793,9.4545,9.4029,9.3856,9.3152,9.1944,9.1766,9.1285,9.0581,9.0581,9.0581,9.0581,9.0581,9.0581,9.0581,9.0581,9.0581,9.0581,9.0581,9.0581,9.0581,5.5626,5.4885,5.4526,5.5331,5.6127,5.7162,5.8765,5.9033,5.9644,6.1287,6.1573,6.4499,7.204,6.7027,6.7215,7.7323,0.0,6.9767,7.3159,0.0,6.9241,7.1773,6.8334,6.5673,6.4221,6.3179,6.0599,5.6473,5.5708,5.5326,5.5365,5.5365,5.5785,5.6587,5.7619,6.3083,7.1642,7.4469,7.9856,8.6734,8.937,8.8874,8.6314,0.0,8.4632,8.7154,8.9676,0.0,0.0,9.2847,9.4223,9.365,9.044,8.9218,8.7995,8.3181,8.0964,8.0124,8.0238,7.6685,7.4316,8.0009,7.3437,6.6827,7.1603,6.763,6.2662,6.1784,0.0,6.1402,6.0599,6.1096,6.0599,5.7313,6.0255,0.0,0.0,0.0,0.0,0.0,0.0,0.0,0.0,0.0,0.0,0.0,0.0,0.0,8.9601,8.9146,9.0624,9.4642,9.4793,9.4793,9.4793,9.4793,9.4793,9.4793,9.4123,9.34,9.2625,9.2015,9.1285,9.0581,9.0581,9.0581,9.0581,9.0581,9.0581,9.0581,9.0581,9.0581,9.0581,9.0581,9.0581,9.0473,5.7434,5.7181,5.6829,5.6544,5.7167,5.8016,5.9051,6.0173,6.1896,0.0,6.5656,0.0,0.0,7.3883,7.4751,0.0,0.0,7.873,8.1541,7.7943,0.0,0.0,0.0,6.8922,0.0,6.4823,6.1096,5.7466,5.6625,5.6205,5.6167,5.567,5.5823,5.6778,6.0981,6.6483,7.2902,7.8213,8.2264,8.5206,8.6084,8.5893,8.5358,0.0,8.788,8.7995,9.0517,9.1395,0.0,9.3688,9.4758,9.4987,9.3841,9.2312,9.0402,8.7575,8.4976,8.3486,8.5702,8.5091,8.4136,8.5588,8.1079,7.5806,7.4163,6.9464,6.5184,6.4305,0.0,0.0,6.5108,6.3312,6.1975,6.3083,6.2128,6.0828,0.0,0.0,0.0,0.0,0.0,0.0,0.0,0.0,0.0,0.0,0.0,0.0,8.4749,8.7251,9.0245,9.3883,9.3997,9.4262,9.4793,9.4793,9.4793,9.4793,9.4545,9.4086,9.34,9.2662,9.2015,9.1285,9.0819,9.0581,9.0581,9.0581,9.0581,9.0581,9.0581,9.0581,9.0581,9.0581,9.0581,9.04,5.8319,5.855,5.8473,5.7588,5.835,5.9739,6.1697,6.3165,6.4967,0.0,6.9625,0.0,7.8064,0.0,7.9473,0.0,8.4302,8.4028,8.718,8.3039,0.0,8.6307,7.8807,0.0,0.0,6.9169,6.4594,6.0655,5.8257,5.7046,5.7046,5.6549,5.6702,5.7657,6.1478,6.6139,7.1565,7.7753,8.1002,8.2149,8.3066,8.4289,0.0,0.0,8.8644,8.7613,0.0,9.2045,9.1969,9.3459,9.4299,9.4758,9.5064,9.4032,9.2618,9.216,9.0058,8.8492,9.1243,9.0478,8.9256,9.0822,8.6467,8.1499,8.0315,7.5653,7.145,7.0877,0.0,0.0,0.0,6.5108,6.2777,6.4993,6.2815,6.0714,0.0,6.0828,0.0,0.0,0.0,0.0,0.0,0.0,0.0,0.0,0.0,0.0,0.0,0.0,8.888,9.3467,9.3883,9.4149,9.4376,9.4642,9.4793,9.4793,9.4793,9.4438,9.3798,9.3301,9.2595,9.162,9.1209,9.0861,9.0581,9.0581,9.0581,9.0581,9.0581,9.0581,9.0581,9.0581,9.0255,8.9567,5.8511,5.9127,5.9435,5.8665,5.9965,6.2413,6.6364,6.7784,6.8704,0.0,7.3346,7.63,7.7297,7.8359,8.1612,8.807,8.5829,8.5709,8.9633,8.5296,0.0,0.0,8.504,8.1935,8.1074,0.0,0.0,6.5676,6.054,5.8001,5.7963,5.7925,5.8345,5.9109,5.9109,6.2395,6.8279,7.3232,7.6561,7.871,8.1308,8.4747,8.8301,8.8377,8.7345,8.6467,9.1395,9.1625,8.9982,9.2427,9.3229,9.3382,9.4223,9.4414,9.4681,9.6363,9.5751,9.4872,9.6477,9.2809,8.9867,9.5484,8.9485,8.3639,8.9256,8.5358,8.0544,8.0506,0.0,0.0,0.0,6.6865,6.3388,6.3618,6.251,6.1325,0.0,0.0,0.0,0.0,0.0,0.0,0.0,0.0,0.0,0.0,0.0,0.0,0.0,0.0,8.6568,9.3125,9.4073,9.4149,9.3429,9.4149,9.4566,9.4604,9.4717,9.4492,9.3856,9.3798,9.3088,9.1766,9.1693,9.1285,9.0661,9.0618,9.0581,9.0581,9.0581,9.0581,9.0581,9.0545,8.9567,8.8118,6.1127,6.1781,6.2281,6.205,6.4424,6.6715,6.7791,0.0,0.0,0.0,7.634,7.9069,8.249,8.5906,8.8598,9.0367,9.0325,0.0,0.0,0.0,0.0,8.9863,8.7267,8.4583,8.1958,7.6766,7.1574,6.648,6.1955,5.9415,5.8803,5.8192,5.8345,5.9109,5.9109,6.2739,6.9005,7.1013,7.7203,8.5896,8.8953,9.052,9.1138,0.0,9.1701,9.0517,9.3153,9.4032,9.407,9.472,9.4949,9.4987,9.5216,9.5293,9.5369,9.5789,9.6095,9.6363,9.6783,9.5789,9.4987,9.6515,9.2121,8.7766,8.9294,8.5397,8.127,8.0621,7.9283,0.0,0.0,0.0,0.0,0.0,0.0,0.0,0.0,0.0,0.0,6.0408,0.0,0.0,0.0,0.0,0.0,0.0,0.0,0.0,0.0,0.0,0.0,8.9714,9.0093,9.0396,9.0775,9.0965,9.142,9.2064,9.3921,9.4741,9.4545,9.4067,9.362,9.3214,9.2155,9.1547,9.136,9.0819,9.0581,9.0581,9.0581,9.0581,9.0545,8.9929,8.906,8.8118,6.2627,6.2974,6.3551,6.432,6.7525,7.0382,7.1497,7.4456,0.0,7.9592,8.2324,0.0,8.5324,8.9517,9.2018,9.1248,9.2326,0.0,9.1633,0.0,0.0,9.1518,8.9489,8.7264,8.5099,8.0279,0.0,7.0179,6.5494,6.2185,6.0179,5.9376,5.9224,5.9682,6.0026,6.2739,6.7247,7.1127,7.7926,8.6314,8.8421,9.0143,0.0,9.2432,9.3038,9.3573,9.4567,9.5216,9.5598,9.5598,9.5598,9.5598,9.5598,9.5598,9.5675,9.6057,9.6248,9.6401,9.6783,9.663,9.6401,9.6783,9.4452,9.2236,9.3,9.0402,8.7804,8.7689,8.5626,8.4403,0.0,0.0,0.0,0.0,0.0,0.0,0.0,0.0,0.0,0.0,0.0,0.0,0.0,0.0,0.0,0.0,0.0,0.0,0.0,0.0,0.0,8.8956,8.9828,8.9373,8.7668,9.1268,9.2405,9.1117,9.3618,9.4793,9.4793,9.44,9.3914,9.3239,9.2461,9.1801,9.1246,9.074,9.0581,9.0581,9.0581,9.0581,9.0473,8.9314,8.8589,8.8046,6.3628,6.382,6.4436,6.5974,6.9655,7.3339,0.0,7.9708,0.0,8.467,0.0,8.9594,8.6748,9.0902,9.3326,9.1979,0.0,9.398,9.3864,9.2518,9.2287,9.3633,9.1479,8.9863,8.9056,8.4758,7.9966,0.0,6.9719,6.5417,6.1745,6.1058,6.0714,6.0752,6.1478,6.3112,6.5856,7.3265,7.9416,8.4276,8.5435,8.8117,9.1332,9.1285,9.3077,9.5598,9.5598,9.5598,9.5598,9.5598,9.5598,9.5598,9.5598,9.5598,9.5751,9.6515,9.6286,9.5942,9.6706,9.6363,9.5942,9.6706,9.6248,9.5981,9.7432,9.6668,9.5789,9.6439,9.258,8.9065,8.9065,0.0,0.0,0.0,0.0,0.0,0.0,0.0,0.0,0.0,0.0,0.0,0.0,0.0,0.0,0.0,0.0,0.0,0.0,0.0,0.0,8.7971,9.0245,8.9373,8.528,9.2595,9.4679,9.1458,9.3732,9.4793,9.4793,9.4793,9.4142,9.295,9.2756,9.1978,9.0861,9.0661,9.0581,9.0581,9.0581,9.0581,9.04,8.8807,8.83,8.8118,6.5436,6.6551,6.759,6.7898,7.1004,7.4745,7.8545,8.0362,8.217,8.4593,8.6748,8.8094,8.8209,9.2133,9.4941,9.5365,9.5672,0.0,0.0,0.0,0.0,9.371,9.2633,9.1633,9.0787,8.6488,8.1426,0.0,7.1789,6.7416,6.2662,6.2548,6.2471,6.2471,6.2624,6.6,7.2019,7.8194,8.3857,8.9025,9.2488,9.4366,9.4978,9.4892,9.5189,9.5598,9.5598,9.5598,9.5598,9.5598,9.5598,9.5598,9.5598,9.5598,9.5637,9.5789,9.6248,9.6706,9.6859,9.6783,9.6706,9.6859,9.6248,9.5675,9.5981,9.5789,9.5446,9.4949,9.4529,9.4299,9.4299,0.0,0.0,0.0,0.0,0.0,0.0,0.0,0.0,0.0,0.0,0.0,0.0,0.0,0.0,0.0,0.0,0.0,0.0,0.0,0.0,0.0,8.3877,0.0,0.0,0.0,9.1799,9.3163,9.4262,9.4793,9.4793,9.4793,9.4651,9.44,9.3202,9.2558,9.222,9.1057,9.0581,9.0581,9.0581,9.0581,9.04,8.8807,8.8626,8.8879,6.7205,6.7859,6.8719,6.9678,0.0,0.0,0.0,8.3952,8.6246,8.8546,8.9902,9.0825,9.1248,9.3518,9.4826,9.4364,9.5134,9.5249,9.4364,9.4326,9.4326,9.4364,9.3172,9.2095,9.121,8.8714,8.3994,7.7105,7.4542,7.0157,6.4191,6.3312,6.2892,6.3045,6.6621,7.0508,7.497,8.3205,8.7881,9.0255,9.483,9.6403,9.6019,9.5856,9.5768,9.5686,9.5643,9.5598,9.5598,9.5598,9.5598,9.5598,9.5598,9.5598,9.5598,9.5598,9.5904,9.621,9.621,9.621,9.6324,9.6783,9.6248,9.5713,9.6172,9.5904,9.5484,9.5102,9.5331,9.4911,9.2733,8.9714,0.0,0.0,0.0,0.0,0.0,0.0,0.0,0.0,0.0,0.0,0.0,0.0,0.0,6.6434,6.7939,0.0,0.0,0.0,0.0,0.0,0.0,0.0,8.4143,0.0,9.2595,9.0434,9.3846,9.5703,9.6082,9.6082,9.5722,9.4977,9.4318,9.3583,9.2756,9.2097,9.1849,9.1849,9.1849,9.1595,9.1088,8.9893,8.9422,8.9096,7.1043,7.1428,7.2109,7.3467,7.6167,7.9777,8.4592,8.7817,9.0414,9.2299,9.3427,9.3971,9.371,9.4634,9.4672,9.3172,9.4249,9.4711,9.4018,9.398,9.421,9.4711,9.3441,9.2287,9.121,9.0517,8.6718,0.0,0.0,7.3054,6.6208,6.5788,6.6093,6.7164,7.2576,7.6241,7.888,8.7267,9.0949,9.1525,9.556,9.6751,9.6098,9.5898,9.5772,9.581,9.5643,9.5598,9.5598,9.5598,9.5598,9.5598,9.5598,9.5598,9.5598,9.5598,9.5598,9.5598,9.5598,9.5598,9.5751,9.6439,9.6095,9.5789,9.6477,9.6095,9.5598,9.5598,9.5598,9.4681,9.1739,9.1204,0.0,0.0,0.0,0.0,0.0,0.0,0.0,0.0,0.0,0.0,0.0,0.0,0.0,6.6935,6.8011,0.0,7.5776,0.0,0.0,0.0,0.0,8.4635,8.2702,0.0,9.3997,9.0093,9.4338,9.6635,9.7041,9.7041,9.6396,9.518,9.5044,9.4228,9.3008,9.3008,9.3008,9.3008,9.3008,9.2501,9.1704,9.0907,9.0183,8.9459,7.9674,8.1412,8.2336,8.195,8.2956,8.4986,8.838,8.9947,9.1256,9.2623,9.4162,9.4775,9.3785,9.5172,9.5788,9.4826,9.4903,9.4941,9.4864,9.4864,9.4557,9.3826,9.3672,9.2826,9.1248,9.1133,8.879,0.0,0.0,7.5756,6.9008,7.269,7.6442,8.0152,8.0803,8.34,8.7379,8.9182,9.2138,9.5749,9.6211,9.629,9.6098,9.5941,9.5856,9.581,9.5643,9.5598,9.5598,9.5598,9.5598,9.5598,9.5598,9.5598,9.5598,9.5598,9.5598,9.5598,9.5598,9.5598,9.5598,9.5713,9.5637,9.5598,9.5713,9.5637,9.5598,9.5598,9.5598,9.5942,9.7089,9.3038,8.8797,0.0,0.0,0.0,0.0,0.0,8.0353,0.0,0.0,0.0,0.0,0.0,0.0,0.0,6.8092,0.0,0.0,0.0,0.0,8.0163,0.0,8.2134,8.7857,9.0396,9.4035,9.8621,9.7674,9.6911,9.6299,9.6299,9.5832,9.5112,9.4447,9.3773,9.3008,9.3008,9.3008,9.3008,9.3008,9.2501,9.1704,9.0907,9.0545,9.0473,8.2513,8.3659,8.4281,8.4684,8.678,0.0,0.0,9.3376,9.494,9.4796,9.5067,9.5077,9.4516,9.4634,9.4595,9.4249,9.3787,9.371,9.4172,9.421,9.4518,9.5211,9.4249,9.3403,9.271,9.171,8.9329,0.0,0.0,7.9012,7.6191,7.5852,7.796,8.2173,8.5238,8.7919,9.0296,9.3714,9.5904,9.7019,9.7019,9.6674,9.6213,9.5981,9.5859,9.5856,9.5686,9.5598,9.5598,9.5598,9.5598,9.5598,9.5598,9.5598,9.5598,9.5598,9.5598,9.5598,9.5598,9.5598,9.5598,9.5598,9.5598,9.5598,9.5598,9.5598,9.5598,9.5598,9.5598,9.5942,9.7165,9.5866,9.3191,8.8988,0.0,0.0,0.0,0.0,0.0,0.0,0.0,0.0,0.0,0.0,0.0,0.0,0.0,0.0,0.0,0.0,0.0,8.274,0.0,8.5848,9.1534,9.0738,9.2254,9.6082,9.6916,9.7422,9.7703,9.7703,9.7031,9.5884,9.5199,9.4713,9.442,9.442,9.442,9.442,9.442,9.366,9.2501,9.2175,9.174,9.1306,8.7111,8.7945,8.8305,8.8869,9.1192,9.3203,9.392,9.6113,9.7407,9.655,9.6136,9.5659,9.5152,9.4475,9.398,9.371,9.2941,9.2826,9.3633,9.371,9.4364,9.5865,9.4749,0.0,9.371,9.2326,9.0482,8.8256,8.4643,8.2573,8.1896,8.0016,8.182,8.6732,9.0413,9.2255,9.2869,9.652,9.7711,9.7134,9.7134,9.6826,9.6251,9.6058,9.5941,9.5941,9.5729,9.5643,9.5643,9.5598,9.5598,9.5598,9.5598,9.5598,9.5598,9.5598,9.5598,9.5598,9.5598,9.5598,9.5598,9.5598,9.5598,9.5598,9.5598,9.5598,9.5675,9.5942,9.5981,9.6172,9.6783,9.7356,9.5981,9.0555,0.0,0.0,0.0,8.5129,0.0,0.0,8.1347,8.3257,8.2913,7.615,0.0,0.0,0.0,0.0,0.0,0.0,0.0,0.0,0.0,0.0,9.1723,8.998,9.1192,9.5437,9.7219,9.8196,9.8365,9.7935,9.7171,9.6149,9.5576,9.5398,9.5398,9.5398,9.5398,9.5362,9.5145,9.4203,9.3008,9.3008,9.2501,9.1885,9.5323,9.6561,9.6954,9.6371,9.7011,9.7636,9.7636,9.7675,9.7602,9.7316,9.7301,9.6779,9.5448,9.5075,9.4634,9.3787,9.2941,9.2826,9.3633,9.371,9.4095,0.0,0.0,9.4557,9.371,9.2903,9.2864,9.3595,0.0,8.6445,8.4796,8.6268,9.0608,9.7211,9.7288,9.6943,9.6249,9.6288,9.6326,9.6326,9.6326,9.6326,9.6288,9.6136,9.6098,9.6058,9.5895,9.581,9.581,9.5643,9.5598,9.5598,9.5598,9.5598,9.5598,9.5598,9.5598,9.5598,9.5598,9.5598,9.5598,9.5598,9.5598,9.5598,9.5598,9.5598,9.5828,9.6706,9.6898,9.6898,9.6898,9.6898,9.5522,9.1281,9.0593,0.0,0.0,8.6467,0.0,8.0277,8.2225,8.4594,8.5397,8.0888,0.0,0.0,0.0,0.0,0.0,0.0,0.0,8.0921,7.6335,0.0,8.7402,8.7402,9.1496,9.972,9.9758,9.902,9.7595,9.607,9.5446,9.5362,9.5398,9.5398,9.5398,9.5398,9.5398,9.529,9.4529,9.3732,9.3008,9.3008,9.2501,9.203,9.6529,9.7397,9.7524,9.7316,9.7518,9.7714,9.7714,9.7714,9.7667,9.7593,9.7409,9.7138,9.6721,9.5286,9.4177,0.0,9.2402,9.1979,0.0,9.3403,9.4095,9.4941,9.498,9.4864,9.4595,9.3749,9.3441,9.371,9.0594,8.9133,8.9213,9.26,9.5367,9.752,9.8712,9.9096,9.8904,9.8904,9.8557,9.7942,9.7365,9.6788,9.6288,9.6136,9.6482,9.6942,9.6699,9.6997,9.7495,9.7363,9.7318,9.7318,9.7318,9.6515,9.5598,9.5598,9.5598,9.5598,9.5598,9.5598,9.5598,9.5598,9.5598,9.5598,9.5598,9.6057,9.6706,9.7547,9.7738,9.7891,9.8502,9.812,9.6363,9.2121,9.3382,9.2427,8.5397,0.0,8.9141,8.4136,8.3983,8.5511,0.0,8.4938,0.0,0.0,0.0,0.0,0.0,0.0,0.0,0.0,8.8084,0.0,9.6688,9.2746,9.377,9.9796,9.9228,9.853,9.7525,9.607,9.5398,9.5362,9.4819,9.4891,9.5362,9.4819,9.4602,9.4602,9.4891,9.4203,9.308,9.3624,9.366,9.3515,9.7284,9.7714,9.7714,9.7714,9.7714,9.7714,9.7714,9.7714,9.7714,9.7714,9.7544,9.7409,9.7301,9.5827,9.4576,9.3907,9.2878,9.2498,9.2903,9.3812,9.466,9.5441,9.548,9.548,9.548,9.4634,9.4364,9.4672,9.3403,9.321,9.4134,9.7096,9.8288,9.8057,9.9481,9.9904,9.9596,9.925,9.8788,9.825,9.7403,9.6749,9.6326,9.652,9.6982,9.7443,9.7507,9.7882,9.8342,9.8165,9.812,9.812,9.812,9.7394,9.6477,9.6172,9.5866,9.5598,9.5598,9.5598,9.5598,9.5598,9.5598,9.5675,9.6019,9.6745,9.7585,9.8426,9.8579,9.877,9.9305,9.8961,9.7623,9.4643,9.5713,9.4987,8.9447,9.1166,9.1243,0.0,0.0,0.0,0.0,8.9638,8.8259,0.0,0.0,0.0,0.0,0.0,0.0,9.1155,9.1268,9.3542,9.8242,9.4642,9.5134,9.9796,9.9083,9.8178,9.7136,9.6239,9.5688,9.5362,9.4855,9.4927,9.5362,9.4855,9.4638,9.4674,9.4855,9.4348,9.3515,9.4022,9.4203,9.4239,9.7714,9.7714,9.7714,9.7714,9.7714,9.7714,9.7714,9.7714,9.7714,9.7714,9.7714,9.7602,9.733,9.6653,9.5668,9.4369,9.4171,9.3987,9.374,9.4768,9.5579,9.6171,9.6286,9.6325,9.6288,9.5518,9.5518,9.6365,9.7211,9.8019,9.8827,9.9635,9.9558,9.8827,9.9635,9.9558,9.875,9.7942,9.7557,9.7442,9.6749,9.6442,9.648,9.7288,9.7634,9.775,9.836,9.8623,9.8619,9.8363,9.8273,9.8273,9.8273,9.8235,9.8044,9.7241,9.6363,9.5675,9.5675,9.5637,9.5598,9.5598,9.5637,9.5904,9.6706,9.7585,9.8426,9.9228,9.9419,9.9458,9.9458,9.9458,9.919,9.8349,9.7547,9.5866,9.2389,9.4643,9.4338,8.8071,0.0,0.0,9.472,9.4796,9.4643,0.0,0.0,0.0,0.0,0.0,8.8454,8.8274,8.8274,9.0131,9.3997,9.3946,9.5878,9.9631,9.8918,9.7838,9.6539,9.6504,9.6086,9.5398,9.5326,9.5326,9.5398,9.5326,9.529,9.5253,9.4565,9.4276,9.4239,9.4276,9.4276,9.4384,9.7714,9.7714,9.7714,9.7714,9.7714,9.7714,9.7714,9.7714,9.7714,9.7714,9.7714,9.7667,9.7611,9.7253,9.6647,9.5725,9.4833,9.4311,9.4239,9.5103,9.561,9.5571,9.6158,9.6454,9.6288,9.6095,9.6403,9.7211,9.8057,9.8596,9.8788,9.9019,9.8981,9.8788,9.9019,9.8981,9.8788,9.8596,9.8096,9.7557,9.8019,9.7827,9.7326,9.8173,9.8865,9.9364,9.9393,9.9807,10.0174,10.0115,9.9992,9.9992,9.9992,9.961,9.8923,9.8082,9.7241,9.6592,9.6592,9.6095,9.5598,9.5598,9.6095,9.663,9.6859,9.8044,9.9152,9.9343,9.9878,10.0298,10.0298,10.0298,9.9992,9.9228,9.8923,9.7394,9.3344,9.3497,9.365,9.2656,9.3459,9.5407,9.8808,9.9114,9.7731,0.0,0.0,9.5667,8.9345,9.473,9.7679,9.6878,9.6878,9.7333,9.8318,9.78,9.7741,9.8067,9.7393,9.6877,9.6502,9.5922,9.5579,9.5362,9.4746,9.4819,9.5326,9.4746,9.4493,9.4529,9.4927,9.4746,9.4276,9.4891,9.5109,9.5145,9.7714,9.7714,9.7714,9.7714,9.7714,9.7714,9.7714,9.7714,9.7714,9.7714,9.7714,9.7714,9.7714,9.7554,9.7316,9.6859,9.6141,9.5535,9.5045,9.5904,9.6331,9.6114,9.6514,9.6704,9.6637,9.6906,9.7616,9.8811,9.9404,9.9829,10.0084,9.9698,9.9473,9.9365,9.8981,9.8788,9.875,9.8365,9.8173,9.8096,9.8173,9.8173,9.8173,9.9058,9.9595,9.9938,10.0199,10.0492,10.0825,10.0612,10.0604,10.0604,10.0604,10.0298,9.984,9.9381,9.8388,9.7356,9.7012,9.6554,9.6172,9.6172,9.7127,9.8044,9.8044,9.9037,9.9954,9.9954,10.0298,10.0604,10.0604,10.0604,10.0489,9.9992,9.8349,9.6286,9.3994,9.3688,9.3994,9.4796,9.663,9.8732,10.0986,10.1215,10.0022,9.7172,9.8077,0.0,9.34,9.6464,9.7931,9.6991,9.8461,9.9329,9.9329,9.8555,9.78,9.7136,9.7061,9.6636,9.6027,9.5975,9.5724,9.5362,9.4927,9.5,9.5362,9.4927,9.4746,9.4783,9.5217,9.5109,9.4783,9.5217,9.5398,9.5398,9.7714,9.7714,9.7714,9.7714,9.7714,9.7714,9.7714,9.7714,9.7714,9.7714,9.7714,9.7714,9.7714,9.7714,9.7714,9.7714,9.7483,9.6974,9.6079,9.6842,9.7271,9.7069,9.7048,9.7048,9.7005,9.7755,9.8893,10.0509,10.0793,10.1298,10.168,10.0798,10.0182,9.994,9.9018,9.8519,9.8365,9.775,9.7942,9.8557,9.8096,9.8327,9.9096,9.9942,10.0172,10.009,10.0812,10.0913,10.078,10.0612,10.0604,10.0604,10.0604,10.0604,10.0604,10.0604,9.961,9.8273,9.7356,9.6974,9.6898,9.6898,9.8158,9.9381,9.9381,9.9992,10.0604,10.0604,10.0604,10.0604,10.0604,10.0604,10.0413,9.9916,9.6898,9.4338,9.365,9.4146,9.4834,9.5522,9.9343,10.2018,10.2094,10.2094,10.1703,10.0784,9.7981,9.7197,9.9136,9.7006,9.5096,9.3656,9.6911,9.8555,9.8365,9.7732,9.7026,9.6348,9.7081,9.6684,9.5398,9.6086,9.605,9.5398,9.5398,9.5398,9.5398,9.5398,9.5398,9.5398,9.5398,9.5398,9.5398,9.5398,9.5398,9.5398,9.7714,9.7714,9.7714,9.7714,9.7714,9.7714,9.7714,9.7714,9.7714,9.7714,9.7714,9.7714,9.7714,9.7714,9.7714,9.7714,9.7667,9.7572,9.7397,9.7533,9.7533,9.7271,9.7271,9.7147,9.7005,9.8473,9.9755,10.0687,10.1487,10.1876,10.1982,10.0887,10.0001,9.9281,9.8205,9.7326,9.6711,9.7288,9.7596,9.7827,9.9173,9.9788,9.9981,10.0789,10.1016,10.0812,10.1,10.0793,10.0566,10.0604,10.0604,10.0604,10.0604,10.0604,10.0604,10.0604,10.0413,9.9878,9.8349,9.7432,9.6898,9.6898,9.8158,9.9381,9.9381,9.9992,10.0604,10.0604,10.0604,10.0604,10.0604,10.0604,9.9687,9.6821,9.5828,9.4146,9.0593,9.3153,9.5446,9.5598,9.9343,10.2209,10.2896,10.3011,10.28,10.2398,10.1776,9.9809,9.583,9.847,9.8129,9.3732,9.6911,9.8067,9.6842,9.6693,9.627,9.5612,9.5721,9.5638,9.5398,9.5507,9.5507,9.5398,9.5398,9.5398,9.5398,9.5398,9.5398,9.5398,9.5398,9.5398,9.5398,9.5398,9.5398,9.5398,9.7714,9.7714,9.7714,9.7714,9.7714,9.7714,9.7714,9.7714,9.7714,9.7714,9.7714,9.7714,9.7714,9.7714,9.7714,9.7714,9.7714,9.7714,9.7714,9.7714,9.7659,9.7533,9.7533,9.7864,9.8548,9.9881,10.1026,10.1701,10.2195,10.2413,10.2324,10.1289,10.0496,9.98,9.8328,9.7697,9.7634,9.7557,9.8057,9.8981,9.9788,10.0404,10.0789,10.1212,10.1208,10.1,10.1,10.0831,10.0604,10.0604,10.0604,10.0604,10.0604,10.0604,10.0604,10.0604,10.0604,10.0298,9.9114,9.8846,9.8808,9.8349,9.9152,9.9992,9.9992,10.0298,10.0604,10.0604,10.0604,10.0604,10.0604,10.0604,9.9496,9.6133,9.5598,9.4299,9.0517,9.3229,9.5751,9.6248,9.961,10.2094,10.2514,10.2514,10.2189,10.1357,10.1814,10.0722,9.7636,9.9796,9.9631,9.6423,9.748,9.7385,9.5947,9.5947,9.574,9.5398,9.5398,9.5398,9.5398,9.5398,9.5398,9.5398,9.5398,9.5398,9.5398,9.5398,9.5398,9.5398,9.5398,9.5398,9.5398,9.5398,9.5398,9.5398,9.7714,9.7714,9.7714,9.7714,9.7714,9.7714,9.7714,9.7714,9.7714,9.7714,9.7714,9.7714,9.7714,9.7714,9.7714,9.7714,9.7714,9.7714,9.7714,9.7714,9.7714,9.7714,9.7714,9.8422,9.9969,10.0802,10.17,10.262,10.2714,10.2714,10.262,10.1813,10.1215,10.0468,9.8922,9.8476,9.8859,9.8095,9.8673,10.0096,10.0289,10.0712,10.1289,10.1289,10.1208,10.1,10.1,10.0831,10.0604,10.0604,10.0604,10.0604,10.0604,10.0604,10.0604,10.0604,10.0718,10.0718,9.9649,9.984,10.0183,9.9534,9.9992,10.0604,10.0604,10.0604,10.0604,10.0604,10.0604,10.0604,10.0604,10.0604,9.9496,9.6133,9.5598,9.4681,9.2121,9.3994,9.621,9.7853,10.0183,10.1788,10.2209,10.2018,10.1617,10.0875,10.1395,10.1292,10.0192,10.0782,10.0293,9.8529,9.7732,9.6693,9.5362,9.5398,9.5398,9.5398,9.5398,9.5398,9.5398,9.5398,9.5398,9.5398,9.5398,9.5398,9.5398,9.5398,9.5398,9.5398,9.5398,9.5398,9.5398,9.5398,9.5398,9.5398,9.7714,9.7714,9.7714,9.7714,9.7714,9.7714,9.7714,9.7714,9.7714,9.7714,9.7714,9.7714,9.7714,9.7714,9.7714,9.7714,9.7714,9.7714,9.7714,9.7714,9.7714,9.7714,9.7714,9.8494,10.0204,10.029,10.1188,10.282,10.2789,10.2789,10.282,10.2517,10.2,10.1088,9.9707,9.9143,9.9158,9.8821,9.925,10.0173,10.0904,10.1212,10.1289,10.1289,10.1208,10.1,10.1,10.0831,10.0604,10.0604,10.0604,10.0604,10.0604,10.0604,10.0604,10.0604,10.1215,10.1521,9.984,9.9419,9.9458,9.9419,9.9992,10.0604,10.0604,10.0604,10.0604,10.0604,10.0604,10.0604,10.0604,10.0604,9.9496,9.6133,9.5598,9.5522,9.5255,9.5446,9.7089,10.11,10.1024,10.1292,10.2896,10.24,10.2123,10.2702,10.2588,10.2219,10.1187,10.1064,10.0005,9.7769,9.699,9.6228,9.5398,9.5398,9.5398,9.5398,9.5398,9.5398,9.5398,9.5398,9.5398,9.5398,9.5398,9.5398,9.5398,9.5398,9.5398,9.5398,9.5398,9.5398,9.5398,9.5398,9.5398,9.5398,9.7714,9.7714,9.7714,9.7714,9.7714,9.7714,9.7714,9.7714,9.7714,9.7714,9.7714,9.7714,9.7714,9.7714,9.7714,9.7714,9.7714,9.7714,9.7714,9.7714,9.7714,9.7714,9.8221,9.908,10.029,10.0798,10.1618,10.2789,10.2789,10.2789,10.2789,10.2714,10.2413,10.2016,10.0718,10.0402,10.0697,9.9936,10.0096,10.0904,10.1212,10.1289,10.1289,10.1289,10.1208,10.1,10.1,10.0831,10.0604,10.0604,10.0604,10.0604,10.0604,10.0604,10.0604,10.0604,10.0795,10.0986,10.0298,10.0489,10.0986,10.0986,10.0795,10.0604,10.0604,10.0604,10.0604,10.0604,10.0604,10.0604,10.0604,10.0604,9.9496,9.6133,9.7356,9.7967,9.5904,9.7394,9.9305,10.0909,10.0795,10.0909,10.1483,10.1292,10.1082,10.1192,10.1217,10.0874,10.0397,9.9877,9.8955,9.7663,9.6916,9.6149,9.5398,9.5398,9.5652,9.6123,9.6123,9.6123,9.6123,9.6123,9.5869,9.5398,9.5398,9.5398,9.5398,9.5398,9.5398,9.5398,9.5398,9.5398,9.5398,9.5398,9.5398,9.5398,9.7714,9.7714,9.7714,9.7714,9.7714,9.7714,9.7714,9.7714,9.7714,9.7714,9.7714,9.7714,9.7714,9.7714,9.7714,9.7714,9.7714,9.7714,9.7714,9.7714,9.7714,9.7714,9.8533,9.9275,9.9861,10.0915,10.1813,10.2398,10.2711,10.2789,10.2789,10.2789,10.2714,10.2504,10.1408,10.1293,10.1778,10.0689,10.0595,10.1289,10.1289,10.1289,10.1289,10.1289,10.1208,10.1081,10.0962,10.0908,10.0688,10.0604,10.0604,10.0604,10.0604,10.0604,10.0604,10.0604,10.0604,10.0718,10.0909,10.1215,10.1521,10.1521,10.1024,10.0604,10.0604,10.0604,10.0604,10.0604,10.0604,10.0604,10.0604,10.0604,9.984,9.7547,9.9114,9.9801,9.7471,9.9152,10.0718,10.0986,10.0986,10.0986,10.0986,10.0986,10.0815,10.0315,10.0227,10.0113,9.9796,9.9117,9.8492,9.7935,9.699,9.6306,9.574,9.5529,9.5652,9.6231,9.6485,9.6449,9.6231,9.6485,9.6159,9.5398,9.5398,9.5398,9.5398,9.5398,9.5398,9.5398,9.5398,9.5398,9.5398,9.5398,9.5398,9.5362,9.7714,9.7714,9.7714,9.7714,9.7714,9.7714,9.7714,9.7714,9.7714,9.7714,9.7714,9.7714,9.7714,9.7714,9.7714,9.7714,9.7714,9.7714,9.7714,9.7714,9.7714,9.7714,9.8533,9.9002,9.9002,10.0603,10.15,10.15,10.2398,10.2789,10.2789,10.2789,10.2789,10.2789,10.1698,10.1504,10.1992,10.0916,10.0728,10.1289,10.1289,10.1289,10.1289,10.1289,10.1287,10.1206,10.1004,10.0875,10.0825,10.0612,10.0604,10.0604,10.0604,10.0604,10.0604,10.0604,10.0604,10.0795,10.1712,10.1292,10.0604,10.0604,10.0604,10.0604,10.0604,10.0604,10.0604,10.0604,10.0604,10.0604,10.0604,10.0604,10.0604,10.0604,10.0604,10.0604,10.0604,10.0604,10.0909,10.1788,10.1903,10.1903,10.1903,10.1903,10.1512,10.049,10.0315,10.0113,9.9796,9.9117,9.8717,9.8717,9.7243,9.6502,9.6502,9.5822,9.5398,9.5398,9.6195,9.6159,9.5435,9.6231,9.6159,9.5398,9.5398,9.5398,9.5398,9.5398,9.5398,9.5398,9.5398,9.5398,9.5398,9.5398,9.5398,9.5253,9.7714,9.7714,9.7714,9.7714,9.7714,9.7714,9.7714,9.7714,9.7714,9.7714,9.7714,9.7714,9.7714,9.7714,9.7714,9.7714,9.7714,9.7714,9.7714,9.7714,9.7714,9.7714,9.7948,9.8377,9.9002,9.9509,10.0017,10.0681,10.15,10.1891,10.1891,10.2515,10.2789,10.2789,10.1698,10.1213,10.12,10.0577,10.0385,10.0481,10.1096,10.1289,10.1289,10.1289,10.1208,10.1081,10.1,10.0908,10.0688,10.0604,10.0604,10.0604,10.0604,10.0604,10.0604,10.0604,10.0604,10.0718,10.0909,10.0795,10.0718,10.1406,10.11,10.0604,10.0604,10.0604,10.0604,10.0604,10.0604,10.0604,10.0604,10.0604,10.0604,10.0604,10.0604,10.0604,10.0604,10.0604,10.0718,10.0986,10.1521,10.1712,10.1024,10.1502,10.129,10.0265,9.9986,9.9904,9.9796,9.9593,9.9234,9.8717,9.78,9.7026,9.6502,9.5822,9.5652,9.6231,9.6485,9.6449,9.6231,9.6485,9.6159,9.5398,9.5398,9.5398,9.5398,9.5398,9.5398,9.5398,9.5398,9.5398,9.5398,9.5398,9.5036,9.4529,9.7714,9.7714,9.7714,9.7714,9.7714,9.7714,9.7714,9.7714,9.7714,9.7714,9.7714,9.7714,9.7714,9.7714,9.7714,9.7714,9.7714,9.7714,9.7714,9.7714,9.7714,9.7714,9.7714,9.7948,9.8455,9.9158,9.9588,9.9783,10.0603,10.1188,10.15,10.2008,10.2515,10.2789,10.1786,10.1198,10.0903,10.0703,10.0419,10.0319,10.0981,10.1289,10.1289,10.1289,10.117,10.1123,10.1004,10.0869,10.0688,10.0604,10.0604,10.0604,10.0604,10.0604,10.0604,10.0604,10.0604,10.0489,10.0183,10.0107,10.0298,10.0795,10.0795,10.0604,10.0604,10.0604,10.0604,10.0604,10.0604,10.0604,10.0604,10.0604,10.0604,10.0604,10.0604,10.0604,10.0604,10.0604,10.0604,10.0604,10.1712,10.1903,10.0718,10.1617,10.1622,10.0203,9.9904,9.9796,9.9796,9.9796,9.9593,9.9175,9.8133,9.7385,9.6916,9.5947,9.5797,9.6593,9.6593,9.6593,9.6593,9.6593,9.6159,9.5398,9.5398,9.5398,9.5398,9.5398,9.5398,9.5398,9.5398,9.5398,9.5362,9.5036,9.4554,9.3964,9.7714,9.7714,9.7714,9.7714,9.7714,9.7714,9.7714,9.7714,9.7714,9.7714,9.7714,9.7714,9.7714,9.7714,9.7714,9.7714,9.7714,9.7714,9.7714,9.7714,9.7714,9.7714,9.7714,9.7714,9.7714,9.9275,9.9666,9.8885,9.9744,10.0603,10.1305,10.1383,10.1891,10.2593,10.1891,10.1289,10.1104,10.0784,10.0483,10.0279,10.0901,10.1212,10.1289,10.1289,10.1287,10.1206,10.1004,10.0875,10.078,10.0612,10.0604,10.0604,10.0604,10.0604,10.0604,10.0604,10.0489,10.0298,9.961,9.9343,9.9305,9.9381,9.9954,10.0489,10.0604,10.0604,10.0604,10.0604,10.0604,10.0604,10.0604,10.0604,10.0604,10.0604,10.0604,10.0604,10.0604,10.0604,10.0604,10.0604,10.2094,10.2476,10.0909,10.1988,10.2106,10.0085,9.985,9.9796,9.9796,9.9796,9.9796,9.9796,9.8429,9.7663,9.7595,9.6228,9.5808,9.6485,9.6485,9.6485,9.6485,9.6485,9.6086,9.5398,9.5398,9.5398,9.5398,9.5398,9.5398,9.5398,9.5398,9.5362,9.5181,9.4493,9.3964,9.3434,9.7714,9.7714,9.7714,9.7714,9.7714,9.7714,9.7714,9.7714,9.7714,9.7714,9.7714,9.7714,9.7714,9.7714,9.7714,9.7714,9.7714,9.7714,9.7714,9.7714,9.7714,9.7714,9.7714,9.7714,9.7714,9.8065,9.8182,9.7987,9.8846,9.9353,9.9588,10.0915,10.1618,10.1813,10.1618,10.0977,10.0224,9.9889,9.963,9.946,10.0092,10.0712,10.1289,10.1289,10.1208,10.1004,10.1,10.0793,10.0612,10.0604,10.0604,10.0604,10.0604,10.0604,10.0604,10.0604,10.0183,9.961,9.9458,9.8884,9.8541,9.9228,9.9534,9.984,10.0489,10.0604,10.0604,10.0604,10.0604,10.0604,10.0604,10.0604,10.0604,10.0604,10.0604,10.0604,10.0604,10.0604,10.0604,10.0604,10.1521,10.2018,10.1712,10.171,10.1306,9.9926,9.9796,9.9796,9.9796,9.9796,9.9796,9.9796,9.89,9.8198,9.7595,9.6693,9.602,9.5652,9.5652,9.5652,9.5652,9.5652,9.5543,9.5398,9.5398,9.5398,9.5398,9.5398,9.5398,9.5398,9.5398,9.5,9.4457,9.4276,9.3241,9.1799,9.7714,9.7714,9.7714,9.7714,9.7714,9.7714,9.7714,9.7714,9.7714,9.7714,9.7714,9.7714,9.7714,9.7714,9.7714,9.7714,9.7714,9.7714,9.7714,9.7714,9.7714,9.7714,9.7714,9.7714,9.7714,9.7714,9.7714,9.7714,9.8143,9.8807,9.9627,10.0485,10.1383,10.2086,10.1696,10.1007,10.0085,9.9808,9.9552,9.9355,10.0022,10.0632,10.1287,10.1287,10.1126,10.0875,10.0875,10.0825,10.0604,10.0604,10.0604,10.0604,10.0604,10.0604,10.0489,10.0107,9.9725,9.9228,9.8426,9.7853,9.7738,9.8579,9.877,9.9114,10.0298,10.0604,10.0604,10.0604,10.0604,10.0604,10.0604,10.0604,10.0604,10.0604,10.0604,10.0604,10.0604,10.0604,10.0604,10.0604,10.1406,10.1817,10.1672,10.123,10.0608,9.9834,9.9796,9.9796,9.9796,9.9796,9.9796,9.9796,9.9117,9.8492,9.8133,9.7026,9.627,9.5947,9.5612,9.5579,9.5942,9.5579,9.5398,9.5398,9.5398,9.5398,9.5398,9.5398,9.5398,9.5398,9.5398,9.4891,9.4167,9.3638,9.2279,9.0504,9.7714,9.7714,9.7714,9.7714,9.7714,9.7714,9.7714,9.7714,9.7714,9.7714,9.7714,9.7714,9.7714,9.7714,9.7714,9.7714,9.7714,9.7714,9.7714,9.7714,9.7714,9.7714,9.7714,9.7714,9.7714,9.7714,9.7714,9.7714,9.7714,9.8533,10.0095,10.0212,10.111,10.2515,10.1813,10.111,10.0282,9.9852,9.954,9.9397,9.9958,10.0501,10.1019,10.1208,10.1004,10.0787,10.0787,10.0696,10.0604,10.0604,10.0604,10.0604,10.0604,10.0489,10.0298,9.961,9.919,9.8655,9.728,9.6783,9.6898,9.7853,9.812,9.8541,10.0222,10.0604,10.0604,10.0604,10.0604,10.0604,10.0604,10.0604,10.0604,10.0604,10.0604,10.0604,10.0604,10.0604,10.0604,10.0604,10.1283,10.1683,10.1332,10.071,10.0176,9.9796,9.9796,9.9796,9.9796,9.9796,9.9796,9.9796,9.9175,9.8839,9.8717,9.7237,9.6434,9.6282,9.5522,9.5616,9.6376,9.5688,9.5398,9.5398,9.5398,9.5398,9.5398,9.5398,9.5398,9.5398,9.5398,9.4819,9.3794,9.264,9.1115,8.9543,9.7714,9.7714,9.7714,9.7714,9.7714,9.7714,9.7714,9.7714,9.7714,9.7714,9.7714,9.7714,9.7714,9.7714,9.7714,9.7714,9.7714,9.7714,9.7714,9.7714,9.7714,9.7714,9.7714,9.7714,9.7714,9.7714,9.7714,9.7714,9.7714,9.8221,9.9197,9.9939,10.0798,10.1696,10.1618,10.111,10.0204,9.9202,9.8767,9.8757,9.9138,9.9706,10.0389,10.1019,10.1004,10.0787,10.0787,10.0696,10.0604,10.0604,10.0604,10.0604,10.0604,10.0107,9.9534,9.9419,9.8349,9.7203,9.6974,9.6363,9.6133,9.77,9.812,9.8541,10.0222,10.0604,10.0604,10.0604,10.0604,10.0604,10.0604,10.0604,10.0604,10.0604,10.0604,10.0604,10.0604,10.0604,10.0604,10.0604,10.1311,10.1405,10.0482,10.0798,10.0792,9.9872,9.9796,9.9796,9.9796,9.9796,9.9796,9.9796,9.9742,9.9329,9.8717,9.716,9.6135,9.5437,9.4685,9.4783,9.5543,9.5435,9.5398,9.5398,9.5398,9.5398,9.5398,9.5398,9.5398,9.5398,9.5398,9.4493,9.2926,9.1031,9.0097,8.9543,9.7714,9.7714,9.7714,9.7714,9.7714,9.7714,9.7714,9.7714,9.7714,9.7714,9.7714,9.7714,9.7714,9.7714,9.7714,9.7714,9.7714,9.7714,9.7714,9.7714,9.7714,9.7714,9.7714,9.7714,9.7714,9.7714,9.7714,9.7714,9.8182,9.8885,9.9744,10.0603,10.1383,10.2203,10.1696,10.111,10.0212,9.9231,9.8734,9.8595,9.8566,9.9211,10.0196,10.0284,10.0486,10.0696,10.0696,10.0688,10.0604,10.0604,10.0298,9.9916,9.9916,9.9343,9.8579,9.812,9.7471,9.6783,9.6324,9.6248,9.6592,9.7815,9.8464,9.9152,10.0298,10.0604,10.0604,10.0604,10.0604,10.0604,10.0604,10.0604,10.0604,10.0604,10.0604,10.0604,10.0604,10.0604,10.0604,10.0604,10.0901,10.092,10.0304,10.0925,10.1187,10.0592,10.0516,10.0516,10.0516,10.0099,9.9796,9.9796,9.9796,9.9649,9.9329,9.7862,9.6899,9.6581,9.54,9.4819,9.4746,9.5181,9.5398,9.5398,9.5398,9.5398,9.5398,9.5398,9.5398,9.5398,9.5398,9.4217,9.2376,9.0456,8.9628,8.9371]},{"header":{"parameterUnit":"m.s-1","parameterCategory":1,"la1":30.6,"la2":28.766,"lo1":-90.7593,"lo2":-88.6598,"dx":0.0162,"dy":0.0183,"nx":116,"ny":114,"refTime":"2022-11-10T06:00:00:Z","depth":0,"parameterNumber":3,"parameterNumberName":"V-component_of_WINDS"},"data":[0.0,0.0,0.0,0.0,0.0,0.0,0.0,0.0,0.0,0.0,0.0,0.0,0.0,0.0,0.0,0.0,0.0,0.0,0.0,0.0,0.0,0.0,0.0,0.0,0.0,0.0,0.0,0.0,0.0,0.0,0.0,0.0,0.0,0.0,0.0,0.0,0.0,0.0,0.0,0.0,0.0,0.0,0.0,0.0,0.0,0.0,0.0,0.0,0.0,0.0,0.0,0.0,0.0,0.0,0.0,0.0,0.0,0.0,0.0,0.0,0.0,0.0,0.0,0.0,0.0,0.0,0.0,0.0,0.0,0.0,0.0,0.0,0.0,0.0,0.0,0.0,0.0,0.0,0.0,0.0,0.0,0.0,0.0,0.0,0.0,0.0,0.0,0.0,0.0,0.0,0.0,0.0,0.0,0.0,0.0,0.0,0.0,0.0,0.0,0.0,0.0,0.0,0.0,0.0,0.0,0.0,0.0,0.0,0.0,0.0,0.0,0.0,0.0,0.0,0.0,0.0,0.0,0.0,0.0,0.0,0.0,0.0,0.0,0.0,0.0,0.0,0.0,0.0,0.0,0.0,0.0,0.0,0.0,0.0,0.0,0.0,0.0,0.0,0.0,0.0,0.0,0.0,0.0,0.0,0.0,0.0,0.0,0.0,0.0,0.0,0.0,0.0,0.0,0.0,0.0,0.0,0.0,0.0,0.0,0.0,0.0,0.0,0.0,0.0,0.0,0.0,0.0,0.0,0.0,0.0,0.0,0.0,0.0,0.0,0.0,0.0,0.0,0.0,0.0,0.0,0.0,0.0,0.0,0.0,0.0,0.0,0.0,0.0,0.0,0.0,0.0,0.0,0.0,0.0,0.0,0.0,0.0,0.0,0.0,0.0,0.0,0.0,0.0,0.0,0.0,0.0,0.0,0.0,0.0,0.0,0.0,0.0,0.0,0.0,0.0,0.0,0.0,0.0,0.0,0.0,0.0,0.0,0.0,0.0,0.0,0.0,0.0,0.0,0.0,0.0,0.0,0.0,0.0,0.0,0.0,0.0,0.0,0.0,0.0,0.0,0.0,0.0,0.0,0.0,0.0,0.0,0.0,0.0,0.0,0.0,0.0,0.0,0.0,0.0,0.0,0.0,0.0,0.0,0.0,0.0,0.0,0.0,0.0,0.0,0.0,0.0,0.0,0.0,0.0,0.0,0.0,0.0,0.0,0.0,0.0,0.0,0.0,0.0,0.0,0.0,0.0,0.0,0.0,0.0,0.0,0.0,0.0,0.0,0.0,0.0,0.0,0.0,0.0,0.0,0.0,0.0,0.0,0.0,0.0,0.0,0.0,0.0,0.0,0.0,0.0,0.0,0.0,0.0,0.0,0.0,0.0,0.0,0.0,0.0,0.0,0.0,0.0,0.0,0.0,0.0,0.0,0.0,0.0,0.0,0.0,0.0,0.0,0.0,0.0,0.0,0.0,0.0,0.0,0.0,0.0,0.0,0.0,0.0,0.0,0.0,0.0,0.0,0.0,0.0,0.0,0.0,0.0,0.0,0.0,0.0,0.0,0.0,0.0,0.0,0.0,0.0,0.0,0.0,0.0,0.0,0.0,0.0,0.0,0.0,0.0,0.0,0.0,0.0,0.0,0.0,0.0,0.0,0.0,0.0,0.0,0.0,0.0,0.0,0.0,0.0,0.0,0.0,0.0,0.0,0.0,0.0,0.0,0.0,0.0,0.0,0.0,0.0,0.0,0.0,0.0,0.0,0.0,0.0,0.0,0.0,0.0,0.0,0.0,0.0,0.0,0.0,0.0,0.0,0.0,0.0,0.0,0.0,0.0,0.0,0.0,0.0,0.0,0.0,0.0,0.0,0.0,0.0,0.0,0.0,0.0,0.0,0.0,0.0,0.0,0.0,0.0,0.0,0.0,0.0,0.0,0.0,0.0,0.0,0.0,0.0,0.0,0.0,0.0,0.0,0.0,0.0,0.0,0.0,0.0,0.0,0.0,0.0,0.0,0.0,0.0,0.0,0.0,0.0,0.0,0.0,0.0,0.0,0.0,0.0,0.0,0.0,0.0,0.0,0.0,0.0,0.0,0.0,0.0,0.0,0.0,0.0,0.0,0.0,0.0,0.0,0.0,0.0,0.0,0.0,0.0,0.0,0.0,0.0,0.0,0.0,0.0,0.0,0.0,0.0,0.0,0.0,0.0,0.0,0.0,0.0,0.0,0.0,0.0,0.0,0.0,0.0,0.0,0.0,0.0,0.0,0.0,0.0,0.0,0.0,0.0,0.0,0.0,0.0,0.0,0.0,0.0,0.0,0.0,0.0,0.0,0.0,0.0,0.0,0.0,0.0,0.0,0.0,0.0,0.0,0.0,0.0,0.0,0.0,0.0,0.0,0.0,0.0,0.0,0.0,0.0,0.0,0.0,0.0,0.0,0.0,0.0,0.0,0.0,0.0,0.0,0.0,0.0,0.0,0.0,0.0,0.0,0.0,0.0,0.0,0.0,0.0,0.0,0.0,0.0,0.0,0.0,0.0,0.0,0.0,0.0,0.0,0.0,0.0,0.0,0.0,0.0,0.0,0.0,0.0,0.0,0.0,0.0,0.0,0.0,0.0,0.0,0.0,0.0,0.0,0.0,0.0,0.0,0.0,0.0,0.0,0.0,0.0,0.0,0.0,0.0,0.0,0.0,0.0,0.0,0.0,0.0,0.0,0.0,0.0,0.0,0.0,0.0,0.0,0.0,0.0,0.0,0.0,0.0,0.0,0.0,0.0,0.0,0.0,0.0,0.0,0.0,0.0,0.0,0.0,0.0,0.0,0.0,0.0,0.0,0.0,0.0,0.0,0.0,0.0,0.0,0.0,0.0,0.0,0.0,0.0,0.0,0.0,0.0,0.0,0.0,0.0,0.0,0.0,0.0,0.0,0.0,0.0,0.0,0.0,0.0,0.0,0.0,0.0,0.0,0.0,0.0,0.0,0.0,0.0,0.0,0.0,0.0,0.0,0.0,0.0,0.0,0.0,0.0,0.0,0.0,0.0,0.0,0.0,0.0,0.0,0.0,0.0,0.0,0.0,0.0,0.0,0.0,0.0,0.0,0.0,0.0,0.0,0.0,0.0,0.0,0.0,0.0,0.0,0.0,0.0,0.0,0.0,0.0,0.0,0.0,0.0,0.0,0.0,0.0,0.0,0.0,0.0,0.0,0.0,0.0,0.0,0.0,0.0,0.0,0.0,0.0,0.0,0.0,0.0,0.0,0.0,0.0,0.0,0.0,0.0,0.0,0.0,0.0,0.0,0.0,0.0,0.0,0.0,0.0,0.0,0.0,0.0,0.0,0.0,0.0,0.0,0.0,0.0,0.0,0.0,0.0,0.0,0.0,0.0,0.0,0.0,0.0,0.0,0.0,0.0,0.0,0.0,0.0,0.0,0.0,0.0,0.0,0.0,0.0,0.0,0.0,0.0,0.0,0.0,0.0,0.0,0.0,0.0,0.0,0.0,0.0,0.0,0.0,0.0,0.0,0.0,0.0,0.0,0.0,0.0,0.0,0.0,0.0,0.0,0.0,0.0,0.0,0.0,0.0,0.0,0.0,0.0,0.0,0.0,0.0,0.0,0.0,0.0,0.0,0.0,0.0,0.0,0.0,0.0,0.0,0.0,0.0,0.0,0.0,0.0,0.0,0.0,0.0,0.0,0.0,0.0,0.0,0.0,0.0,0.0,0.0,0.0,0.0,0.0,0.0,0.0,0.0,0.0,0.0,0.0,0.0,0.0,0.0,0.0,0.0,0.0,0.0,0.0,0.0,0.0,0.0,0.0,0.0,0.0,0.0,0.0,0.0,0.0,0.0,0.0,0.0,0.0,0.0,0.0,0.0,0.0,0.0,0.0,0.0,0.0,0.0,0.0,0.0,0.0,0.0,0.0,0.0,0.0,0.0,0.0,0.0,0.0,0.0,0.0,0.0,0.0,0.0,0.0,0.0,0.0,0.0,0.0,0.0,0.0,0.0,0.0,0.0,0.0,0.0,0.0,0.0,0.0,0.0,0.0,0.0,0.0,0.0,0.0,0.0,0.0,0.0,0.0,0.0,0.0,0.0,0.0,0.0,0.0,0.0,0.0,0.0,0.0,0.0,0.0,0.0,0.0,0.0,0.0,0.0,0.0,0.0,0.0,0.0,0.0,0.0,0.0,0.0,0.0,0.0,0.0,0.0,0.0,0.0,0.0,0.0,0.0,0.0,0.0,0.0,0.0,0.0,0.0,0.0,0.0,0.0,0.0,0.0,0.0,0.0,0.0,0.0,0.0,0.0,0.0,0.0,0.0,0.0,0.0,0.0,0.0,0.0,0.0,0.0,0.0,0.0,0.0,0.0,0.0,0.0,0.0,0.0,0.0,0.0,0.0,0.0,0.0,0.0,0.0,0.0,0.0,0.0,0.0,0.0,0.0,0.0,0.0,0.0,0.0,0.0,0.0,0.0,0.0,0.0,0.0,0.0,0.0,0.0,0.0,0.0,0.0,0.0,0.0,0.0,0.0,0.0,0.0,0.0,0.0,0.0,0.0,0.0,0.0,0.0,0.0,0.0,0.0,0.0,0.0,0.0,0.0,0.0,0.0,0.0,0.0,0.0,0.0,0.0,0.0,0.0,0.0,0.0,0.0,0.0,0.0,0.0,0.0,0.0,0.0,0.0,0.0,0.0,0.0,0.0,0.0,0.0,0.0,0.0,0.0,0.0,0.0,0.0,0.0,0.0,0.0,0.0,0.0,0.0,0.0,0.0,0.0,0.0,0.0,0.0,0.0,0.0,0.0,0.0,0.0,0.0,0.0,0.0,0.0,0.0,0.0,0.0,0.0,0.0,0.0,0.0,0.0,0.0,0.0,0.0,0.0,0.0,0.0,0.0,0.0,0.0,0.0,0.0,0.0,0.0,0.0,0.0,0.0,0.0,0.0,0.0,0.0,0.0,0.0,0.0,0.0,0.0,0.0,0.0,0.0,0.0,0.0,0.0,0.0,0.0,0.0,0.0,0.0,0.0,0.0,0.0,0.0,0.0,0.0,0.0,0.0,0.0,0.0,0.0,0.0,0.0,0.0,0.0,0.0,0.0,0.0,0.0,0.0,0.0,0.0,0.0,0.0,0.0,0.0,0.0,0.0,0.0,0.0,0.0,0.0,0.0,0.0,0.0,0.0,0.0,0.0,0.0,0.0,0.0,0.0,0.0,0.0,0.0,0.0,0.0,0.0,0.0,0.0,0.0,0.0,0.0,0.0,0.0,0.0,0.0,0.0,0.0,0.0,0.0,0.0,0.0,0.0,0.0,0.0,0.0,0.0,0.0,0.0,0.0,0.0,0.0,0.0,0.0,0.0,0.0,0.0,0.0,0.0,0.0,0.0,0.0,0.0,0.0,0.0,0.0,0.0,0.0,0.0,0.0,0.0,0.0,0.0,0.0,0.0,0.0,0.0,0.0,0.0,0.0,0.0,0.0,0.0,0.0,0.0,0.0,0.0,0.0,0.0,0.0,0.0,0.0,0.0,0.0,0.0,0.0,0.0,0.0,0.0,0.0,0.0,0.0,0.0,0.0,0.0,0.0,0.0,0.0,0.0,0.0,0.0,0.0,0.0,0.0,0.0,0.0,0.0,0.0,0.0,0.0,0.0,0.0,0.0,0.0,0.0,0.0,0.0,0.0,0.0,0.0,0.0,0.0,0.0,0.0,0.0,0.0,0.0,0.0,0.0,0.0,0.0,0.0,0.0,0.0,0.0,0.0,0.0,0.0,0.0,0.0,0.0,0.0,0.0,0.0,0.0,0.0,0.0,0.0,0.0,0.0,0.0,0.0,0.0,0.0,0.0,0.0,0.0,0.0,0.0,0.0,0.0,0.0,0.0,0.0,0.0,0.0,0.0,0.0,0.0,0.0,0.0,0.0,0.0,0.0,0.0,0.0,0.0,0.0,0.0,0.0,0.0,0.0,0.0,0.0,0.0,0.0,0.0,0.0,0.0,0.0,0.0,0.0,0.0,0.0,0.0,0.0,0.0,0.0,0.0,0.0,0.0,0.0,0.0,0.0,0.0,0.0,0.0,0.0,0.0,0.0,0.0,0.0,0.0,-1.3234,-1.2078,0.0,0.0,0.0,0.0,0.0,0.0,0.0,0.0,0.0,0.0,0.0,0.0,0.0,0.0,0.0,0.0,0.0,0.0,0.0,0.0,0.0,0.0,0.0,-1.2559,-1.2799,-1.2959,-1.2973,0.0,0.0,0.0,0.0,0.0,0.0,0.0,-1.3627,-1.3627,-1.3513,-1.3269,-1.3459,-1.3311,-1.31,-1.2501,-1.2215,-1.2315,0.0,0.0,0.0,0.0,0.0,0.0,0.0,0.0,0.0,0.0,0.0,0.0,0.0,0.0,0.0,0.0,0.0,0.0,0.0,0.0,0.0,0.0,0.0,0.0,0.0,0.0,0.0,0.0,0.0,0.0,0.0,0.0,0.0,0.0,0.0,0.0,0.0,0.0,0.0,0.0,0.0,0.0,0.0,0.0,0.0,0.0,0.0,0.0,0.0,0.0,0.0,0.0,0.0,0.0,0.0,0.0,0.0,0.0,0.0,0.0,0.0,0.0,0.0,0.0,0.0,0.0,0.0,0.0,0.0,0.0,-1.4105,-1.3624,0.0,0.0,0.0,0.0,0.0,0.0,0.0,0.0,0.0,0.0,0.0,0.0,0.0,0.0,0.0,0.0,0.0,0.0,0.0,0.0,0.0,-1.2903,-1.2903,-1.3053,-1.3227,-1.328,-1.328,-1.3333,-1.3427,-1.344,-1.3467,-1.3507,-1.352,-1.3748,-1.4229,-1.4058,-1.3849,-1.3576,-1.4197,-1.3819,-1.2713,-1.2713,-1.2822,-1.2891,-1.2501,0.0,0.0,0.0,0.0,0.0,0.0,0.0,0.0,0.0,0.0,0.0,0.0,0.0,0.0,0.0,0.0,0.0,0.0,0.0,0.0,0.0,0.0,0.0,0.0,0.0,0.0,0.0,0.0,0.0,0.0,0.0,0.0,0.0,0.0,0.0,0.0,0.0,0.0,0.0,0.0,0.0,0.0,0.0,0.0,0.0,0.0,0.0,0.0,0.0,0.0,0.0,0.0,0.0,0.0,0.0,0.0,0.0,0.0,0.0,0.0,0.0,0.0,0.0,-1.4388,-1.478,-1.5247,-1.5397,-1.5539,-1.5652,-1.5165,-1.5496,-1.633,-1.5035,0.0,0.0,0.0,0.0,0.0,0.0,0.0,0.0,0.0,0.0,0.0,0.0,0.0,0.0,0.0,0.0,0.0,0.0,0.0,-1.3146,-1.3146,-1.3186,-1.3307,-1.3561,-1.3587,-1.3801,-1.4309,-1.4349,-1.4469,-1.4723,-1.4736,-1.4776,-1.4843,-1.3925,-1.3776,-1.4371,-1.4272,-1.3886,-1.298,-1.298,-1.3054,-1.3034,-1.3548,-1.324,-1.2556,0.0,0.0,0.0,0.0,0.0,0.0,0.0,0.0,0.0,0.0,0.0,0.0,0.0,0.0,0.0,0.0,0.0,0.0,0.0,0.0,0.0,0.0,0.0,0.0,0.0,0.0,0.0,0.0,0.0,0.0,0.0,0.0,0.0,0.0,0.0,0.0,0.0,0.0,0.0,0.0,0.0,-1.111,-1.1671,0.0,0.0,0.0,0.0,0.0,0.0,0.0,0.0,0.0,0.0,0.0,0.0,0.0,-1.3482,-1.3993,-1.4767,-1.5328,-1.5819,-1.6765,-1.7268,-1.7609,-1.7938,-1.8267,-1.822,-1.7435,0.0,-1.6235,-1.6377,0.0,0.0,0.0,0.0,0.0,0.0,0.0,0.0,0.0,0.0,0.0,0.0,0.0,0.0,0.0,0.0,0.0,0.0,0.0,0.0,0.0,-1.3353,-1.3473,-1.3668,-1.3554,-1.3673,-1.4272,-1.4365,-1.4494,-1.4977,-1.4398,-1.4204,-1.4355,-1.3703,-1.3698,-1.4488,-1.3707,-1.3528,-1.3701,-1.3701,-1.3758,-1.3815,-1.3966,-1.3313,-1.1946,-1.1946,0.0,0.0,0.0,0.0,0.0,0.0,0.0,0.0,0.0,0.0,0.0,0.0,0.0,0.0,0.0,0.0,0.0,0.0,0.0,0.0,0.0,0.0,0.0,0.0,0.0,0.0,0.0,0.0,0.0,0.0,0.0,0.0,0.0,0.0,0.0,0.0,0.0,0.0,0.0,-1.1191,-1.1801,-1.2442,-1.2402,-1.2231,0.0,0.0,0.0,0.0,0.0,0.0,0.0,0.0,0.0,-1.4123,-1.4229,-1.4529,-1.5065,-1.5696,-1.6213,-1.6781,-1.7351,-1.8045,-1.8504,-1.8843,-1.891,-1.9004,-1.8636,-1.8267,-1.7879,-1.7237,-1.6934,-1.6821,0.0,0.0,0.0,0.0,-1.58,-1.5876,0.0,0.0,0.0,0.0,0.0,0.0,0.0,0.0,0.0,0.0,0.0,0.0,-1.401,-1.3652,-1.3591,-1.4068,-1.3648,-1.3477,-1.3913,-1.4178,-1.4449,-1.4852,-1.4406,-1.4068,-1.398,-1.3677,-1.3663,-1.4068,-1.3578,-1.366,-1.4318,-1.4318,-1.4383,-1.4497,-1.4278,-1.3254,-1.1695,-1.1654,-1.1118,-1.0298,0.0,0.0,0.0,0.0,0.0,0.0,0.0,0.0,0.0,0.0,0.0,0.0,0.0,0.0,0.0,0.0,0.0,0.0,0.0,0.0,0.0,0.0,0.0,0.0,0.0,0.0,0.0,0.0,0.0,0.0,0.0,0.0,0.0,0.0,0.0,0.0,0.0,-1.1996,-1.2515,-1.31,-1.3173,-1.3059,0.0,0.0,0.0,0.0,0.0,0.0,-1.3904,-1.392,-1.4302,-1.5147,-1.522,-1.5455,-1.5902,-1.645,-1.6966,-1.7284,-1.7783,-1.843,-1.9061,-1.9061,-1.9146,-1.9297,-1.9354,-1.9373,-1.9288,-1.8135,-1.7757,-1.787,-1.7549,-1.7142,-1.6764,-1.6972,-1.7038,-1.7105,0.0,0.0,0.0,0.0,0.0,0.0,0.0,0.0,0.0,0.0,0.0,-1.3982,-1.5206,-1.4056,-1.3728,-1.4885,-1.4082,-1.3391,-1.3151,-1.4027,-1.4512,-1.4376,-1.5467,-1.5622,-1.4544,-1.4164,-1.3625,-1.321,-1.4107,-1.4635,-1.4684,-1.4684,-1.4684,-1.4676,-1.4335,-1.3742,-1.2986,-1.2824,-1.2239,-1.1362,-1.0688,0.0,0.0,0.0,0.0,0.0,0.0,0.0,0.0,0.0,0.0,0.0,0.0,0.0,0.0,0.0,0.0,0.0,0.0,0.0,0.0,0.0,0.0,0.0,0.0,0.0,0.0,0.0,0.0,0.0,0.0,0.0,0.0,0.0,0.0,0.0,0.0,0.0,0.0,-1.3336,-1.4237,0.0,0.0,0.0,0.0,-1.3847,-1.3855,-1.4099,-1.4627,-1.4651,-1.4984,-1.5707,-1.5902,-1.6081,-1.6276,-1.7289,-1.7891,-1.7891,-1.8744,-1.9259,-1.9278,-1.9278,-1.9288,-1.9306,-1.9495,-1.9581,-1.9562,-1.9297,-1.9193,-1.9146,-1.8532,-1.8267,-1.8267,-1.8484,-1.8569,-1.8711,0.0,0.0,0.0,-1.2305,-1.2545,-1.2889,-1.3013,-1.3387,-1.3707,-1.3908,-1.3696,-1.3755,-1.4313,-1.3404,-1.3038,-1.3774,-1.3314,-1.3048,-1.3346,-1.4189,-1.4842,-1.5021,-1.4812,-1.4212,-1.3348,-1.3532,-1.3771,-1.4131,-1.4521,-1.4822,-1.5049,-1.5049,-1.5114,-1.522,-1.4968,-1.4716,-1.444,-1.392,-1.3181,-1.2361,-1.2337,-1.1589,0.0,0.0,0.0,0.0,0.0,0.0,0.0,0.0,0.0,0.0,0.0,0.0,0.0,0.0,0.0,0.0,0.0,0.0,0.0,0.0,0.0,0.0,0.0,0.0,0.0,0.0,0.0,0.0,0.0,0.0,0.0,0.0,0.0,0.0,0.0,0.0,0.0,-1.3839,-1.4432,0.0,-1.4278,-1.457,-1.4724,-1.4594,-1.5017,-1.5415,-1.5715,-1.5731,-1.5902,-1.6284,-1.6357,-1.6479,-1.6657,-1.7571,-1.8181,-1.8312,-1.9177,-1.977,-1.9892,-1.9892,-1.9968,-2.01,-2.0176,-2.0204,-2.0195,-2.0129,-1.994,-1.9675,-1.9448,-1.9363,-1.9382,-1.959,-1.9666,-1.976,0.0,0.0,0.0,-1.2438,-1.2705,-1.2999,-1.3307,-1.3601,-1.3794,-1.3922,-1.359,-1.3599,-1.4016,-1.3189,-1.2844,-1.3478,-1.3046,-1.2681,-1.2856,-1.4173,-1.4717,-1.4382,-1.3821,-1.3527,-1.3635,-1.37,-1.405,-1.4887,-1.4952,-1.5098,-1.5333,-1.5333,-1.5398,-1.5512,-1.539,-1.5333,-1.5301,-1.483,-1.418,-1.3465,-1.3401,-1.2515,-1.1208,0.0,0.0,0.0,0.0,0.0,0.0,0.0,0.0,0.0,0.0,0.0,0.0,0.0,0.0,0.0,0.0,0.0,0.0,0.0,0.0,0.0,0.0,0.0,0.0,0.0,0.0,0.0,0.0,0.0,0.0,0.0,0.0,0.0,0.0,-1.3425,-1.4002,-1.4237,-1.4789,-1.5065,-1.4822,-1.5171,-1.5415,-1.5415,-1.5918,-1.6276,-1.6389,-1.6454,-1.6544,-1.6665,-1.6787,-1.6909,-1.7031,-1.7955,-1.8576,-1.8708,-1.9664,-2.0299,-2.0431,-2.0507,-2.062,-2.0762,-2.0828,-2.0856,-2.0856,-2.0932,-2.08,-2.0526,-2.0242,-2.0129,-2.0148,-2.028,-2.0327,-2.0384,0.0,0.0,-1.2398,-1.2768,-1.2999,-1.3307,-1.3601,-1.3895,-1.3957,-1.3576,-1.3301,-1.3536,-1.4333,-1.3364,-1.3079,-1.4354,-1.3387,-1.2467,-1.1708,-1.3817,-1.428,-1.2228,-1.2971,-1.4143,-1.5584,-1.4703,-1.457,-1.5268,-1.5455,-1.5545,-1.5545,-1.5545,-1.5536,-1.5536,-1.5536,-1.5536,-1.5536,-1.5528,-1.522,-1.4667,-1.3782,-1.2994,-1.228,0.0,0.0,0.0,0.0,0.0,0.0,0.0,0.0,0.0,0.0,0.0,0.0,0.0,0.0,0.0,0.0,0.0,0.0,0.0,0.0,0.0,0.0,0.0,0.0,0.0,0.0,0.0,0.0,0.0,0.0,0.0,0.0,0.0,-1.3595,-1.4432,-1.4846,-1.4521,-1.5415,-1.5918,-1.5577,-1.6008,-1.6316,-1.6316,-1.6487,-1.6592,-1.6609,-1.6771,-1.6877,-1.6885,-1.7226,-1.7413,-1.7421,-1.8664,-1.913,-1.9138,-2.0235,-2.0885,-2.0894,-2.1111,-2.1206,-2.1206,-2.1404,-2.148,-2.1499,-2.1707,-2.1792,-2.1716,-2.0894,-2.0582,-2.0582,-2.0582,-2.0582,-2.0648,-1.2305,-1.2305,-1.2398,-1.2768,-1.2999,-1.3307,-1.3601,-1.3895,-1.3957,-1.3576,-1.3301,-1.3275,-1.3298,-1.2837,-1.2742,-1.3265,-1.3054,-1.3202,-1.3681,-1.4908,-1.5512,-1.5003,-1.5329,-1.5274,-1.5102,-1.5261,-1.5553,-1.6008,-1.6064,-1.6089,-1.6089,-1.6089,-1.6016,-1.5902,-1.5902,-1.5902,-1.5894,-1.5756,-1.5618,-1.5439,-1.4927,-1.4221,-1.3425,0.0,0.0,0.0,0.0,0.0,0.0,0.0,0.0,0.0,0.0,0.0,0.0,0.0,0.0,0.0,0.0,0.0,0.0,0.0,0.0,0.0,0.0,0.0,0.0,0.0,0.0,0.0,0.0,0.0,0.0,0.0,-1.4196,-1.457,-1.4773,-1.4895,-1.5122,-1.5553,-1.5975,-1.6194,-1.6097,-1.6341,-1.656,-1.669,-1.6747,-1.6893,-1.7153,-1.721,-1.7356,-1.7616,-1.8085,-1.8442,-1.871,-1.9701,-2.0431,-2.0711,-2.1336,-2.183,-2.1981,-2.2047,-2.199,-2.1839,-2.1896,-2.1839,-2.1707,-2.1763,-2.1792,-2.1773,-2.1537,-2.1452,-2.1452,-2.1452,-2.1537,-2.1678,-1.2305,-1.2305,-1.2438,-1.2866,-1.3093,-1.3347,-1.3761,-1.3975,-1.395,-1.3408,-1.3328,-1.3427,-1.3639,-1.3003,-1.2979,-1.3604,-1.3638,-1.3882,-1.4248,-1.4886,-1.5724,-1.6412,-1.6004,-1.5684,-1.5512,-1.5837,-1.6137,-1.6422,-1.6422,-1.6454,-1.6535,-1.6535,-1.6479,-1.6381,-1.6308,-1.6227,-1.6146,-1.5959,-1.5886,-1.5861,-1.5577,-1.4927,-1.4107,-1.3928,-1.3465,-1.2873,-1.2621,-1.2532,-1.245,-1.1955,0.0,0.0,0.0,0.0,0.0,0.0,0.0,0.0,0.0,0.0,0.0,0.0,0.0,0.0,0.0,0.0,0.0,0.0,0.0,0.0,0.0,0.0,0.0,0.0,-1.4935,-1.5488,-1.5861,-1.5691,-1.5683,-1.6105,-1.6308,-1.6446,-1.6527,-1.6698,-1.6877,-1.7063,-1.7218,-1.7388,-1.7599,-1.7754,-1.7924,-1.8135,-1.8769,-1.9099,-1.9319,-2.0268,-2.0955,-2.1192,-2.1854,-2.2198,-2.2406,-2.2501,-2.2519,-2.2472,-2.2387,-2.233,-2.2302,-2.2217,-2.2227,-2.2274,0.0,0.0,0.0,0.0,-2.1915,-2.2094,-1.2305,-1.2331,-1.2532,-1.3106,-1.324,-1.3454,-1.4001,-1.4082,-1.3912,-1.3278,-1.3357,-1.3758,-1.4556,-1.35,-1.3358,-1.481,-1.4622,-1.4487,-1.427,-1.46,-1.5357,-1.6867,-1.5829,-1.5512,-1.6349,-1.6365,-1.6446,-1.6609,-1.6633,-1.6706,-1.6828,-1.6844,-1.6844,-1.6812,-1.6657,-1.6487,-1.6324,-1.6146,-1.6073,-1.6056,-1.5878,-1.5309,-1.4562,-1.4391,-1.4034,-1.3571,-1.3254,-1.3141,-1.31,-1.2856,0.0,0.0,0.0,0.0,0.0,0.0,0.0,0.0,0.0,0.0,0.0,0.0,0.0,0.0,0.0,0.0,0.0,0.0,0.0,0.0,0.0,0.0,0.0,0.0,-1.5317,-1.5951,-1.6771,-1.66,-1.6389,-1.6365,-1.6527,-1.6714,-1.6893,-1.7088,-1.7274,-1.7461,-1.7786,-1.7989,-1.8005,-1.8314,0.0,0.0,0.0,-1.9539,-1.9774,-2.0534,-2.1129,-2.1183,-2.1948,-2.234,-2.2538,-2.2727,-2.2907,-2.3039,-2.286,-2.2869,-2.3001,-2.2822,-2.285,-2.2935,-2.2217,-2.1934,-2.1934,-2.1934,-2.2038,-2.2189,-1.2345,-1.2492,-1.2772,-1.3146,-1.34,-1.3681,-1.4028,-1.4082,-1.3912,-1.3278,-1.3357,-1.3758,-1.4556,-1.35,-1.3418,-1.5006,-1.4828,-1.5135,-1.6275,-1.6269,-1.6398,-1.6922,-1.6292,-1.6267,-1.6738,-1.6747,-1.6763,-1.6803,-1.6942,-1.6877,-1.6633,-1.6787,-1.6771,-1.6633,-1.66,-1.656,-1.6511,-1.6332,-1.6251,-1.6235,-1.6064,-1.5804,-1.5496,-1.5325,-1.5195,-1.509,-1.5025,-1.5,-1.4903,-1.4278,-1.3953,-1.3717,-1.3124,-1.2751,0.0,0.0,0.0,0.0,0.0,0.0,0.0,0.0,0.0,0.0,0.0,0.0,0.0,0.0,0.0,0.0,0.0,0.0,0.0,-1.5731,-1.6243,-1.6706,-1.7015,-1.6998,-1.6901,-1.6763,-1.6901,-1.708,-1.7266,-1.7575,-1.7835,-1.8005,-1.8225,-1.8412,-1.8558,-1.8631,-1.8736,-1.8874,-1.9489,-2.0047,-2.0751,-2.1344,-2.2103,-2.2828,-2.3077,0.0,-2.3398,-2.3436,-2.3389,-2.3266,-2.3228,-2.3134,-2.3011,-2.2973,-2.2973,-2.3001,-2.2841,-2.2775,-2.2775,-2.2775,-2.2803,-2.2812,-1.2786,-1.2746,-1.297,-1.3347,-1.3547,-1.3748,-1.4041,-1.4082,-1.3951,-1.359,-1.3674,-1.4212,-1.5173,-1.4198,-1.4175,-1.5876,-1.5706,-1.5884,-1.7109,-1.6788,-1.6644,-1.6561,-1.6477,-1.6609,-1.6974,-1.6982,-1.6942,-1.6852,-1.7023,-1.7023,-1.6852,-1.7031,-1.7071,-1.6982,-1.6885,-1.6747,-1.656,-1.6292,-1.6178,-1.6162,-1.6081,-1.604,-1.6016,-1.5845,-1.5837,-1.591,-1.591,-1.5853,-1.5723,-1.5358,-1.5065,-1.4781,-1.4424,-1.3993,-1.3514,0.0,0.0,0.0,0.0,0.0,0.0,0.0,0.0,0.0,0.0,0.0,0.0,0.0,0.0,-1.4594,-1.4684,0.0,-1.6097,-1.6284,-1.6836,-1.7274,-1.7364,-1.7372,-1.7274,-1.7015,-1.7299,-1.7583,-1.7762,-1.8022,-1.8257,-1.8436,-1.8615,-1.8801,-1.898,-1.9069,-1.9199,-1.9378,-2.0173,-2.0864,-2.1256,-2.2059,-2.2763,-2.3172,-2.3172,-2.3285,-2.3483,-2.3483,-2.3483,-2.3483,-2.3379,-2.3332,-2.3323,-2.3323,-2.3323,-2.3323,-2.3323,-2.32,-2.3011,-2.3011,-2.3077,-2.3143,-1.3293,-1.3093,-1.3066,-1.3561,-1.3694,-1.3814,-1.4055,-1.4082,-1.406,-1.3862,-1.4021,-1.4671,-1.5922,-1.5032,-1.4923,-1.663,-1.6295,-1.6357,-1.7172,-1.6604,-1.6259,-1.6154,-1.6414,-1.6698,-1.7055,-1.7096,-1.7006,-1.6803,-1.6974,-1.7039,-1.7015,-1.7201,-1.7299,-1.7323,-1.7145,-1.6885,-1.656,-1.6194,-1.6024,-1.5991,-1.5991,-1.6081,-1.6194,-1.6121,-1.6202,-1.6357,-1.6357,-1.6178,-1.5959,-1.6064,-1.5788,-1.5431,-1.5536,-1.5041,-1.4294,-1.362,-1.2946,0.0,0.0,0.0,0.0,0.0,0.0,0.0,0.0,-1.4562,-1.457,-1.4846,-1.5074,-1.5268,-1.5415,-1.6056,-1.6633,-1.6852,-1.7339,-1.7705,-1.7737,-1.7778,-1.7681,-1.7356,-1.7705,-1.8054,-1.8265,-1.8444,-1.8631,-1.8818,-1.8988,-1.9167,-1.9354,-1.9492,-1.963,-1.9987,-2.0798,-2.1423,-2.1661,-2.2471,-2.2894,-2.3134,-2.3134,-2.3219,-2.3389,-2.3389,-2.3483,-2.3625,-2.3464,-2.3483,-2.3635,-2.3587,-2.3578,-2.3568,-2.3531,-2.3304,-2.302,-2.3105,-2.3247,-2.3361,-1.3601,-1.3574,-1.3561,-1.3546,-1.3868,-1.4055,-1.4082,-1.4082,-1.406,-1.3862,-1.4021,-1.4671,-1.5922,-1.5032,-1.4859,-1.6369,-1.5656,-1.5654,-1.6747,-1.5713,-1.536,-1.5804,-1.6154,-1.6503,-1.6877,-1.7031,-1.695,-1.6609,-1.6795,-1.6795,-1.6641,-1.6828,-1.6998,-1.7136,-1.6958,-1.6771,-1.656,-1.6194,-1.5951,-1.5804,-1.5804,-1.5813,-1.5861,-1.6162,-1.6389,-1.6552,-1.6552,-1.6129,-1.565,-1.6113,-1.5715,-1.5114,-1.5593,-1.5139,-1.4326,-1.3774,-1.3214,-1.2653,-1.2093,-1.2596,-1.3311,-1.3433,-1.3847,-1.4424,0.0,-1.5496,-1.578,-1.6446,-1.6852,-1.7096,-1.7112,-1.7323,-1.7599,-1.794,-1.7932,-1.794,-1.8095,-1.8257,-1.8282,-1.8079,-1.8111,-1.8282,-1.8631,-1.8818,-1.8996,-1.9183,-1.9354,-1.9532,-1.9719,-1.9752,-1.9971,-2.0393,-2.0596,-2.1281,-2.2274,-2.2487,-2.2979,-2.3568,-2.3568,-2.3578,-2.3606,-2.3606,-2.3616,-2.3635,-2.3606,-2.3616,-2.3616,-2.3446,-2.337,-2.3351,-2.3153,-2.3058,-2.3058,-2.3427,-2.3578,-2.3568,-1.3908,-1.3908,-1.3908,-1.3908,-1.4001,-1.4082,-1.4082,-1.4082,-1.4084,-1.4027,-1.4242,-1.4646,-1.5375,-1.5466,-1.5842,-1.6813,-1.5959,-1.5694,-1.6643,-1.5567,-1.5212,-1.5748,-1.6016,-1.6373,-1.6844,-1.6925,-1.6885,-1.6738,-1.6917,-1.6909,-1.6738,-1.6917,-1.699,-1.6958,-1.6885,-1.6755,-1.656,-1.6308,-1.6154,-1.6081,-1.6081,-1.6081,-1.6113,-1.6365,-1.6576,-1.6682,-1.6259,-1.5918,0.0,-1.604,-1.5764,-1.5415,-1.617,-1.5788,-1.4935,-1.4294,-1.3652,-1.3214,-1.3506,-1.3563,-1.3855,-1.5212,-1.5382,-1.5431,-1.6259,-1.6495,-1.6665,-1.708,-1.7364,-1.7567,-1.7672,-1.7835,-1.8038,-1.8298,-1.8363,-1.8412,-1.8485,-1.8566,-1.8623,-1.8639,-1.8736,-1.8866,-1.9021,-1.9191,-1.937,-1.9557,-1.9638,-1.9752,-1.993,-1.9946,-2.02,-2.0505,-2.0711,-2.1371,-2.2275,-2.2482,-2.2931,-2.3635,-2.3635,-2.3635,-2.3635,-2.3635,-2.3635,-2.3625,-2.3512,-2.3464,-2.3455,-2.337,-2.3257,-2.3143,-2.3049,-2.3011,-2.303,-2.3209,-2.3275,-2.346,-1.4082,-1.4082,-1.4082,-1.4082,-1.4082,-1.4055,-1.3975,-1.4041,-1.4055,-1.3975,-1.4282,-1.4669,-1.5044,-1.5792,-1.6446,-1.6874,-1.6249,-1.5979,-1.6426,-1.5542,-1.5209,-1.5593,-1.5845,-1.6178,-1.6625,-1.6779,-1.6828,-1.6779,-1.6958,-1.695,-1.6779,-1.6909,-1.6901,-1.6779,-1.6722,-1.66,-1.6422,-1.6235,-1.6154,-1.6162,-1.6211,-1.6259,-1.6332,-1.6568,-1.6617,-1.6487,-1.5959,-1.5675,-1.5561,-1.565,-1.5374,-1.5139,-1.5934,-1.5601,-1.4822,-1.4294,-1.3669,-1.336,-1.4302,-1.4326,-1.4538,-1.6414,-1.6584,-1.6446,-1.7047,-1.7226,-1.7299,-1.7429,-1.7632,-1.7827,-1.7965,-1.8176,-1.8387,-1.8566,-1.8753,-1.8874,-1.8874,-1.8915,-1.8988,-1.911,-1.9248,-1.937,-1.9475,-1.9549,-1.9662,-1.9849,-1.9865,-1.9938,-2.0117,-2.0133,-2.019,-2.052,-2.1154,-2.1751,-2.2113,-2.2724,-2.3109,-2.3464,-2.3464,-2.3464,-2.3464,-2.3464,-2.3464,-2.3455,-2.337,-2.3332,-2.3332,-2.3332,-2.3247,-2.3086,-2.2973,-2.2926,-2.2926,-2.286,-2.2916,-2.3212,-1.4082,-1.4082,-1.4082,-1.4082,-1.4082,-1.3988,-1.3625,-1.3908,-1.3988,-1.3694,-1.4162,-1.4736,-1.5324,-1.5912,-1.6286,-1.6299,-1.6254,-1.6098,-1.5813,-1.5557,-1.5298,-1.5212,-1.5593,-1.5869,-1.6064,-1.6584,-1.6771,-1.6592,-1.6771,-1.6771,-1.6592,-1.6592,-1.6592,-1.6584,-1.6397,-1.6227,-1.6048,-1.5869,-1.5788,-1.5804,-1.5983,-1.6154,-1.6341,-1.6706,-1.6414,-1.5804,-1.578,-1.5439,-1.4968,-1.4806,-1.4286,-1.3798,-1.4335,-1.401,-1.3433,-1.3409,-1.3019,-1.2824,-1.3904,-1.4684,-1.5374,-1.6137,-1.6958,-1.7551,-1.7413,-1.7502,-1.7624,-1.7632,-1.7916,-1.816,-1.8168,-1.846,-1.8769,-1.8939,-1.9126,-1.924,-1.924,-1.9386,-1.9492,-1.9492,-1.95,-1.9646,-2.0003,-1.9882,-1.9857,-2.0044,-2.006,-2.0133,-2.0304,-2.0312,-2.052,-2.1154,-2.1778,-2.2096,-2.2533,-2.2933,-2.3238,-2.303,-2.303,-2.303,-2.303,-2.303,-2.303,-2.3039,-2.3247,-2.3332,-2.3332,-2.3332,-2.3332,-2.3285,-2.2879,-2.2727,-2.2699,-2.2491,-2.2661,-2.3011,-1.4082,-1.4082,-1.4082,-1.4082,-1.4082,-1.3921,-1.3427,-1.3601,-1.3828,-1.3921,-1.4282,0.0,0.0,0.0,0.0,0.0,-1.5885,-1.5881,-1.6228,-1.5455,-1.5235,-1.5852,-1.5504,-1.5601,-1.6381,-1.6454,-1.6633,-1.6933,-1.6877,-1.682,-1.6755,-1.6633,-1.6511,-1.6389,-1.6332,-1.6267,-1.6211,-1.6154,-1.6194,-1.6316,-1.6373,-1.6154,-1.5796,-1.5918,-1.5593,-1.5009,0.0,-1.4318,-1.427,-1.4335,-1.4115,-1.3953,-1.4724,-1.4391,-1.375,-1.3872,-1.3693,-1.3766,-1.5195,-1.5853,-1.63,-1.7015,-1.7591,-1.7981,-1.7924,-1.7957,-1.803,-1.8152,-1.8273,-1.8395,-1.8517,-1.8736,-1.8956,-1.9134,-1.9313,-1.9467,-1.9597,-1.9662,-1.9735,-1.9857,-1.9873,-1.9971,-2.0214,-2.0068,-2.0036,-2.0223,-2.0239,-2.0255,-2.032,-2.0737,-2.0945,-2.1154,-2.1656,-2.1971,-2.2515,-2.2581,-2.2682,-2.3011,-2.3011,-2.3011,-2.3011,-2.2879,-2.2964,-2.3219,-2.3153,-2.32,-2.3332,-2.3332,-2.3247,-2.3105,-2.2964,-2.2916,-2.2888,-2.268,-2.269,-2.2993,-1.4082,-1.4082,-1.4082,-1.4082,-1.4082,0.0,0.0,0.0,0.0,0.0,0.0,0.0,0.0,0.0,0.0,0.0,0.0,-1.5825,-1.6156,-1.5613,-1.5672,-1.6196,-1.5496,-1.5345,-1.614,-1.5753,-1.5804,-1.6154,-1.6365,-1.647,-1.647,-1.6479,-1.6422,-1.63,-1.6235,-1.6211,-1.6219,-1.6276,-1.63,-1.6292,-1.6292,-1.5902,-1.5317,-1.5317,-1.4862,0.0,-1.3782,-1.3506,-1.3368,-1.362,-1.362,-1.3669,-1.4497,-1.4367,-1.3985,-1.4432,-1.4245,-1.427,-1.5943,-1.6487,-1.6771,-1.7543,-1.7957,-1.816,-1.8095,-1.8184,-1.8306,-1.8428,-1.8558,-1.868,-1.8793,-1.8964,-1.9142,-1.9321,-1.95,-1.9678,-1.9865,-1.9938,-2.0044,-2.0223,-2.019,-2.0223,-2.0401,-2.0255,-2.019,-2.0312,-2.032,-2.032,-2.032,-2.0945,-2.112,-2.1061,-2.156,-2.2043,-2.2305,-2.237,-2.2469,-2.2794,-2.2794,-2.2794,-2.2784,-2.2652,-2.2746,-2.2992,-2.2935,-2.2983,-2.3115,-2.319,-2.3143,-2.3011,-2.3011,-2.3011,-2.3001,-2.2869,-2.3163,-2.4047,-1.4082,-1.4082,-1.4082,0.0,0.0,0.0,0.0,0.0,0.0,0.0,0.0,0.0,0.0,0.0,0.0,0.0,0.0,0.0,-1.567,-1.6133,-1.6402,-1.6337,-1.551,-1.532,-1.557,-1.4847,-1.4408,-1.4432,-1.5277,-1.5699,-1.5715,-1.604,-1.6202,-1.6202,-1.6032,-1.5967,-1.5975,-1.6137,-1.6016,-1.5707,-1.5707,-1.5374,-1.4887,-1.4887,-1.4229,-1.3336,-1.3514,-1.3027,-1.2361,-1.2702,-1.2856,-1.3019,-1.3734,-1.3953,-1.4131,-1.5033,-1.4692,-1.4408,-1.6162,-1.6641,-1.6852,-1.7713,-1.8062,-1.8152,-1.7997,-1.8192,-1.8412,-1.842,-1.8663,-1.8874,-1.8883,-1.9061,-1.9264,-1.9443,-1.9654,-1.9857,-2.0052,-2.0231,-2.0401,-2.0572,-2.0442,-2.0401,-2.058,-2.0426,-2.032,-2.032,-2.032,-2.032,-2.032,-2.0945,-2.1069,-2.0883,-2.1892,-2.2314,-2.1922,-2.25,-2.2595,-2.2387,-2.2387,-2.2387,-2.2387,-2.2387,-2.2397,-2.2416,-2.2623,-2.2718,-2.2746,-2.2935,-2.3011,-2.3011,-2.3011,-2.3011,-2.3011,-2.3203,-2.4247,-2.5798,0.0,0.0,0.0,0.0,0.0,0.0,0.0,0.0,0.0,0.0,0.0,0.0,0.0,0.0,0.0,0.0,0.0,0.0,-1.6072,-1.587,-1.6009,-1.6605,-1.5878,-1.5974,-1.7027,-1.5802,-1.5319,-1.5753,-1.4976,-1.4651,-1.4773,-1.4741,-1.4789,-1.4903,-1.4862,-1.4846,-1.4846,-1.4887,-1.4854,-1.4773,-1.4773,-1.4375,-1.3774,-1.3774,-1.3279,-1.258,-1.2629,-1.2499,-1.2345,-1.2564,-1.3076,-1.3758,-1.4481,-1.47,-1.4871,-1.5772,-1.5869,-1.5934,-1.7063,-1.7469,-1.7664,-1.8022,-1.8249,-1.8403,-1.8501,-1.8168,-1.7884,-1.8022,-1.7705,-1.7437,-1.7567,-1.8062,-1.8558,-1.8874,-1.941,-1.9898,-2.0214,-2.0409,-2.0539,-2.0588,-2.0556,-2.0547,-2.0596,-2.0426,-2.032,-2.032,-2.032,-2.032,-2.032,-2.1154,-2.1691,-2.1499,-2.2369,-2.2772,-2.2519,-2.2548,-2.2444,-2.2387,-2.2387,-2.2387,-2.2387,-2.2387,-2.2482,-2.2633,-2.269,-2.2794,-2.2935,-2.2992,-2.3011,-2.3011,-2.3011,-2.3011,-2.3193,-2.4615,-2.5293,-2.619,0.0,0.0,0.0,0.0,0.0,0.0,0.0,0.0,0.0,0.0,0.0,0.0,0.0,0.0,0.0,0.0,0.0,0.0,0.0,-1.5846,-1.6088,-1.671,-1.6,-1.6003,-1.6921,-1.5741,-1.5138,-1.5137,-1.4613,-1.4314,-1.4083,-1.4066,-1.4148,-1.4318,-1.4237,-1.4196,-1.4205,-1.4286,-1.418,0.0,0.0,-1.3539,-1.2897,-1.2816,-1.2491,-1.2077,-1.2077,-1.2174,-1.2418,-1.3141,-1.3823,-1.4521,-1.5407,-1.5569,-1.5634,-1.66,-1.6609,-1.6519,-1.7494,-1.7835,-1.7957,-1.8135,-1.8257,-1.8298,-1.8168,-1.7875,-1.7607,-1.7478,-1.7193,-1.7088,-1.7502,-1.7908,-1.8395,-1.9077,-1.9524,-1.9914,-2.0271,-2.0483,-2.0596,-2.0596,-2.0596,-2.0596,-2.0596,-2.0426,-2.032,-2.032,-2.032,-2.032,-2.032,-2.1285,-2.1766,-2.1572,-2.2388,-2.2784,-2.2576,-2.2453,-2.2387,-2.2387,-2.2387,-2.2387,-2.2387,-2.2387,-2.2453,-2.2576,-2.2576,-2.2633,-2.2737,-2.2737,-2.2737,-2.2746,-2.2841,-2.2879,-2.3079,-2.4227,-2.5719,-2.7559,0.0,0.0,0.0,0.0,0.0,0.0,0.0,0.0,0.0,-1.3788,-1.3988,-1.4349,0.0,0.0,0.0,0.0,0.0,0.0,0.0,0.0,-1.6339,-1.6633,-1.6097,-1.598,-1.6308,-1.5412,-1.4717,-1.4207,-1.4518,-1.4304,-1.3497,-1.3783,-1.3817,-1.3855,-1.3693,-1.362,-1.3628,-1.379,-1.3587,-1.3157,-1.3157,-1.2791,-1.2223,0.0,-1.1906,-1.1776,-1.1776,-1.1987,-1.2499,-1.3969,-1.4708,-1.5195,-1.63,-1.6454,-1.6397,-1.7307,-1.7055,-1.6682,-1.7624,-1.7916,-1.7989,-1.8135,-1.8176,-1.803,-1.7478,-1.7413,-1.7307,-1.6755,-1.6698,-1.699,-1.7754,-1.7875,-1.8225,-1.9362,-1.9524,-1.9654,-2.0085,-2.0304,-2.0442,-2.0515,-2.0547,-2.0564,-2.0564,-2.0409,-2.032,-2.032,-2.0296,-2.0288,-2.0288,-2.1174,-2.1599,-2.1572,-2.2376,-2.2576,-2.2397,-2.2387,-2.2387,-2.2387,-2.2387,-2.2387,-2.2387,-2.2387,-2.2387,-2.2387,-2.2387,-2.2387,-2.2387,-2.2387,-2.2387,-2.2406,-2.2595,-2.2671,-2.2699,-2.3288,-2.5794,-2.8898,0.0,0.0,0.0,0.0,0.0,0.0,0.0,0.0,0.0,0.0,-1.4416,-1.4576,0.0,0.0,0.0,0.0,0.0,0.0,0.0,0.0,0.0,-1.6339,-1.6249,-1.6557,-1.7318,-1.6138,-1.5783,-1.6069,-1.5149,-1.4212,-1.3305,-1.3341,-1.2987,-1.219,-1.2158,-1.2142,-1.215,-1.2182,-1.2142,-1.2052,-1.2052,-1.1979,-1.1866,-1.1833,-1.1801,0.0,-1.1776,-1.1906,-1.2345,-1.4075,-1.4895,-1.5407,-1.6633,-1.708,-1.7161,-1.7193,-1.7299,-1.7453,-1.764,-1.7908,-1.8135,-1.8168,-1.8176,-1.7997,-1.7315,-1.6836,-1.6341,-1.5658,-1.5187,-1.5204,-1.6227,-1.6292,-1.6641,-1.8022,-1.8111,-1.829,-1.9102,-1.937,-1.9654,-2.0101,-2.0279,-2.0369,-2.0369,-2.0336,-2.032,-2.032,-2.019,-2.0109,-2.0109,-2.1106,-2.1944,-2.2376,-2.2557,-2.2425,-2.2387,-2.2387,-2.2387,-2.2387,-2.2387,-2.2387,-2.2387,-2.2387,-2.2387,-2.2387,-2.2387,-2.2387,-2.2387,-2.2387,-2.2387,-2.2397,-2.2434,-2.2444,-2.2669,-2.4639,-2.6711,-2.8849,0.0,0.0,0.0,0.0,0.0,0.0,0.0,-1.4429,-1.4576,-1.4736,-1.4883,-1.503,-1.5177,-1.5311,-1.5511,0.0,0.0,0.0,0.0,0.0,0.0,-1.6032,-1.6192,-1.6473,-1.6887,-1.6678,-1.6455,-1.6342,0.0,-1.4961,-1.4043,-1.3355,-1.2901,-1.2416,-1.1719,-1.1492,-1.1492,-1.1492,-1.1492,-1.15,-1.1589,-1.163,-1.1646,-1.1744,-1.1776,0.0,-1.1776,-1.189,-1.2231,-1.3563,-1.4253,-1.4879,-1.6787,-1.7388,-1.7315,-1.6942,-1.7218,-1.7583,-1.7307,-1.7689,-1.8176,-1.8176,-1.8249,-1.803,-1.6942,-1.6568,-1.6137,-1.5041,-1.4611,-1.4708,-1.5601,-1.5772,-1.6154,-1.7307,-1.79,-1.8355,-1.8785,-1.9329,-1.9776,-2.0028,-2.0125,-2.0214,-2.0312,-2.0239,-2.0182,-2.0182,-2.0225,-2.0372,-2.006,-2.0901,-2.1667,-2.2557,-2.2444,-2.2387,-2.2387,-2.2387,-2.2387,-2.2387,-2.2387,-2.2387,-2.2387,-2.2387,-2.2387,-2.2387,-2.2387,-2.2387,-2.2387,-2.2387,-2.2387,-2.2387,-2.2387,-2.2463,-2.2764,-2.5001,-2.7112,-2.897,0.0,0.0,0.0,0.0,0.0,0.0,-1.4482,-1.4629,-1.479,-1.503,-1.5311,-1.5484,-1.5484,-1.5484,-1.5578,0.0,0.0,0.0,0.0,0.0,0.0,0.0,-1.6059,-1.6233,-1.6366,0.0,0.0,-1.6392,-1.6392,0.0,0.0,0.0,0.0,0.0,-1.1558,-1.111,-1.111,-1.111,-1.1135,0.0,0.0,-1.1435,-1.1524,0.0,0.0,0.0,0.0,-1.1866,-1.2117,-1.3059,-1.3579,-1.4229,-1.643,-1.7039,-1.6877,-1.66,-1.6974,-1.7421,-1.7201,-1.7705,-1.829,-1.829,-1.8403,-1.8127,-1.6641,-1.6414,-1.6105,-1.4627,-1.4318,-1.4562,-1.5366,-1.5496,-1.5804,-1.6779,-1.7559,-1.8135,-1.8403,-1.9077,-1.9662,-1.9955,-1.9987,-2.0076,-2.0296,-2.0198,-2.0101,-2.0052,-2.046,-2.0604,-2.0552,-2.0846,-2.1578,-2.2397,-2.2387,-2.2387,-2.2387,-2.2387,-2.2387,-2.2387,-2.2387,-2.2387,-2.2387,-2.2387,-2.2387,-2.2387,-2.2387,-2.2387,-2.2387,-2.2387,-2.2387,-2.2387,-2.2387,-2.2716,-2.3691,-2.549,-2.7628,-2.9916,0.0,0.0,0.0,0.0,0.0,0.0,-1.4522,-1.4977,-1.5324,-1.5351,-1.5605,-1.5792,-1.5792,-1.5792,-1.5805,0.0,0.0,0.0,0.0,0.0,0.0,0.0,0.0,0.0,0.0,0.0,0.0,-1.7411,-1.7411,0.0,0.0,0.0,0.0,0.0,0.0,-1.0745,-1.0745,-1.0745,0.0,0.0,0.0,0.0,0.0,0.0,0.0,0.0,0.0,-1.1784,-1.1963,-1.3019,-1.3506,-1.388,-1.5082,-1.5447,-1.5553,-1.6154,-1.6609,-1.7088,-1.7851,-1.8355,-1.8671,-1.8671,-1.8688,-1.8282,-1.6665,-1.6316,-1.5878,-1.4278,-1.3953,-1.427,-1.5325,-1.4992,-1.4952,-1.6178,-1.6056,-1.6211,-1.7348,-1.7713,-1.8347,-1.9654,-1.9817,-1.9946,-2.0288,-2.0304,-2.0231,-2.0076,-2.0149,-2.0759,-2.1768,-2.156,-2.1817,-2.2387,-2.2387,-2.2387,-2.2387,-2.2387,-2.2387,-2.2387,-2.2387,-2.2387,-2.2387,-2.2387,-2.2387,-2.2387,-2.2387,-2.2387,-2.2387,-2.2387,-2.2387,-2.2387,-2.2387,-2.368,-2.5655,-2.6078,-2.8564,-3.1885,0.0,0.0,0.0,0.0,0.0,0.0,-1.4763,-1.5137,-1.5458,-1.5631,-1.5752,-1.5832,-1.5832,-1.5832,-1.5832,-1.5832,0.0,0.0,0.0,0.0,0.0,0.0,0.0,0.0,0.0,0.0,-1.7088,-1.7328,-1.7502,0.0,0.0,0.0,0.0,0.0,0.0,-1.0688,-1.0688,-1.0688,0.0,0.0,0.0,0.0,0.0,0.0,0.0,0.0,0.0,0.0,-1.1857,-1.2385,-1.2686,-1.2929,-1.3457,-1.3701,-1.3953,-1.4781,-1.5813,-1.6698,-1.6722,-1.7624,-1.859,-1.8696,-1.8801,-1.8428,-1.6698,-1.6389,-1.5983,-1.4253,-1.3904,-1.4034,-1.4464,-1.4481,-1.4594,-1.5098,-1.5723,-1.6479,-1.7413,-1.816,-1.8988,-1.9987,-2.0109,-2.0036,-1.9849,-2.0036,-2.025,-2.0773,-2.0898,-2.1335,-2.2125,-2.1845,-2.1799,-2.2387,-2.2387,-2.2387,-2.2387,-2.2387,-2.2387,-2.2387,-2.2387,-2.2387,-2.2387,-2.2387,-2.2387,-2.2387,-2.2387,-2.2387,-2.2387,-2.2387,-2.2387,-2.2406,-2.2538,-2.4077,-2.6254,-2.773,-2.9861,-3.2498,0.0,0.0,0.0,0.0,0.0,-1.475,-1.5044,-1.5337,-1.5605,-1.5805,-1.5832,-1.5832,-1.5832,-1.5832,-1.5832,-1.5832,-1.5832,0.0,0.0,0.0,0.0,0.0,0.0,0.0,0.0,0.0,-1.7194,-1.7275,-1.7475,-1.7041,0.0,0.0,-1.3814,-1.2309,0.0,0.0,0.0,0.0,0.0,0.0,0.0,0.0,0.0,0.0,0.0,0.0,0.0,0.0,0.0,0.0,0.0,-1.2337,-1.2507,-1.2686,-1.3011,-1.3912,-1.5017,-1.5975,-1.6129,-1.7169,-1.8306,-1.8704,-1.8736,-1.8265,-1.6738,-1.6284,-1.5748,-1.4213,-1.3904,-1.3904,-1.3904,-1.4148,-1.4375,-1.4424,-1.5415,-1.6503,-1.7437,-1.8363,-1.9207,-1.9922,-2.0052,-1.993,-1.9549,-2.0053,-2.0552,-2.123,-2.1416,-2.1863,-2.2397,-2.1995,-2.1995,-2.2387,-2.2387,-2.2387,-2.2387,-2.2387,-2.2387,-2.2387,-2.2387,-2.2387,-2.2387,-2.2387,-2.2387,-2.2387,-2.2387,-2.2387,-2.2387,-2.2387,-2.2387,-2.2416,-2.2633,-2.4604,-2.7367,-2.8741,-3.1112,-3.363,0.0,0.0,0.0,0.0,0.0,0.0,-1.5351,-1.5631,-1.5832,-1.5832,-1.5832,-1.5832,-1.5832,-1.5832,-1.5832,-1.5832,-1.5832,0.0,0.0,0.0,0.0,0.0,0.0,0.0,0.0,0.0,-1.7288,-1.7582,-1.7582,-1.7041,-1.5861,-1.5861,-1.4674,-1.2417,0.0,0.0,0.0,0.0,0.0,0.0,0.0,0.0,-1.1265,0.0,0.0,0.0,0.0,0.0,0.0,0.0,0.0,0.0,0.0,-1.2686,-1.3011,-1.3912,-1.431,-1.4838,-1.6617,-1.7364,-1.7867,-1.8753,-1.8452,-1.7689,-1.6787,-1.5894,-1.4992,-1.4091,-1.3904,-1.3904,-1.3904,-1.4058,-1.4237,-1.4408,-1.4895,-1.5756,-1.7185,-1.7851,-1.8452,-1.9183,-1.9419,-1.9516,-1.9516,-2.0256,-2.1003,-2.1414,-2.1622,-2.202,-2.2397,-2.2387,-2.2387,-2.2387,-2.2387,-2.2387,-2.2387,-2.2387,-2.2387,-2.2387,-2.2387,-2.2387,-2.2387,-2.2387,-2.2387,-2.2387,-2.2387,-2.2387,-2.2387,-2.2387,-2.2387,-2.2416,-2.2633,-2.5387,-2.9529,-2.9332,-3.2089,-3.5602,0.0,0.0,0.0,0.0,0.0,0.0,-1.5351,-1.5645,-1.5832,-1.5832,-1.5832,-1.5832,-1.5832,-1.5832,-1.5832,-1.5832,-1.5832,0.0,0.0,0.0,0.0,0.0,0.0,0.0,0.0,-1.7341,-1.7488,-1.7582,-1.7582,-1.7041,-1.5861,-1.5861,-1.5102,-1.3599,-1.3599,-1.295,0.0,0.0,0.0,0.0,0.0,-1.1118,-1.1248,0.0,0.0,0.0,0.0,0.0,0.0,0.0,0.0,0.0,0.0,0.0,0.0,-1.3141,-1.3734,-1.4408,-1.509,-1.5902,-1.6649,-1.7055,-1.708,-1.6771,-1.5869,-1.5439,-1.4984,-1.4083,-1.3904,-1.3904,-1.3904,-1.4148,-1.4367,-1.4424,-1.4992,-1.5975,-1.7534,-1.8103,-1.8818,-2.0028,-1.9784,-1.9654,-2.0028,-2.0536,-2.0986,-2.1388,-2.2031,-2.2416,-2.2406,-2.2387,-2.2387,-2.2387,-2.2387,-2.2387,-2.2387,-2.2387,-2.2387,-2.2387,-2.2387,-2.2387,-2.2387,-2.2387,-2.2387,-2.2387,-2.2387,-2.2387,-2.2387,-2.2387,-2.2482,-2.2831,-2.4416,-2.7015,-2.9784,-3.098,-3.3283,-3.5573,0.0,0.0,0.0,0.0,0.0,0.0,-1.5498,-1.5712,-1.5832,-1.5832,-1.5832,-1.5832,-1.5832,-1.5832,-1.5872,-1.5992,-1.5992,0.0,0.0,0.0,0.0,0.0,0.0,0.0,-1.7315,-1.7488,-1.7582,-1.7582,-1.7582,-1.7265,-1.6499,-1.6499,-1.5861,-1.4781,-1.4781,-1.3922,0.0,0.0,0.0,0.0,-1.0891,-1.107,-1.124,0.0,0.0,0.0,0.0,0.0,0.0,0.0,0.0,0.0,0.0,0.0,0.0,0.0,-1.3181,-1.3766,-1.4213,-1.4879,-1.5561,-1.6073,-1.6089,-1.5845,-1.535,-1.4976,-1.4578,-1.4018,-1.3904,-1.3904,-1.3904,-1.414,-1.4464,-1.4871,-1.5204,-1.5999,-1.7681,-1.8054,-1.8606,-1.9841,-1.9703,-1.9646,-1.9979,-2.0604,-2.1099,-2.1397,-2.2095,-2.25,-2.2406,-2.2387,-2.2387,-2.2387,-2.2387,-2.2387,-2.2387,-2.2387,-2.2387,-2.2387,-2.2387,-2.2387,-2.2387,-2.2387,-2.2387,-2.2387,-2.2387,-2.2387,0.0,-2.2482,-2.2595,-2.2936,-2.5398,-2.7804,-3.0105,-3.1803,-3.3865,-3.5558,0.0,0.0,0.0,0.0,0.0,0.0,0.0,-1.5832,-1.5832,-1.5832,-1.5832,-1.5832,-1.5832,-1.5832,-1.5952,-1.6246,-1.6286,0.0,0.0,0.0,0.0,0.0,0.0,0.0,-1.7569,-1.7582,-1.7582,-1.7582,-1.7582,-1.7582,-1.7582,-1.7582,-1.7041,-1.6074,-1.6074,-1.4674,-1.2417,-1.1337,-1.0798,-1.0704,-1.0883,-1.1062,0.0,0.0,0.0,0.0,0.0,0.0,0.0,0.0,0.0,0.0,0.0,0.0,0.0,0.0,0.0,0.0,0.0,-1.4205,-1.4578,-1.5585,-1.535,-1.4919,-1.509,-1.4489,0.0,-1.3904,-1.3904,-1.3904,-1.392,-1.4123,-1.4603,-1.5545,-1.5504,-1.5934,-1.7591,-1.7786,-1.8079,-1.8939,-1.9354,-1.9573,-1.9589,-2.0652,-2.1208,-2.1449,-2.181,-2.2241,-2.2434,-2.2397,-2.2387,-2.2387,-2.2387,-2.2387,-2.2387,-2.2387,-2.2387,-2.2387,-2.2387,-2.2387,-2.2387,-2.2387,-2.2387,-2.2387,-2.2387,-2.2387,-2.2406,-2.2623,-2.2718,-2.3163,-2.5756,-2.8129,-3.0304,-3.2012,-3.3851,-3.5529,0.0,0.0,0.0,0.0,0.0,0.0,0.0,0.0,0.0,0.0,-1.5832,-1.5832,-1.5832,-1.5832,-1.5952,0.0,0.0,0.0,0.0,0.0,0.0,0.0,0.0,0.0,-1.7582,-1.7582,-1.7582,-1.7582,-1.7582,-1.7582,-1.7582,-1.7582,-1.7477,-1.7147,-1.7147,-1.5861,-1.3599,-1.2526,-1.1446,-1.0696,-1.0737,-1.0948,0.0,0.0,0.0,0.0,-1.1776,-1.1776,0.0,0.0,0.0,0.0,0.0,0.0,0.0,0.0,-1.2694,-1.2881,-1.3092,0.0,-1.3474,-1.3725,-1.3872,-1.3969,0.0,-1.3961,-1.3904,-1.3904,-1.3904,-1.3945,-1.4083,-1.4822,-1.5301,-1.5009,-1.5813,-1.6568,-1.6852,-1.8038,-1.9061,-1.954,-1.9914,-2.0182,-2.0328,-2.0954,-2.1268,-2.1651,-2.189,-2.2305,-2.2652,-2.2482,-2.2387,-2.2387,-2.2387,-2.2387,-2.2387,-2.2387,-2.2387,-2.2387,-2.2387,-2.2387,-2.2387,-2.2387,-2.2387,-2.2387,-2.2387,-2.2387,-2.2406,-2.2623,-2.3789,-2.5744,-2.8015,-3.0341,-3.2498,-3.4185,-3.5087,-3.5222,0.0,0.0,0.0,0.0,0.0,0.0,0.0,0.0,0.0,0.0,-1.5832,-1.5832,-1.5832,-1.5832,-1.6005,0.0,0.0,0.0,0.0,0.0,0.0,0.0,0.0,-1.7582,-1.7582,-1.7582,-1.7582,-1.7582,-1.7582,-1.7582,-1.7582,-1.7582,-1.7582,-1.7582,-1.7041,-1.5861,-1.403,-1.2842,-1.1773,-1.0688,-1.0688,0.0,0.0,0.0,0.0,0.0,-1.1776,-1.1776,0.0,-1.1776,-1.1776,-1.1792,0.0,0.0,0.0,0.0,-1.2572,-1.2726,-1.2816,-1.2905,-1.2994,-1.3076,-1.3311,-1.3539,-1.3628,-1.3774,-1.3904,-1.3904,-1.3969,-1.4058,-1.4156,-1.4846,-1.552,-1.5878,-1.6381,-1.6893,-1.7372,-1.8631,-1.9573,-1.9768,-2.0182,-2.045,-2.0466,-2.0586,-2.1077,-2.1713,-2.1803,-2.2223,-2.2727,-2.269,-2.2586,-2.2397,-2.2491,-2.2491,-2.2387,-2.2387,-2.2387,-2.2387,-2.2387,-2.2387,-2.2387,-2.2387,-2.2387,-2.2387,-2.2387,-2.2444,-2.2557,-2.2765,-2.4357,-2.677,-2.9013,-3.1238,-3.3103,-3.4975,-3.5441,-3.5105,0.0,0.0,0.0,0.0,0.0,0.0,0.0,0.0,0.0,0.0,0.0,0.0,0.0,0.0,0.0,0.0,0.0,0.0,0.0,0.0,0.0,0.0,-1.7582,-1.7582,-1.7582,-1.7582,-1.7609,-1.7649,-1.7649,-1.7675,-1.7716,-1.7675,-1.7649,-1.7649,-1.6505,-1.5302,-1.4083,-1.2891,-1.18,-1.0688,-1.0688,0.0,0.0,0.0,0.0,0.0,0.0,0.0,0.0,-1.1776,-1.1776,-1.1776,-1.1776,0.0,0.0,0.0,0.0,0.0,-1.2791,-1.284,-1.2905,-1.3189,-1.3311,-1.3449,-1.3742,-1.3855,-1.3912,-1.3937,-1.418,-1.4399,-1.4456,-1.5074,-1.5983,-1.7226,-1.7063,-1.7169,-1.8257,-1.9159,-1.9727,-1.9784,-2.0239,-2.0507,-2.0377,-2.0336,-2.0671,-2.1551,-2.1687,-2.1926,-2.2622,-2.2907,-2.2803,-2.2453,-2.2614,-2.2605,-2.2397,-2.2387,-2.2387,-2.2387,-2.2387,-2.2387,-2.2387,-2.2387,-2.2387,-2.2387,-2.2387,-2.251,-2.2727,-2.3327,-2.4931,-2.7348,-2.9569,-3.1714,-3.3429,-3.5097,-3.5368,-3.5061,0.0,0.0,0.0,0.0,0.0,0.0,0.0,0.0,0.0,0.0,0.0,0.0,0.0,0.0,0.0,0.0,0.0,0.0,0.0,0.0,0.0,-1.7582,-1.7582,-1.7582,-1.7582,-1.7582,-1.7716,-1.7969,-1.7969,-1.8103,-1.8343,-1.809,-1.7969,-1.7848,-1.6882,-1.5742,-1.4439,-1.3236,-1.1926,-1.0688,-1.0688,0.0,0.0,0.0,0.0,0.0,0.0,0.0,0.0,-1.1776,-1.1776,-1.1776,-1.1776,0.0,0.0,0.0,0.0,0.0,-1.2832,-1.284,-1.3027,-1.3815,-1.3693,-1.3579,-1.4367,-1.4213,-1.3945,-1.4107,-1.4765,-1.5407,-1.5707,-1.7185,-1.82,-1.7689,-1.7664,-1.7835,-1.8168,-1.8866,-1.9451,-1.9752,-2.0125,-2.0409,-2.0539,-2.0409,-2.0512,-2.1319,-2.1429,-2.1696,-2.2423,-2.2735,-2.2727,-2.2671,-2.2699,-2.2605,-2.2397,-2.2387,-2.2387,-2.2387,-2.2387,-2.2387,-2.2387,-2.2387,-2.2387,-2.2387,-2.2387,-2.251,-2.2926,-2.4906,-2.7115,-2.9543,-3.1586,-3.3612,-3.5275,-3.5353,-3.5031,-3.4841,0.0,0.0,0.0,0.0,0.0,0.0,0.0,0.0,0.0,0.0,0.0,0.0,0.0,0.0,0.0,0.0,0.0,0.0,0.0,0.0,-1.7582,-1.7582,-1.7582,-1.7582,-1.7582,-1.7582,-1.7729,-1.805,-1.805,-1.8196,-1.849,-1.8343,-1.8277,-1.8277,-1.7857,-1.6598,-1.4676,-1.4002,-1.2562,-1.0834,0.0,0.0,0.0,0.0,0.0,0.0,0.0,0.0,0.0,0.0,-1.1776,-1.1776,-1.1776,0.0,0.0,0.0,0.0,0.0,-1.2808,-1.2905,-1.3311,-1.4692,-1.4562,-1.4253,-1.4854,-1.5179,-1.5155,-1.4456,-1.5033,-1.5707,-1.5869,-1.6795,-1.7689,-1.8152,-1.8785,-1.9248,-1.9321,-1.9784,-2.015,-2.0214,-2.0369,-2.0466,-2.045,-2.0369,-2.0737,-2.157,-2.1612,-2.2123,-2.2924,-2.295,-2.2945,-2.2718,-2.2822,-2.2775,-2.2567,-2.2671,-2.2614,-2.2397,-2.251,-2.2501,-2.2387,-2.2387,-2.2387,-2.2397,-2.251,-2.268,-2.3088,-2.5482,-2.7826,-2.993,-3.2129,-3.3837,-3.5339,-3.5031,-3.4929,-3.5017,0.0,0.0,0.0,0.0,0.0,0.0,0.0,0.0,0.0,0.0,0.0,0.0,0.0,0.0,0.0,0.0,0.0,0.0,0.0,-1.7582,-1.7582,-1.7582,-1.7582,-1.7582,-1.7582,-1.7582,-1.7769,-1.8156,-1.8156,-1.8303,-1.8597,-1.8664,-1.8664,-1.8597,-1.8091,-1.6827,-1.4923,-1.4178,-1.274,-1.1013,0.0,0.0,0.0,0.0,0.0,0.0,0.0,0.0,0.0,0.0,0.0,0.0,0.0,0.0,0.0,-1.2264,-1.2605,-1.2929,-1.2856,-1.3116,-1.3758,-1.522,-1.5171,-1.4952,-1.5642,-1.6202,-1.6284,-1.522,-1.5748,-1.6414,-1.6454,-1.6787,-1.7445,-1.8655,-1.9573,-2.0158,-2.0247,-2.0531,-2.0677,-2.0547,-2.0531,-2.0474,-2.0328,-2.032,-2.0737,-2.1561,-2.1734,-2.2284,-2.2998,-2.3156,-2.319,-2.2869,-2.3011,-2.2992,-2.2784,-2.2983,-2.2907,-2.2538,-2.2652,-2.2623,-2.2463,-2.2416,-2.2387,-2.2406,-2.2614,-2.2831,-2.3222,-2.5978,-2.8072,-2.9906,-3.2379,-3.4182,-3.5031,-3.4871,-3.5002,-3.5324,0.0,0.0,0.0,0.0,0.0,0.0,0.0,0.0,0.0,0.0,0.0,0.0,0.0,0.0,0.0,0.0,0.0,0.0,0.0,-1.7582,-1.7582,-1.7582,-1.7582,-1.7582,-1.7582,-1.7582,-1.7862,-1.8464,-1.8464,-1.8611,-1.8905,-1.9172,-1.9158,-1.8791,-1.6716,-1.5631,-1.5066,-1.2741,-1.147,-1.12,-1.1191,0.0,0.0,0.0,0.0,0.0,0.0,0.0,0.0,0.0,0.0,0.0,0.0,0.0,-1.2288,-1.2304,-1.3141,-1.388,-1.3059,-1.3571,-1.4448,-1.4911,-1.4984,-1.539,-1.708,-1.7006,-1.66,-1.6665,-1.7518,-1.8314,-1.8485,-1.8931,-1.9264,-1.9224,-1.9419,-1.9695,-2.0036,-2.0239,-2.0353,-2.0344,-2.0336,-2.0336,-2.032,-2.032,-2.032,-2.032,-2.1199,-2.1792,-2.2158,-2.282,-2.3323,-2.3294,-2.3304,-2.3209,-2.2992,-2.32,-2.32,-2.2964,-2.2794,-2.2708,-2.268,-2.2482,-2.2387,-2.2406,-2.2614,-2.2831,-2.3413,-2.7379,-2.9303,-2.987,-3.3684,-3.4828,-3.4768,-3.5031,-3.5339,-3.5661,0.0,0.0,0.0,0.0,0.0,0.0,0.0,0.0,0.0,0.0,0.0,0.0,0.0,0.0,0.0,0.0,0.0,0.0,0.0,-1.7582,-1.7582,-1.7582,-1.7582,-1.7582,-1.7582,-1.7582,-1.7876,-1.849,-1.8851,-1.9092,-1.9199,-1.848,-1.8119,-1.8018,-1.6362,-1.5161,-1.4242,-1.3175,-1.2147,-1.1386,-1.1273,-1.133,0.0,0.0,0.0,0.0,0.0,0.0,0.0,0.0,-1.1776,-1.1776,-1.1776,-1.202,-1.2304,-1.2304,-1.28,-1.3295,-1.3059,-1.3701,-1.4676,-1.5715,-1.5967,-1.6202,-1.7104,-1.7875,-1.82,-1.7486,-1.7843,-1.8371,-1.8671,-1.8891,-1.9216,-1.9825,-1.9605,-1.9557,-2.0141,-2.0279,-2.032,-2.032,-2.032,-2.032,-2.032,-2.032,-2.0529,-2.0737,-2.1086,-2.1699,-2.2392,-2.2624,-2.2924,-2.3332,-2.3332,-2.3294,-2.3209,-2.3417,-2.3483,-2.3398,-2.32,-2.303,-2.2888,-2.269,-2.2595,-2.2595,-2.268,-2.2831,-2.3413,-2.7554,-2.9393,-2.9836,-3.3765,-3.4973,-3.4768,-3.528,-3.5544,-3.569,0.0,0.0,0.0,0.0,0.0,0.0,0.0,0.0,0.0,0.0,0.0,0.0,0.0,0.0,0.0,0.0,0.0,0.0,-1.7542,-1.7582,-1.7582,-1.7582,-1.7582,-1.7582,-1.7582,-1.7675,-1.7983,-1.849,-1.9078,-1.9372,-1.9372,-1.8052,-1.7455,-1.7455,-1.5806,-1.45,-1.3655,-1.3159,-1.2403,-1.1573,-1.1451,-1.1476,0.0,0.0,0.0,0.0,0.0,0.0,0.0,0.0,-1.1776,-1.1776,-1.1776,-1.202,-1.2304,-1.2304,-1.2759,-1.3238,-1.3124,-1.4034,-1.5204,-1.5967,-1.6665,-1.7218,-1.7404,-1.8168,-1.8663,-1.803,-1.8403,-1.8842,-1.8809,-1.8948,-1.9264,-1.9882,-1.9622,-1.9565,-2.0223,-2.032,-2.032,-2.032,-2.032,-2.032,-2.032,-2.032,-2.0529,-2.0945,-2.1154,-2.157,-2.2599,-2.2679,-2.2811,-2.3427,-2.3427,-2.3427,-2.3427,-2.3568,-2.3635,-2.3635,-2.3493,-2.3313,-2.3105,-2.2907,-2.2775,-2.2718,-2.2784,-2.2888,-2.3413,-2.7554,-3.0119,-3.1477,-3.4219,-3.5178,-3.5061,-3.5602,-3.5792,-3.5836,0.0,0.0,0.0,0.0,0.0,0.0,0.0,0.0,0.0,0.0,0.0,0.0,0.0,0.0,0.0,0.0,0.0,0.0,-1.7542,-1.7582,-1.7582,-1.7582,-1.7582,-1.7582,-1.7582,-1.7889,-1.8196,-1.849,-1.9078,-1.9372,-1.9359,-1.8052,-1.7455,-1.7337,-1.4847,-1.3665,-1.3545,-1.2371,-1.1776,-1.1776,-1.1776,-1.1776,-1.1776,0.0,0.0,0.0,0.0,0.0,0.0,0.0,-1.1776,-1.1776,-1.1776,-1.202,-1.2312,-1.232,-1.3206,-1.4026,-1.3311,-1.4684,-1.6146,-1.5439,-1.6868,-1.8403,-1.8225,-1.7778,-1.7599,-1.8306,-1.9443,-2.0044,-1.9151,-1.9427,-1.967,-1.9329,-1.941,-1.9703,-2.0239,-2.032,-2.032,-2.032,-2.032,-2.032,-2.032,-2.032,-2.032,-2.032,-2.0945,-2.1362,-2.1977,-2.2599,-2.3014,-2.3635,-2.3635,-2.3635,-2.3635,-2.3635,-2.3635,-2.3635,-2.3635,-2.3531,-2.3332,-2.3115,-2.2907,-2.2727,-2.2926,-2.3011,-2.3413,-2.7566,-3.1894,-3.5646,-3.5646,-3.5646,-3.569,-3.5997,-3.6114,-3.6173,0.0,0.0,0.0,0.0,0.0,0.0,0.0,0.0,0.0,0.0,0.0,0.0,0.0,0.0,0.0,0.0,0.0,0.0,-1.7248,-1.7475,-1.7582,-1.7582,-1.7582,-1.7582,-1.7582,-1.809,-1.8504,-1.8798,-1.9185,-1.8894,-1.8052,-1.675,-1.5688,-1.4728,-1.3075,-1.2371,-1.2371,-1.2018,-1.1776,-1.1776,-1.1776,-1.1776,-1.1776,0.0,0.0,0.0,0.0,0.0,0.0,0.0,0.0,0.0,-1.1776,-1.202,-1.2426,-1.3059,-1.3693,-1.4326,-1.4992,-1.5999,-1.6974,-1.7396,-1.7786,-1.816,-1.8485,-1.8533,-1.846,-1.829,-1.9264,-1.9979,-1.9451,-1.9386,-1.9589,-2.0117,-1.9808,-1.9703,-2.0239,-2.032,-2.032,-2.032,-2.032,-2.032,-2.032,-2.032,-2.032,-2.032,-2.0529,-2.0945,-2.1977,-2.2184,-2.2599,-2.3635,-2.3635,-2.3635,-2.3635,-2.3635,-2.3635,-2.3635,-2.3635,-2.3606,-2.354,-2.3332,-2.3209,-2.3143,-2.3049,-2.3096,-2.3644,-2.7815,-3.1868,-3.5661,-3.5895,-3.5836,-3.5705,-3.6261,-3.6319,-3.6173,0.0,0.0,0.0,0.0,0.0,0.0,0.0,0.0,0.0,0.0,-1.5832,-1.5832,0.0,0.0,0.0,0.0,0.0,0.0,-1.7128,-1.7315,-1.7462,-1.7582,-1.7582,-1.7635,-1.7769,-1.7786,-1.7828,-1.8109,-1.8506,-1.7935,-1.675,-1.5451,-1.4381,-1.3665,-1.2371,-1.1776,-1.1776,-1.1776,-1.1776,-1.1776,-1.1776,-1.1776,-1.1776,0.0,0.0,0.0,0.0,0.0,0.0,0.0,0.0,0.0,-1.1776,-1.2264,-1.2873,-1.3059,-1.392,-1.4911,-1.5382,-1.6454,-1.7575,-1.8192,-1.8452,-1.8582,-1.8696,-1.8753,-1.8696,-1.8444,-1.9337,-2.0076,-1.9784,-1.9768,-1.9946,-2.0409,-2.0117,-1.9946,-2.0271,-2.032,-2.032,-2.032,-2.032,-2.032,-2.032,-2.032,-2.032,-2.032,-2.032,-2.0737,-2.1561,-2.1977,-2.2392,-2.3221,-2.3428,-2.3635,-2.3635,-2.3635,-2.3635,-2.3635,-2.3635,-2.3635,-2.3625,-2.3512,-2.3408,-2.3323,-2.4194,-2.5012,-2.6147,-2.9639,-3.2986,-3.6041,-3.6231,-3.6187,-3.607,-3.6466,-3.648,-3.6334,0.0,0.0,0.0,0.0,0.0,0.0,0.0,0.0,0.0,-1.5832,-1.5832,-1.5832,0.0,0.0,0.0,-1.6206,-1.6259,-1.65,-1.7034,-1.7114,-1.7275,-1.7528,-1.7569,-1.7716,-1.778,-1.7054,-1.6642,-1.6665,-1.7077,-1.6632,-1.5451,-1.4262,-1.3665,-1.3426,-1.2371,-1.1776,-1.1776,-1.1776,-1.1776,-1.1776,-1.1776,-1.1776,-1.1776,-1.1776,0.0,0.0,0.0,0.0,0.0,0.0,0.0,0.0,-1.1776,-1.2572,-1.3352,-1.2637,-1.3937,-1.5504,-1.5049,-1.6365,-1.794,-1.8225,-1.8923,-1.9402,-1.8891,-1.8655,-1.8574,-1.868,-1.9549,-2.0239,-2.0052,-2.032,-2.0515,-2.0344,-2.032,-2.032,-2.032,-2.032,-2.032,-2.032,-2.032,-2.032,-2.032,-2.032,-2.032,-2.032,-2.032,-2.0529,-2.1154,-2.1769,-2.2184,-2.2806,-2.3221,-2.3635,-2.3635,-2.3635,-2.3635,-2.3635,-2.3635,-2.3635,-2.3635,-2.3635,-2.3531,-2.3361,-2.5763,-2.7761,-2.9991,-3.2455,-3.4585,-3.6597,-3.6597,-3.6597,-3.6597,-3.6597,-3.6597,-3.6597,0.0,0.0,0.0,0.0,0.0,0.0,0.0,0.0,-1.5832,-1.5832,-1.5832,-1.5832,-1.5832,-1.5832,0.0,-1.5912,-1.6139,-1.6326,-1.6446,-1.6901,-1.7181,-1.7235,-1.7462,-1.7186,-1.6386,-1.632,-1.5578,-1.3898,-1.5354,-1.5332,-1.4143,-1.3784,-1.3195,-1.2251,-1.1897,-1.1776,-1.1776,-1.1776,-1.1776,-1.1776,-1.1776,-1.1776,-1.1776,-1.1776,-1.1776,0.0,0.0,0.0,0.0,0.0,0.0,0.0,-1.1776,-1.2052,-1.2507,-1.3165,-1.3807,-1.4635,-1.6178,-1.7039,-1.7778,-1.8939,-1.9475,-1.963,-1.9232,-1.9216,-1.9134,-1.8615,-1.937,-2.002,-1.9695,-2.0044,-2.0369,-2.0328,-2.032,-2.032,-2.032,-2.032,-2.032,-2.032,-2.032,-2.032,-2.032,-2.032,-2.032,-2.032,-2.032,-2.0529,-2.1154,-2.1769,-2.2184,-2.2806,-2.3221,-2.3635,-2.3635,-2.3635,-2.3635,-2.3635,-2.3635,-2.3635,-2.3635,-2.3635,-2.3616,-2.3568,-2.5799,-2.802,-3.0246,-3.2533,-3.4585,-3.6597,-3.6597,-3.6597,-3.6597,-3.6597,-3.6597,-3.6597,0.0,0.0,0.0,0.0,0.0,0.0,0.0,0.0,-1.5832,-1.5832,-1.5832,-1.5832,-1.5832,-1.5832,0.0,0.0,-1.5965,-1.6126,-1.6259,-1.6687,-1.7061,-1.7341,-1.6963,-1.6499,-1.5861,-1.5029,-1.4054,-1.3041,-1.3479,-1.3342,-1.2844,-1.2844,-1.2492,-1.1776,-1.1776,-1.1776,-1.1776,-1.1776,-1.1776,-1.1776,-1.1776,-1.1776,-1.1776,-1.1776,-1.1776,-1.1776,-1.1776,0.0,0.0,0.0,0.0,0.0,0.0,0.0,-1.2718,-1.2938,-1.3798,-1.496,-1.6251,-1.7047,-1.7811,-1.9077,-1.9719,-1.9906,-1.9378,-1.9589,-1.9743,-1.9207,-1.9613,-2.0036,-1.9922,-2.0125,-2.032,-2.032,-2.032,-2.032,-2.032,-2.032,-2.032,-2.032,-2.032,-2.032,-2.032,-2.032,-2.032,-2.032,-2.032,-2.0529,-2.0737,-2.157,-2.2184,-2.2392,-2.3128,-2.3493,-2.3493,-2.3493,-2.3493,-2.3493,-2.3587,-2.3635,-2.3635,-2.3635,-2.4245,-2.5265,-2.7498,-2.9724,-3.1944,-3.3973,-3.5593,-3.6597,-3.6597,-3.6597,-3.6597,-3.6597,-3.6597,-3.6597,0.0,0.0,0.0,0.0,0.0,0.0,0.0,0.0,0.0,-1.5832,-1.5832,-1.5832,-1.5832,-1.5832,-1.5832,0.0,0.0,0.0,-1.6179,-1.6315,-1.6649,-1.7239,-1.618,-1.553,-1.5316,-1.3576,-1.2674,-1.2652,-1.182,-1.1549,-1.1727,-1.176,-1.1776,-1.1776,-1.1776,-1.1776,-1.1776,-1.1776,-1.1776,-1.1776,-1.1776,-1.1776,-1.1776,-1.1776,-1.1776,-1.1776,-1.1776,-1.1776,-1.1776,-1.1776,0.0,0.0,0.0,0.0,-1.2994,-1.2458,-1.3571,-1.5074,-1.5585,-1.6665,-1.79,-1.8988,-1.9727,-2.0028,-1.9435,-1.976,-2.0117,-1.9882,-1.9987,-2.015,-2.0296,-2.032,-2.032,-2.032,-2.032,-2.032,-2.032,-2.032,-2.032,-2.032,-2.032,-2.032,-2.032,-2.032,-2.032,-2.032,-2.032,-2.032,-2.032,-2.1362,-2.1977,-2.1977,-2.282,-2.3332,-2.3332,-2.3294,-2.3285,-2.3285,-2.3483,-2.3606,-2.3635,-2.4038,-2.5265,-2.7101,-2.9116,-3.134,-3.3574,-3.5791,-3.6597,-3.6597,-3.6597,-3.6597,-3.6597,-3.6597,-3.6597,-3.6597,0.0,0.0,0.0,0.0,0.0,0.0,0.0,0.0,0.0,0.0,-1.5832,-1.5832,-1.5832,-1.5832,-1.5832,-1.5832,-1.5832,-1.5845,-1.5885,0.0,0.0,-1.605,-1.4995,-1.3922,-1.2842,-1.2555,-1.2018,-1.1222,-1.129,-1.1354,-1.1541,-1.1703,-1.1776,-1.1776,-1.1776,-1.1776,-1.1776,-1.1776,-1.1776,-1.1776,-1.1776,-1.1776,-1.1776,-1.1776,-1.1776,-1.1776,-1.1776,-1.1776,-1.1776,-1.1776,-1.1776,0.0,0.0,0.0,-1.2028,-1.2247,-1.2507,-1.2986,-1.4123,-1.5999,-1.79,-1.8988,-1.9443,-1.9597,-1.95,-1.9549,-1.9695,-1.9971,-2.0166,-2.0296,-2.0312,-2.032,-2.032,-2.032,-2.032,-2.032,-2.032,-2.032,-2.032,-2.032,-2.032,-2.032,-2.032,-2.032,-2.032,-2.032,-2.032,-2.032,-2.032,-2.1362,-2.1977,-2.1977,-2.282,-2.3332,-2.3332,-2.3153,-2.3058,-2.3058,-2.3275,-2.3464,-2.3635,-2.5676,-2.6691,-2.7101,-2.9116,-3.134,-3.3574,-3.5791,-3.6597,-3.6597,-3.6597,-3.6597,-3.6597,-3.6597,-3.6597,-3.6597,0.0,0.0,0.0,0.0,0.0,0.0,0.0,0.0,0.0,0.0,0.0,-1.5832,-1.5832,-1.5832,-1.5832,-1.5832,-1.5832,-1.5678,-1.5404,-1.5279,-1.5139,-1.4877,-1.3814,-1.295,-1.2417,-1.1764,-1.133,-1.0972,-1.1045,-1.1167,-1.1346,-1.1533,-1.1679,-1.1776,-1.1776,-1.1776,-1.1776,-1.1776,-1.1776,-1.1776,-1.1776,-1.1776,-1.1776,-1.1776,-1.1833,-1.1906,-1.1809,-1.1841,-1.1906,-1.1809,-1.1776,-1.1776,-1.1776,0.0,0.0,0.0,-1.2304,-1.2621,-1.4083,-1.6097,-1.7908,-1.8387,-1.9094,-1.9638,-1.9532,-1.967,-1.9865,-2.002,-2.0198,-2.032,-2.032,-2.032,-2.032,-2.032,-2.032,-2.032,-2.032,-2.032,-2.032,-2.032,-2.032,-2.032,-2.032,-2.032,-2.032,-2.032,-2.032,-2.032,-2.032,-2.1362,-2.1933,-2.1827,-2.2655,-2.3105,-2.2983,-2.2888,-2.2897,-2.3011,-2.3105,-2.3266,-2.3464,-2.5685,-2.7366,-2.8913,-3.0937,-3.316,-3.5196,-3.6202,-3.6597,-3.6597,-3.6597,-3.6597,-3.6597,-3.6597,-3.6597,-3.6597,0.0,0.0,0.0,0.0,0.0,0.0,0.0,0.0,0.0,0.0,0.0,-1.6019,-1.5952,0.0,0.0,0.0,-1.5217,-1.4998,-1.473,-1.4619,-1.4312,-1.3696,-1.2635,-1.1982,-1.1982,-1.1126,-1.0761,-1.0899,-1.0948,-1.1037,-1.1159,-1.1395,-1.1573,-1.1711,-1.1752,-1.1776,-1.1776,-1.1776,-1.1776,-1.1784,-1.1825,-1.1841,-1.1849,-1.189,-1.1987,-1.2085,-1.1955,-1.1996,-1.2069,-1.1898,-1.1841,-1.1833,-1.1792,-1.1776,0.0,0.0,0.0,-1.2702,-1.4229,-1.5845,-1.7226,-1.7721,-1.8582,-1.9345,-1.9484,-1.9727,-1.9946,-2.0036,-2.0158,-2.0288,-2.0377,-2.0353,-2.032,-2.032,-2.032,-2.032,-2.032,-2.032,-2.032,-2.032,-2.032,-2.032,-2.032,-2.032,-2.032,-2.032,-2.032,-2.032,-2.032,-2.131,-2.1845,-2.1704,-2.2471,-2.2869,-2.2718,-2.2661,-2.2737,-2.2935,-2.2935,-2.3241,-2.405,-2.6307,-2.8635,-3.0826,-3.2733,-3.4585,-3.6597,-3.6597,-3.6597,-3.6597,-3.6597,-3.6597,-3.6597,-3.6597,-3.6597,-3.6597,0.0,0.0,0.0,0.0,0.0,0.0,0.0,0.0,0.0,0.0,0.0,-1.6553,-1.6286,-1.5354,-1.4667,-1.4412,-1.3641,-1.3276,-1.3739,-1.273,-1.2307,-1.2516,-1.1446,0.0,-1.0798,-1.0688,-1.0696,-1.0704,-1.0883,-1.0972,-1.0988,-1.1338,-1.15,-1.1524,-1.1695,-1.1776,-1.1776,-1.1776,-1.1776,-1.1792,-1.1955,-1.202,-1.2036,-1.2215,-1.2288,-1.2288,-1.228,-1.2288,-1.2264,-1.2077,-1.202,-1.1987,-1.1825,-1.1776,-1.1809,0.0,0.0,0.0,-1.4099,-1.4659,-1.5325,-1.7193,-1.7835,-1.8273,-1.9281,-1.9524,-1.9638,-1.9995,-2.0076,-2.0182,-2.0523,-2.0442,-2.032,-2.032,-2.032,-2.032,-2.032,-2.032,-2.032,-2.032,-2.032,-2.032,-2.032,-2.032,-2.032,-2.032,-2.032,-2.032,-2.032,-2.1191,-2.1713,-2.1704,-2.2333,-2.2727,-2.2708,-2.251,-2.251,-2.2727,-2.2727,-2.3809,-2.5997,-2.8426,-3.074,-3.2775,-3.3253,-3.4585,-3.6597,-3.6597,-3.6597,-3.6597,-3.6597,-3.6597,-3.6597,-3.6597,-3.6597,-3.6597,0.0,0.0,0.0,0.0,0.0,0.0,0.0,0.0,0.0,0.0,0.0,0.0,0.0,-1.4027,-1.3791,-1.3702,-1.3507,-1.3195,-1.2625,-1.2335,-1.2018,-1.1337,-1.0907,-1.0688,-1.0688,-1.0688,-1.0688,-1.0688,-1.0761,-1.0794,-1.0794,-1.1045,-1.1216,-1.1338,-1.1638,-1.1776,-1.1776,-1.1776,-1.1841,-1.1996,-1.2637,-1.2962,-1.3076,-1.3141,-1.323,-1.3327,-1.3327,-1.3327,-1.3425,-1.4058,-1.3734,-1.3059,-1.2994,-1.2499,-1.1971,-1.2158,-1.2458,-1.2865,-1.3417,-1.4042,-1.4757,-1.5699,-1.6503,-1.7218,-1.7835,-1.842,-1.8931,-1.9297,-1.9743,-2.0141,-2.0377,-2.0466,-2.0499,-2.0499,-2.0499,-2.0458,-2.0336,-2.032,-2.032,-2.032,-2.032,-2.032,-2.032,-2.032,-2.032,-2.032,-2.032,-2.032,-2.032,-2.1182,-2.1643,-2.1511,-2.2259,-2.2642,-2.251,-2.2434,-2.2434,-2.251,-2.251,-2.3859,-2.6385,-2.8637,-3.0863,-3.3227,-3.4742,-3.5791,-3.6597,-3.6597,-3.6597,-3.6597,-3.6597,-3.6597,-3.6597,-3.6597,-3.6597,-3.6597,0.0,0.0,0.0,-1.0339,0.0,-1.0339,-1.0339,-1.1283,-1.1906,-1.1906,0.0,0.0,0.0,0.0,-1.2739,-1.2323,-1.2451,-1.2346,-1.1576,-1.1702,-1.1446,-1.0688,-1.0688,-1.0688,-1.0688,-1.0639,-1.0631,-1.0688,-1.0631,-1.0639,-1.0696,-1.0883,-1.1062,-1.1232,-1.1549,-1.1719,-1.1784,-1.1841,-1.1922,-1.2093,-1.2808,-1.3173,-1.3319,-1.3685,-1.3928,-1.4107,-1.4359,-1.4521,-1.4716,-1.5317,-1.4765,-1.3815,-1.375,-1.2986,-1.2158,-1.2337,-1.2556,-1.2783,-1.2962,-1.3482,-1.4131,-1.4741,-1.5472,-1.6219,-1.6877,-1.7721,-1.8444,-1.8744,-1.9475,-2.0117,-2.0288,-2.0474,-2.0572,-2.0515,-2.0507,-2.0458,-2.0336,-2.032,-2.032,-2.032,-2.032,-2.032,-2.032,-2.032,-2.032,-2.032,-2.032,-2.032,-2.032,-2.1182,-2.1785,-2.1921,-2.2311,-2.2538,-2.2397,-2.2387,-2.2808,-2.366,-2.366,-2.5208,-2.8555,-3.0021,-3.2051,-3.4433,-3.5946,-3.6597,-3.6597,-3.6597,-3.6597,-3.6597,-3.6597,-3.6597,-3.6597,-3.6597,-3.6597,-3.6597,-1.0688,-1.0688,-1.0688,-1.0688,-1.0688,-1.0688,-1.0688,-1.1664,-1.2309,-1.2309,0.0,0.0,0.0,0.0,0.0,-1.0551,-1.0444,-1.0517,-1.068,-1.0688,-1.0688,-1.0688,-1.0688,-1.0688,-1.0688,-1.0526,-1.0526,-1.0688,-1.0526,-1.0526,-1.0696,-1.0883,-1.1062,-1.1232,-1.1419,-1.1606,-1.1792,-1.1963,-1.2028,-1.2069,-1.2483,-1.2645,-1.2767,-1.3847,-1.4359,-1.4594,-1.5317,-1.5788,-1.6032,-1.5723,-1.5,-1.418,-1.3937,-1.3149,-1.2345,-1.2515,-1.2564,-1.2613,0.0,0.0,0.0,-1.4399,-1.4806,-1.5268,-1.6519,-1.7478,-1.8168,-1.8412,-1.9297,-2.0093,-2.0288,-2.0474,-2.0531,-2.0353,-2.032,-2.032,-2.032,-2.0312,-2.0312,-2.032,-2.032,-2.032,-2.032,-2.032,-2.032,-2.032,-2.032,-2.032,-2.032,-2.1182,-2.1926,-2.2727,-2.251,-2.2397,-2.2387,-2.2397,-2.366,-2.6016,-2.6027,-2.8309,-3.27,-3.2996,-3.4128,-3.6144,-3.6466,-3.6597,-3.6597,-3.6597,-3.6597,-3.6597,-3.6597,-3.6597,-3.6597,-3.6597,-3.6597,-3.6597,-1.0688,-1.0688,-1.0688,-1.0688,-1.0688,-1.0688,-1.0688,-1.1017,-1.1126,0.0,0.0,0.0,-1.1593,-1.1259,-1.0941,-1.0623,-1.0623,-1.0639,-1.0688,-1.0688,-1.0688,-1.0688,-1.0688,-1.0688,-1.0688,-1.0647,-1.0647,-1.0688,-1.0647,-1.0647,-1.0696,-1.0883,-1.1062,-1.1232,-1.1419,-1.1671,-1.1963,-1.2012,-1.2109,-1.2361,-1.3888,-1.4578,-1.4806,-1.5748,-1.6146,-1.6243,-1.6706,-1.6844,-1.6942,-1.7754,-1.6828,-1.5049,-1.3441,-1.2735,-1.2499,-1.2548,-1.2661,-1.2775,-1.2824,0.0,0.0,0.0,0.0,0.0,-1.5431,-1.6073,-1.686,-1.8347,-1.8891,-1.9386,-2.0344,-2.045,-2.0426,-2.0507,-2.0409,-2.032,-2.032,-2.0214,-2.0182,-2.0304,-2.032,-2.032,-2.032,-2.032,-2.032,0.0,-2.032,-2.0529,-2.0945,-2.1801,-2.2332,-2.2727,-2.2652,-2.2548,-2.2397,-2.4092,-2.5373,-2.6016,-2.7755,-3.0144,-3.3009,-3.309,-3.4239,-3.648,-3.6568,-3.6597,-3.6597,-3.6597,-3.6597,-3.6597,-3.6597,-3.6597,-3.6597,-3.6597,-3.6597,-3.6597,-1.0688,-1.0688,-1.0688,-1.0688,-1.0688,-1.072,-1.0794,-1.081,-1.0834,0.0,0.0,0.0,-1.0915,-1.0915,-1.0915,-1.0915,-1.085,-1.081,-1.081,-1.0737,-1.0688,-1.0688,-1.0688,-1.0688,-1.0688,-1.0623,-1.0623,-1.0688,-1.0623,-1.0623,-1.0696,-1.0883,-1.1062,-1.1232,-1.1419,-1.1695,-1.2036,-1.2109,-1.2467,-1.3043,-1.3896,-1.457,-1.5163,-1.6056,-1.6495,-1.6738,-1.7624,-1.8022,-1.8192,-1.8704,-1.7794,-1.6016,-1.3555,-1.3043,-1.3254,-1.2808,-1.2751,-1.284,-1.284,-1.284,-1.2881,-1.3051,0.0,0.0,-1.4489,-1.5074,-1.5934,0.0,-1.8054,-1.8412,-1.9597,-1.9484,-1.9337,-1.9752,-1.9727,-1.9808,-2.0255,-2.0239,-2.0206,-2.0304,-2.0385,-2.0434,-2.0434,-2.0434,-2.0434,-2.0434,-2.057,-2.0945,-2.1769,-2.2213,-2.2618,-2.2983,-2.2888,-2.2775,-2.2652,-2.4147,-2.5628,-2.7498,-2.9033,-3.1432,-3.4519,-3.4519,-3.5224,-3.6597,-3.6597,-3.6597,-3.6597,-3.6597,-3.6597,-3.6597,-3.6597,-3.6597,-3.6597,-3.6597,-3.6597,-3.6597,0.0,-1.0696,-1.0688,-1.0688,-1.0712,-1.0777,-1.094,-1.0988,-1.1053,0.0,-1.1224,-1.1224,-1.1224,-1.1224,-1.1224,-1.1224,-1.1086,-1.0997,-1.0997,-1.0842,-1.0745,-1.072,-1.072,-1.0712,-1.0688,-1.0542,-1.0542,-1.0688,-1.0542,-1.055,-1.0729,-1.0915,-1.1086,-1.1256,-1.1451,-1.1727,-1.2069,-1.2239,-1.2938,-1.3888,-1.3368,-1.379,-1.483,-1.5731,-1.6276,-1.6763,-1.8208,-1.9037,-1.9354,-1.868,-1.7965,-1.6877,-1.414,-1.3807,-1.4245,-1.3295,-1.2946,-1.2856,-1.284,-1.284,-1.2873,-1.3027,-1.3076,0.0,-1.3823,-1.4424,-1.5268,0.0,-1.7006,-1.7291,-1.8379,-1.8046,-1.7827,-1.8501,-1.8688,-1.9086,-2.0036,-2.0174,-2.0182,-2.0198,-2.0344,-2.0483,-2.0556,-2.0564,-2.0564,-2.0564,-2.1037,-2.1769,-2.2599,-2.2642,-2.2747,-2.3332,-2.3153,-2.3039,-2.3011,-2.3231,-2.5534,-2.9731,-3.0166,-3.251,-3.6597,-3.6597,-3.6597,-3.6597,-3.6597,-3.6597,-3.6597,-3.6597,-3.6597,-3.6597,-3.6597,-3.6597,-3.6597,-3.6597,-3.6597,-3.6597,-1.0366,-1.0586,-1.0688,-1.0688,-1.0818,-1.0923,-1.0964,-1.1086,-1.1183,-1.1216,-1.1224,-1.1224,-1.1224,-1.1224,-1.1224,-1.1224,-1.1191,-1.1175,-1.1175,-1.1143,-1.1053,-1.0923,-1.0915,-1.0842,-1.0696,-1.0664,-1.0655,-1.0688,-1.0655,-1.0737,-1.0915,-1.1094,-1.1273,-1.1451,-1.1638,-1.1922,-1.2255,-1.2288,-1.3011,-1.4188,-1.4911,-1.5756,-1.6682,-1.7583,-1.8062,-1.829,-1.8606,-1.8883,-1.885,-1.7299,-1.695,-1.6844,-1.4976,-1.4408,-1.4391,-1.418,-1.3612,-1.3011,-1.2873,-1.284,-1.2848,-1.2881,-1.2994,0.0,-1.414,-1.4213,-1.4603,0.0,-1.6341,-1.6365,-1.7453,-1.7534,-1.7526,-1.7802,-1.846,-1.9004,-1.9216,-1.924,-1.9297,-1.9451,-1.95,-1.9743,-2.032,-2.0377,-2.0377,-2.0377,-2.1379,-2.1985,-2.2184,-2.2977,-2.3297,-2.3342,-2.3294,-2.319,-2.3011,-2.4971,-2.7281,-2.9743,-3.1765,-3.4118,-3.6597,-3.6597,-3.6597,-3.6597,-3.6597,-3.6597,-3.6597,-3.6597,-3.6597,-3.6597,-3.6597,-3.6597,-3.6597,-3.6597,-3.6597,-3.6597,-1.0257,-1.0366,-1.061,-1.0818,-1.0907,-1.1029,-1.1208,-1.1305,-1.1395,-1.1484,-1.1573,-1.1622,-1.1622,-1.1703,-1.176,-1.176,-1.1598,-1.15,-1.15,-1.1321,-1.1183,-1.1102,-1.1094,-1.1013,-1.0834,-1.0834,-1.0785,-1.0688,-1.0688,-1.0785,-1.0972,-1.1143,-1.1321,-1.1508,-1.1695,-1.1971,-1.2337,-1.2783,-1.375,-1.4984,-1.5065,-1.5642,-1.656,-1.764,-1.8054,-1.8135,-1.8769,-1.8988,-1.8801,-1.7632,-1.7356,-1.7274,-1.5926,-1.5195,-1.4797,-1.4619,-1.3872,-1.3076,-1.2986,-1.2905,-1.284,-1.284,-1.2905,0.0,0.0,-1.3628,-1.3937,-1.5472,-1.5285,-1.5171,-1.6251,-1.6162,-1.6056,-1.6511,-1.7104,-1.7486,-1.7396,-1.8615,-1.9524,-1.9524,-1.9678,-1.993,-2.0288,-2.0401,-2.0627,-2.0745,-2.1561,-2.2184,-2.2392,-2.3221,-2.3587,-2.3483,-2.3483,-2.3436,-2.3323,-2.443,-2.6702,-2.9924,-3.1277,-3.336,-3.6597,-3.6597,-3.6597,-3.6597,-3.6597,-3.6597,-3.6597,-3.6597,-3.6597,-3.6597,-3.6597,-3.6597,-3.6597,-3.6597,-3.6597,-3.6597,-1.02,-1.0303,-1.058,-1.0988,-1.1045,-1.1167,-1.1451,-1.1557,-1.1671,-1.1857,-1.1872,-1.2009,-1.2146,-1.217,-1.2107,-1.2242,-1.1868,-1.1752,-1.176,-1.1478,-1.1286,-1.133,-1.133,-1.1232,-1.1021,-1.1021,-1.0948,-1.0794,-1.0794,-1.0891,-1.1078,-1.1216,-1.1378,-1.1565,-1.1744,-1.2101,-1.2613,-1.3409,-1.4513,-1.5683,-1.5228,-1.5504,-1.6316,-1.7502,-1.7762,-1.7648,-1.8834,-1.9183,-1.9004,-1.846,-1.8282,-1.807,-1.6885,-1.6089,-1.5496,-1.4968,-1.4066,-1.323,-1.3165,-1.3043,-1.2938,-1.2938,-1.2913,-1.2921,0.0,0.0,0.0,0.0,0.0,0.0,0.0,0.0,0.0,0.0,0.0,0.0,0.0,-1.7786,0.0,-1.9142,-1.9402,-1.9719,-2.0036,-2.0418,-2.0767,-2.117,-2.1804,-2.2229,-2.2806,-2.3184,-2.3597,-2.3635,-2.3635,-2.3635,-2.3635,-2.3635,-2.5666,-2.951,-2.9915,-3.2145,-3.6004,-3.64,-3.6597,-3.6597,-3.6597,-3.6597,-3.6597,-3.6597,-3.6597,-3.6597,-3.6597,-3.6597,-3.6597,-3.6597,-3.6597,-3.6597,-1.0055,-1.0595,-1.0988,-1.1159,-1.133,-1.1451,-1.1492,-1.1768,-1.2036,-1.2223,-1.2012,-1.2001,-1.2601,-1.1888,-1.1523,-1.2097,-1.159,-1.1366,-1.1744,-1.1705,-1.1673,-1.1727,-1.1711,-1.1549,-1.12,-1.1191,-1.1183,-1.1159,-1.1159,-1.1256,-1.1443,-1.1459,-1.1565,-1.1752,-1.1922,-1.2556,-1.3522,-1.3937,-1.4667,-1.5642,-1.6812,-1.7437,0.0,-1.872,-1.8566,-1.7981,-1.8923,-1.9337,-1.937,-1.8842,-1.9069,-1.9305,-1.7754,-1.7096,-1.6674,-1.552,-1.4529,-1.3742,-1.3425,-1.3327,-1.3311,-1.3311,-1.3189,-1.3068,-1.3092,0.0,-1.3133,-1.3279,0.0,0.0,0.0,0.0,0.0,0.0,0.0,0.0,-1.47,0.0,0.0,0.0,0.0,-1.7567,-1.8996,-2.0158,-2.0898,-2.1179,-2.1725,-2.2371,-2.2816,-2.3054,-2.3446,-2.3625,-2.3635,-2.3635,-2.3635,-2.3635,-2.4853,-2.7305,-2.9116,-3.134,-3.3787,-3.5791,-3.6597,-3.6597,-3.6597,-3.6597,-3.6597,-3.6597,-3.6597,-3.6597,-3.6597,-3.6597,-3.6597,-3.6597,-3.6597,-3.6597,-0.9867,-1.0089,-1.0371,-1.0771,-1.0855,-1.109,-1.1413,-1.1905,-1.2223,-1.2296,-1.2266,-1.2505,-1.3308,-1.272,-1.2717,-1.3603,-1.3001,-1.2727,0.0,-1.2735,-1.2791,-1.3465,-1.2483,-1.1996,-1.2158,-1.1646,-1.133,-1.1224,-1.1224,-1.1321,-1.15,-1.15,-1.1598,-1.1809,-1.2613,-1.3222,-1.3742,-1.5244,-1.5918,-1.6089,-1.7413,-1.7689,0.0,-1.8412,-1.8558,-1.8306,-1.8891,-1.9216,-1.9345,0.0,-1.9175,-1.9126,-1.8866,-1.7867,-1.6738,-1.6422,-1.5317,-1.427,-1.4538,-1.4538,-1.4432,-1.4326,-1.4237,-1.4018,-1.3392,-1.3254,-1.3222,-1.3116,0.0,0.0,0.0,0.0,0.0,0.0,-1.3928,0.0,0.0,0.0,0.0,0.0,0.0,0.0,0.0,0.0,0.0,0.0,-2.1186,-2.1554,-2.1949,-2.2822,-2.3493,-2.3464,-2.3578,-2.3635,-2.3635,-2.3635,-2.4657,-2.6896,-2.7906,-3.0129,-3.3374,-3.4386,-3.5394,-3.6597,-3.6597,-3.6597,-3.6597,-3.6597,-3.6597,-3.6597,-3.6597,-3.6597,-3.6597,-3.6597,-3.6597,-3.6597,-0.9849,-0.9938,-1.0069,-1.0472,-1.0658,-1.1035,-1.1744,-1.2162,-1.241,-1.2507,-1.2629,-1.299,-1.4075,-1.3356,-1.3309,-1.4685,-1.3778,-1.3349,0.0,0.0,-1.3429,-1.4365,-1.3279,-1.2628,-1.2783,-1.2242,-1.1825,-1.1443,-1.1395,-1.1443,-1.1573,-1.1573,-1.1671,-1.189,-1.2848,-1.3579,-1.4205,-1.604,-1.6844,-1.6982,-1.8046,-1.7997,-1.7364,-1.7989,-1.8322,-1.8509,-1.8915,-1.9086,-1.9167,-1.9532,-1.941,-1.9151,-1.9467,-1.8493,-1.7234,-1.7193,-1.6227,-1.5285,-1.5813,-1.5642,-1.5366,-1.5577,-1.5147,-1.4546,-1.4066,-1.3652,-1.3319,-1.3133,-1.3197,0.0,0.0,0.0,-1.323,-1.3035,0.0,-1.3457,0.0,0.0,0.0,0.0,0.0,0.0,0.0,0.0,0.0,0.0,0.0,-2.0932,-2.1587,-2.2631,-2.3275,-2.3408,-2.3559,-2.3635,-2.3635,-2.3635,-2.4451,-2.6077,-2.6691,-2.8924,-3.2559,-3.3173,-3.4585,-3.6597,-3.6597,-3.6597,-3.6597,-3.6597,-3.6597,-3.6597,-3.6597,-3.6597,-3.6597,-3.6597,-3.6597,-3.6597,-0.9808,-1.0172,-1.0599,-1.0755,-1.1164,-1.176,-1.2491,-1.2548,-1.2678,-1.3027,-1.2807,-1.3122,-1.4657,-1.3029,-1.2457,-1.4506,0.0,-1.2616,-1.3394,0.0,-1.3302,-1.3789,-1.4058,-1.381,-1.292,-1.3141,-1.2881,-1.2004,-1.1841,-1.176,-1.1768,-1.1768,-1.1857,-1.2028,-1.2247,-1.3409,-1.5228,-1.5829,-1.6974,-1.8436,-1.8996,-1.8891,-1.8347,0.0,-1.7989,-1.8525,-1.9061,0.0,0.0,-1.9735,-2.0028,-1.9906,-1.9224,-1.8964,-1.8704,-1.7681,-1.721,-1.7031,-1.7055,-1.63,-1.5796,-1.7006,-1.561,-1.4205,-1.522,-1.4375,-1.3319,-1.3133,0.0,-1.3051,-1.2881,-1.2986,-1.2881,-1.2182,-1.2808,0.0,0.0,0.0,0.0,0.0,0.0,0.0,0.0,0.0,0.0,0.0,0.0,0.0,-2.234,-2.2227,-2.2595,-2.3597,-2.3635,-2.3635,-2.3635,-2.3635,-2.3635,-2.3635,-2.5882,-2.811,-3.0319,-3.2358,-3.4585,-3.6597,-3.6597,-3.6597,-3.6597,-3.6597,-3.6597,-3.6597,-3.6597,-3.6597,-3.6597,-3.6597,-3.6597,-3.6553,-1.0127,-1.0211,-1.0404,-1.0225,-1.0724,-1.1277,-1.188,-1.2242,-1.2593,0.0,-1.2911,0.0,0.0,-1.4194,-1.4023,0.0,0.0,-1.4414,-1.5113,-1.4798,0.0,0.0,0.0,-1.4493,0.0,-1.3483,-1.2986,-1.2215,-1.2036,-1.1947,-1.1939,-1.1833,-1.1866,-1.2069,-1.2962,-1.4131,-1.5496,-1.6625,-1.7486,-1.8111,-1.8298,-1.8257,-1.8144,0.0,-1.868,-1.8704,-1.924,-1.9427,0.0,-1.9914,-2.0141,-2.019,-1.9946,-1.9622,-1.9216,-1.8615,-1.8062,-1.7746,-1.8217,-1.8087,-1.7884,-1.8192,-1.7234,-1.6113,-1.5764,-1.4765,-1.3855,-1.3669,0.0,0.0,-1.3839,-1.3457,-1.3173,-1.3409,-1.3206,-1.2929,0.0,0.0,0.0,0.0,0.0,0.0,0.0,0.0,0.0,0.0,0.0,0.0,-2.113,-2.1754,-2.2501,-2.3408,-2.3436,-2.3502,-2.3635,-2.3635,-2.3635,-2.3635,-2.4451,-2.5871,-2.811,-3.0331,-3.2358,-3.4585,-3.6004,-3.6597,-3.6597,-3.6597,-3.6597,-3.6597,-3.6597,-3.6597,-3.6597,-3.6597,-3.6597,-3.6524,-1.0283,-1.0324,-1.031,-1.0154,-1.0551,-1.1207,-1.1993,-1.2421,-1.2775,0.0,-1.3376,0.0,-1.4998,0.0,-1.4909,0.0,-1.5434,-1.5195,-1.5765,-1.539,0.0,-1.6191,-1.5676,0.0,0.0,-1.4073,-1.3436,-1.2616,-1.225,-1.2125,-1.2125,-1.202,-1.2052,-1.2255,-1.3068,-1.4058,-1.5212,-1.635,-1.7033,-1.7461,-1.7656,-1.7916,0.0,0.0,-1.8842,-1.8623,0.0,-1.9565,-1.9549,-1.9865,-2.0044,-2.0141,-2.0206,-1.9987,-1.9687,-1.9589,-1.9142,-1.8809,-1.9394,-1.9232,-1.8972,-1.9305,-1.8379,-1.7323,-1.7071,-1.6081,-1.5187,-1.5065,0.0,0.0,0.0,-1.3839,-1.3344,-1.3815,-1.3352,-1.2905,0.0,-1.2929,0.0,0.0,0.0,0.0,0.0,0.0,0.0,0.0,0.0,0.0,0.0,0.0,-2.216,-2.3304,-2.3408,-2.3474,-2.3531,-2.3597,-2.3635,-2.3635,-2.3635,-2.4863,-2.6896,-2.8303,-3.0533,-3.3574,-3.4784,-3.5791,-3.6597,-3.6597,-3.6597,-3.6597,-3.6597,-3.6597,-3.6597,-3.6597,-3.6466,-3.6187,-1.0317,-1.0426,-1.048,-1.0344,-1.0843,-1.1568,-1.275,-1.3022,-1.3199,0.0,-1.4091,-1.4659,-1.485,-1.47,-1.4942,-1.6323,-1.5327,-1.5113,-1.5805,-1.5424,0.0,0.0,-1.5953,-1.5556,-1.4843,0.0,0.0,-1.3213,-1.2592,-1.2328,-1.232,-1.2312,-1.2402,-1.2564,-1.2564,-1.3262,-1.4513,-1.5066,-1.575,-1.673,-1.7283,-1.8014,-1.8769,-1.8785,-1.8566,-1.8379,-1.9427,-1.9475,-1.9126,-1.9646,-1.9817,-1.9849,-2.0028,-2.0068,-2.0125,-2.0483,-2.0353,-2.0166,-2.0507,-1.9727,-1.9102,-2.0296,-1.9021,-1.7778,-1.8972,-1.8144,-1.712,-1.7112,0.0,0.0,0.0,-1.4213,-1.3474,-1.3522,-1.3287,-1.3035,0.0,0.0,0.0,0.0,0.0,0.0,0.0,0.0,0.0,0.0,0.0,0.0,0.0,0.0,-2.1584,-2.3219,-2.3455,-2.3474,-2.3294,-2.3474,-2.3578,-2.3587,-2.3616,-2.4657,-2.6691,-2.6896,-2.9127,-3.3173,-3.3374,-3.4585,-3.64,-3.6612,-3.6597,-3.6597,-3.6597,-3.6597,-3.6597,-3.6583,-3.6187,-3.5602,-1.0778,-1.0894,-1.0982,-1.0941,-1.165,-1.2365,-1.2564,0.0,0.0,0.0,-1.3804,-1.4298,-1.4917,-1.5341,-1.5822,-1.6138,-1.5927,0.0,0.0,0.0,0.0,-1.5845,-1.6371,-1.6059,-1.5005,-1.4922,-1.4399,-1.3375,-1.2887,-1.2629,-1.2499,-1.2369,-1.2402,-1.2564,-1.2564,-1.3336,-1.4667,-1.4609,-1.5532,-1.7281,-1.8705,-1.9034,-1.8749,0.0,-1.9492,-1.924,-1.98,-1.9987,-1.9995,-2.0133,-2.0182,-2.019,-2.0239,-2.0255,-2.0271,-2.0361,-2.0426,-2.0483,-2.0572,-2.0361,-2.019,-2.0515,-1.9581,-1.8655,-1.898,-1.8152,-1.7274,-1.7136,-1.6852,0.0,0.0,0.0,0.0,0.0,0.0,0.0,0.0,0.0,0.0,-1.284,0.0,0.0,0.0,0.0,0.0,0.0,0.0,0.0,0.0,0.0,0.0,-2.2368,-2.2463,-2.2538,-2.2633,-2.268,-2.2794,-2.2954,-2.3417,-2.3841,-2.4451,-2.6087,-2.7509,-2.8721,-3.1957,-3.3773,-3.4386,-3.6004,-3.6597,-3.6597,-3.6597,-3.6597,-3.6583,-3.6334,-3.5983,-3.5602,-1.1043,-1.1104,-1.1206,-1.1341,-1.2058,-1.2727,-1.2929,-1.3464,0.0,-1.4034,-1.4516,0.0,-1.5045,-1.5784,-1.6225,-1.609,-1.6279,0.0,-1.6157,0.0,0.0,-1.6137,-1.6384,-1.6173,-1.5197,-1.506,0.0,-1.38,-1.3325,-1.2934,-1.2791,-1.2621,-1.2588,-1.2686,-1.2759,-1.3336,-1.4294,-1.4633,-1.55,-1.6778,-1.8191,-1.8545,0.0,-1.9436,-1.9776,-1.989,-2.0101,-2.0239,-2.032,-2.032,-2.032,-2.032,-2.032,-2.032,-2.0336,-2.0418,-2.0458,-2.0491,-2.0572,-2.0539,-2.0491,-2.0572,-2.0076,-1.9605,-1.9768,-1.9216,-1.8663,-1.8639,-1.82,-1.794,0.0,0.0,0.0,0.0,0.0,0.0,0.0,0.0,0.0,0.0,0.0,0.0,0.0,0.0,0.0,0.0,0.0,0.0,0.0,0.0,0.0,-2.2179,-2.2397,-2.2283,-2.1858,-2.2756,-2.3039,-2.2718,-2.3342,-2.3635,-2.3635,-2.4853,-2.6487,-2.8506,-3.0937,-3.296,-3.4798,-3.6202,-3.6597,-3.6597,-3.6597,-3.6597,-3.6553,-3.6085,-3.5792,-3.5573,-1.1219,-1.1253,-1.1362,-1.1633,-1.2126,-1.2602,0.0,-1.4055,0.0,-1.493,0.0,-1.5798,-1.5296,-1.6029,-1.6456,-1.6218,0.0,-1.6571,-1.6551,-1.6313,-1.6273,-1.651,-1.613,-1.5845,-1.5703,-1.5327,-1.4821,0.0,-1.371,-1.3309,-1.3124,-1.2978,-1.2905,-1.2913,-1.3068,-1.3271,-1.3698,-1.4906,-1.5617,-1.6,-1.6994,-1.7728,-1.8582,-1.9195,-1.9784,-2.032,-2.032,-2.032,-2.032,-2.032,-2.032,-2.032,-2.032,-2.032,-2.0353,-2.0515,-2.0466,-2.0393,-2.0556,-2.0483,-2.0393,-2.0556,-2.0458,-2.0401,-2.071,-2.0547,-2.0361,-2.0499,-1.9678,-1.8931,-1.8931,0.0,0.0,0.0,0.0,0.0,0.0,0.0,0.0,0.0,0.0,0.0,0.0,0.0,0.0,0.0,0.0,0.0,0.0,0.0,0.0,-2.1934,-2.2501,-2.2283,-2.1263,-2.3086,-2.3606,-2.2803,-2.337,-2.3635,-2.3635,-2.3635,-2.5666,-2.9307,-2.9915,-3.2346,-3.5791,-3.64,-3.6597,-3.6597,-3.6597,-3.6597,-3.6524,-3.588,-3.5675,-3.5602,-1.1538,-1.1735,-1.1918,-1.1972,-1.1405,-1.1504,-1.3673,-1.417,-1.4489,-1.4916,-1.5296,-1.5533,-1.5554,-1.6246,-1.6741,-1.6815,-1.687,0.0,0.0,0.0,0.0,-1.6524,-1.6334,-1.6157,-1.6008,-1.564,-1.5091,0.0,-1.4117,-1.3869,-1.3319,-1.3295,-1.3279,-1.3279,-1.3311,-1.3578,-1.4162,-1.5554,-1.611,-1.6098,-1.7769,-1.8343,-1.8677,-1.9306,-1.9799,-2.032,-2.032,-2.032,-2.032,-2.032,-2.032,-2.032,-2.032,-2.032,-2.0328,-2.0361,-2.0458,-2.0556,-2.0588,-2.0572,-2.0556,-2.0588,-2.0458,-2.0336,-2.0401,-2.0361,-2.0288,-2.0182,-2.0093,-2.0044,-2.0044,0.0,0.0,0.0,0.0,0.0,0.0,0.0,0.0,0.0,0.0,0.0,0.0,0.0,0.0,0.0,0.0,0.0,0.0,0.0,0.0,0.0,-2.0913,0.0,0.0,0.0,-2.2888,-2.3228,-2.3502,-2.3635,-2.3635,-2.3635,-2.4038,-2.4853,-2.8495,-3.0521,-3.1529,-3.5182,-3.6597,-3.6597,-3.6597,-3.6597,-3.6524,-3.588,-3.5807,-3.5909,-1.185,-1.1965,-1.1808,-1.1036,0.0,0.0,0.0,-1.1425,-1.2505,-1.5215,-1.5852,-1.6015,-1.609,-1.649,-1.672,-1.6639,-1.6775,-1.6795,-1.6639,-1.6632,-1.6632,-1.6639,-1.6429,-1.6239,-1.6083,-1.5842,-1.5378,-1.4813,-1.449,-1.4114,-1.3644,-1.3457,-1.3368,-1.3401,-1.3857,-1.4345,-1.4743,-1.5985,-1.6486,-1.6321,-1.779,-1.8303,-1.823,-1.9067,-1.9702,-1.9903,-2.0111,-2.032,-2.032,-2.032,-2.032,-2.032,-2.032,-2.032,-2.032,-2.032,-2.0385,-2.045,-2.045,-2.045,-2.0474,-2.0572,-2.0458,-2.0344,-2.0442,-2.0385,-2.0296,-2.0214,-2.0263,-2.0174,-1.9711,-1.9069,0.0,0.0,0.0,0.0,0.0,0.0,0.0,0.0,0.0,0.0,0.0,0.0,0.0,-1.4728,-1.5685,0.0,0.0,0.0,0.0,0.0,0.0,0.0,-2.0979,0.0,-2.3086,-2.2548,-2.3398,-2.3861,-2.3956,-2.3956,-2.5202,-2.7459,-2.9512,-3.1767,-3.422,-3.6278,-3.7109,-3.7109,-3.7109,-3.7007,-3.6802,-3.6319,-3.6129,-3.5997,-1.1889,-1.1953,-1.1421,-0.9672,-0.9183,-0.8913,-0.8704,-0.8649,-1.0102,-1.5032,-1.5634,-1.5936,-1.6524,-1.6686,-1.6693,-1.6429,-1.6619,-1.67,-1.6578,-1.6571,-1.6612,-1.67,-1.6476,-1.6273,-1.6083,-1.5961,-1.5681,0.0,0.0,-1.4366,-1.3922,-1.3834,-1.3898,-1.4123,-1.4766,-1.5165,-1.5511,-1.6371,-1.6651,-1.6757,-1.7495,-1.7713,-1.7811,-1.8858,-1.9485,-1.9493,-2.0111,-2.032,-2.032,-2.032,-2.032,-2.032,-2.032,-2.032,-2.032,-2.032,-2.032,-2.032,-2.032,-2.032,-2.0353,-2.0499,-2.0426,-2.0361,-2.0507,-2.0426,-2.032,-2.032,-2.032,-2.0125,-1.95,-1.9386,0.0,0.0,0.0,0.0,0.0,0.0,0.0,0.0,0.0,0.0,0.0,0.0,0.0,-1.4992,-1.5545,0.0,-1.8192,0.0,0.0,0.0,0.0,-2.1102,-2.062,0.0,-2.3436,-2.2463,-2.3521,-2.4318,-2.5097,-2.5097,-2.7186,-3.0926,-3.1341,-3.3831,-3.7578,-3.7578,-3.7578,-3.7578,-3.7578,-3.7373,-3.7051,-3.6729,-3.6436,-3.6144,-1.1552,-1.1261,-1.084,-0.8433,-0.6893,-0.6502,-0.851,-0.7672,-0.8385,-1.2605,-1.3443,-1.4376,-1.6326,-1.6781,-1.689,-1.672,-1.6734,-1.6741,-1.6727,-1.6727,-1.6673,-1.6544,-1.6517,-1.6368,-1.609,-1.6069,-1.5856,0.0,0.0,-1.4383,-1.3883,-1.4789,-1.5552,-1.6125,-1.6256,-1.6211,-1.6195,-1.6328,-1.6661,-1.6883,-1.6965,-1.7412,-1.7811,-1.8432,-1.9067,-1.9493,-2.0111,-2.032,-2.032,-2.032,-2.032,-2.032,-2.032,-2.032,-2.032,-2.032,-2.032,-2.032,-2.032,-2.032,-2.032,-2.0344,-2.0328,-2.032,-2.0344,-2.0328,-2.032,-2.032,-2.032,-2.0393,-2.0637,-1.9776,-1.8874,0.0,0.0,0.0,0.0,0.0,-1.708,0.0,0.0,0.0,0.0,0.0,0.0,0.0,-1.572,0.0,0.0,0.0,0.0,-1.9987,0.0,-2.0478,-2.1905,-2.2538,-2.3446,-2.4589,-2.4353,-2.5289,-2.7386,-2.7386,-2.8842,-3.1133,-3.3214,-3.5294,-3.7578,-3.7578,-3.7578,-3.7578,-3.7578,-3.7373,-3.7051,-3.6729,-3.6583,-3.6553,-0.9401,-0.9347,-0.8672,-0.6851,-0.6068,0.0,0.0,-0.5098,-0.5807,-0.8711,-1.1673,-1.4209,-1.6453,-1.6686,-1.668,-1.6619,-1.6537,-1.6524,-1.6605,-1.6612,-1.6666,-1.6788,-1.6619,-1.6469,-1.6347,-1.6171,-1.5952,0.0,0.0,-1.4822,-1.481,-1.4916,-1.533,-1.5973,-1.6376,-1.6493,-1.6532,-1.6946,-1.7126,-1.7107,-1.7107,-1.7264,-1.7398,-1.8222,-1.885,-1.9067,-1.9903,-2.032,-2.032,-2.032,-2.032,-2.032,-2.032,-2.032,-2.032,-2.032,-2.032,-2.032,-2.032,-2.032,-2.032,-2.032,-2.032,-2.032,-2.032,-2.032,-2.032,-2.032,-2.032,-2.0393,-2.0653,-2.0377,-1.9808,-1.8915,0.0,0.0,0.0,0.0,0.0,0.0,0.0,0.0,0.0,0.0,0.0,0.0,0.0,0.0,0.0,0.0,0.0,-2.0629,0.0,-2.1404,-2.2822,-2.2623,-2.3001,-2.3956,-2.4164,-2.5649,-2.8016,-2.8016,-3.0129,-3.3719,-3.583,-3.7309,-3.8148,-3.8148,-3.8148,-3.8148,-3.8148,-3.7841,-3.7373,-3.7241,-3.7065,-3.689,-0.7813,-0.7694,-0.7144,-0.5241,-0.4979,-0.4681,-0.3485,-0.3356,-0.4253,-0.6328,-0.9469,-1.2594,-1.5497,-1.6234,-1.6571,-1.6524,-1.6388,-1.6368,-1.651,-1.6524,-1.6639,-1.6904,-1.6707,0.0,-1.6524,-1.6279,-1.6158,-1.5959,-1.5306,-1.5118,-1.5548,-1.5191,-1.5534,-1.6467,-1.6757,-1.689,-1.6793,-1.7236,-1.7229,-1.7127,-1.7127,-1.7073,-1.7188,-1.802,-1.8432,-1.8432,-1.9694,-2.0111,-2.0111,-2.032,-2.032,-2.032,-2.032,-2.032,-2.032,-2.032,-2.032,-2.032,-2.032,-2.032,-2.032,-2.032,-2.032,-2.032,-2.032,-2.032,-2.0336,-2.0393,-2.0401,-2.0442,-2.0572,-2.0694,-2.0401,-1.9248,0.0,0.0,0.0,-1.8095,0.0,0.0,-1.7291,-1.7697,-1.7624,-1.6186,0.0,0.0,0.0,0.0,0.0,0.0,0.0,0.0,0.0,0.0,-2.2869,-2.2434,-2.2737,-2.3795,-2.4239,-2.6082,-2.9371,-3.0644,-3.2985,-3.6188,-3.7889,-3.8543,-3.8543,-3.8543,-3.8543,-3.8529,-3.8441,-3.8061,-3.7578,-3.7578,-3.7373,-3.7124,-0.7084,-0.6752,-0.6142,-0.3786,-0.3388,-0.341,-0.341,-0.3411,-0.4261,-0.6592,-0.6804,-0.8467,-1.299,-1.5484,-1.6686,-1.6537,-1.6388,-1.6368,-1.651,-1.6524,-1.6592,0.0,0.0,-1.6673,-1.6524,-1.6381,-1.6374,-1.6503,0.0,-1.5437,-1.5334,-1.6184,-1.7202,-1.8017,-1.8031,-1.753,-1.6971,-1.6978,-1.6985,-1.6985,-1.6985,-1.6985,-1.6978,-1.7601,-1.7811,-1.802,-1.9075,-1.9493,-1.9493,-2.0111,-2.032,-2.032,-2.032,-2.032,-2.032,-2.032,-2.032,-2.032,-2.032,-2.032,-2.032,-2.032,-2.032,-2.032,-2.032,-2.032,-2.0369,-2.0556,-2.0596,-2.0596,-2.0596,-2.0596,-2.0304,-1.9402,-1.9256,0.0,0.0,-1.8379,0.0,-1.7063,-1.7478,-1.7981,-1.8152,-1.7193,0.0,0.0,0.0,0.0,0.0,0.0,0.0,-2.0176,-1.9032,0.0,-2.1792,-2.1792,-2.2812,-2.4863,-2.4873,-2.7228,-3.171,-3.6398,-3.8321,-3.8529,-3.8543,-3.8543,-3.8543,-3.8543,-3.8543,-3.85,-3.8192,-3.787,-3.7578,-3.7578,-3.7373,-3.7183,-0.4637,-0.4465,-0.4258,-0.3611,-0.3405,-0.3412,-0.3412,-0.3412,-0.3624,-0.4474,-0.5744,-0.7432,-0.8675,-1.2122,-1.4916,0.0,-1.6293,-1.6218,0.0,-1.6469,-1.6592,-1.6741,-1.6748,-1.6727,-1.668,-1.653,-1.6476,-1.6524,-1.5974,-1.5716,-1.5932,-1.6745,-1.7245,-1.7415,-1.7628,-1.7696,-1.7439,-1.7439,-1.7378,-1.727,-1.7168,-1.7066,-1.6978,-1.7601,-1.7882,-1.8186,-1.9235,-1.9734,-1.9836,-2.0473,-2.0686,-2.0686,-2.0686,-2.0515,-2.032,-2.032,-2.032,-2.032,-2.032,-2.032,-2.032,-2.032,-2.032,-2.032,-2.032,-2.0418,-2.0556,-2.0734,-2.0775,-2.0807,-2.0937,-2.0856,-2.0483,-1.9581,-1.9849,-1.9646,-1.8152,0.0,-1.8948,-1.7884,-1.7851,-1.8176,0.0,-1.8054,0.0,0.0,0.0,0.0,0.0,0.0,0.0,0.0,-2.1962,0.0,-2.4107,-2.3124,-2.3379,-2.4882,-2.474,-2.7093,-3.1923,-3.6398,-3.8543,-3.8529,-3.8309,-3.8339,-3.8529,-3.8309,-3.8221,-3.8221,-3.8339,-3.8061,-3.7607,-3.7826,-3.7841,-3.7782,-0.3397,-0.3412,-0.3412,-0.3412,-0.3412,-0.3412,-0.3412,-0.3412,-0.3412,-0.3412,-0.4685,-0.5744,-0.6804,-0.9016,-1.1822,-1.4873,-1.5126,-1.5271,-1.6381,-1.5699,-1.5841,-1.6829,-1.6836,-1.6836,-1.6836,-1.6686,-1.6639,-1.6693,-1.6469,-1.6435,-1.6598,-1.7121,-1.7331,-1.729,-1.7541,-1.7616,-1.7561,-1.75,-1.7419,-1.7324,-1.7175,-1.706,-1.6985,-1.7454,-1.7537,-1.784,-1.9174,-1.9692,-1.9785,-2.0642,-2.0856,-2.0856,-2.0856,-2.0702,-2.0507,-2.0442,-2.0377,-2.032,-2.032,-2.032,-2.032,-2.032,-2.032,-2.0336,-2.0409,-2.0564,-2.0742,-2.0921,-2.0954,-2.0994,-2.1108,-2.1035,-2.0751,-2.0117,-2.0344,-2.019,-1.9013,-1.9378,-1.9394,0.0,0.0,0.0,0.0,-1.9053,-1.8961,0.0,0.0,0.0,0.0,0.0,0.0,-2.2727,-2.2756,-2.3323,-2.4495,-2.3597,-2.372,-2.4882,-2.6549,-2.9315,-3.321,-3.6943,-3.866,-3.8529,-3.8324,-3.8353,-3.8529,-3.8324,-3.8236,-3.8251,-3.8324,-3.8119,-3.7782,-3.7987,-3.8061,-3.8075,-0.3412,-0.3412,-0.3412,-0.3412,-0.3412,-0.3412,-0.3412,-0.3412,-0.3412,-0.3412,-0.3412,-0.4261,-0.6379,-0.6547,-0.816,-1.2215,-1.2816,-1.3837,-1.5897,-1.4163,-1.4284,-1.6741,-1.6761,-1.6768,-1.6978,-1.6842,-1.6842,-1.6992,-1.7141,-1.7283,-1.7426,-1.7568,-1.7555,-1.7426,-1.7568,-1.7555,-1.7412,-1.727,-1.7202,-1.7182,-1.706,-1.7005,-1.7012,-1.7154,-1.7216,-1.7456,-1.8674,-1.917,-1.9393,-2.046,-2.0889,-2.0889,-2.0889,-2.088,-2.084,-2.0669,-2.0483,-2.0336,-2.0336,-2.0328,-2.032,-2.032,-2.0328,-2.0385,-2.0556,-2.0742,-2.0921,-2.1092,-2.1132,-2.114,-2.114,-2.114,-2.1083,-2.0905,-2.0734,-2.0377,-1.9638,-2.0117,-2.0052,-1.872,0.0,0.0,-2.0133,-2.015,-2.0117,0.0,0.0,0.0,0.0,0.0,-2.144,-2.2009,-2.2009,-2.2472,-2.3436,-2.3641,-2.4127,-2.5535,-3.0242,-3.345,-3.5137,-3.7771,-3.8821,-3.8543,-3.8514,-3.8514,-3.8543,-3.8514,-3.85,-3.8485,-3.8207,-3.809,-3.8075,-3.809,-3.809,-3.8134,-0.3412,-0.3412,-0.3412,-0.3412,-0.3412,-0.3412,-0.3412,-0.3412,-0.3412,-0.3412,-0.3412,-0.3624,-0.4048,-0.5735,-0.7182,-0.7954,-0.9549,-1.0745,-1.1362,-1.1046,-1.1739,-1.407,-1.4371,-1.5277,-1.6978,-1.6944,-1.6998,-1.7141,-1.729,-1.7385,-1.7419,-1.746,-1.7453,-1.7419,-1.746,-1.7453,-1.7419,-1.7385,-1.7297,-1.7202,-1.7283,-1.7249,-1.7161,-1.7311,-1.7655,-1.8192,-1.9095,-1.9627,-2.0381,-2.1052,-2.1254,-2.1254,-2.1254,-2.1173,-2.1027,-2.0848,-2.0669,-2.0531,-2.0531,-2.0426,-2.032,-2.032,-2.0426,-2.0539,-2.0588,-2.084,-2.1075,-2.1116,-2.123,-2.1319,-2.1319,-2.1319,-2.1254,-2.1092,-2.1027,-2.0702,-1.9841,-1.9873,-1.9906,-1.9695,-1.9865,-2.0279,-2.1002,-2.1067,-2.0996,0.0,0.0,-2.1647,-2.1244,-2.2743,-2.3676,-2.4154,-2.4154,-2.4268,-2.4513,-2.6205,-2.8027,-3.0216,-3.306,-3.4544,-3.5124,-3.7543,-3.8617,-3.8529,-3.828,-3.8309,-3.8514,-3.828,-3.8178,-3.8192,-3.8353,-3.828,-3.809,-3.8339,-3.8426,-3.8441,-0.3412,-0.3412,-0.3412,-0.3412,-0.3412,-0.3412,-0.3412,-0.3412,-0.3412,-0.3412,-0.3412,-0.3412,-0.3412,-0.4473,-0.5313,-0.5076,-0.7145,-0.8778,-0.978,-0.9023,-0.9488,-1.1801,-1.2064,-1.2731,-1.3797,-1.4915,-1.5679,-1.5871,-1.4856,-1.4919,-1.6076,-1.6014,-1.6423,-1.7521,-1.7453,-1.7419,-1.7412,-1.7344,-1.7311,-1.7297,-1.7311,-1.7311,-1.7311,-1.7467,-1.801,-1.8522,-1.925,-1.9989,-2.0513,-2.1156,-2.1384,-2.1384,-2.1384,-2.1319,-2.1222,-2.1124,-2.0913,-2.0694,-2.0621,-2.0523,-2.0442,-2.0442,-2.0645,-2.084,-2.084,-2.1051,-2.1246,-2.1246,-2.1319,-2.1384,-2.1384,-2.1384,-2.136,-2.1254,-2.0905,-2.0466,-1.9979,-1.9914,-1.9979,-2.015,-2.0539,-2.0986,-2.1465,-2.1514,-2.1489,-2.1542,-2.1968,0.0,-2.2423,-2.3382,-2.3964,-2.4183,-2.5693,-2.6383,-2.6383,-2.8726,-3.1071,-3.321,-3.461,-3.5891,-3.6621,-3.8048,-3.8675,-3.8529,-3.8353,-3.8382,-3.8529,-3.8353,-3.828,-3.8295,-3.847,-3.8426,-3.8295,-3.847,-3.8543,-3.8543,-0.3412,-0.3412,-0.3412,-0.3412,-0.3412,-0.3412,-0.3412,-0.3412,-0.3412,-0.3412,-0.3412,-0.3412,-0.3412,-0.3412,-0.3412,-0.3412,-0.5109,-0.6994,-0.8828,-0.7197,-0.7228,-0.956,-0.9772,-0.9772,-1.0196,-1.2219,-1.3459,-1.3455,-1.1484,-1.1541,-1.3838,-1.3942,-1.5196,-1.6948,-1.7237,-1.7372,-1.7344,-1.7236,-1.727,-1.7378,-1.7297,-1.7338,-1.7473,-1.7623,-1.8114,-1.8776,-1.9368,-2.0073,-2.0733,-2.1156,-2.1384,-2.1384,-2.1384,-2.1384,-2.1384,-2.1384,-2.1173,-2.0889,-2.0694,-2.0612,-2.0596,-2.0596,-2.0864,-2.1124,-2.1124,-2.1254,-2.1384,-2.1384,-2.1384,-2.1384,-2.1384,-2.1384,-2.1343,-2.1238,-2.0596,-2.0052,-1.9906,-2.0011,-2.0158,-2.0304,-2.1116,-2.1684,-2.1701,-2.1701,-2.185,-2.2574,-2.2396,-2.2663,-2.38,-2.3962,-2.371,-2.3351,-2.6648,-2.8726,-2.9371,-3.1284,-3.3409,-3.5545,-3.5815,-3.6872,-3.8543,-3.8821,-3.8807,-3.8543,-3.8543,-3.8543,-3.8543,-3.8543,-3.8543,-3.8543,-3.8543,-3.8543,-3.8543,-3.8543,-3.8543,-3.8543,-0.3412,-0.3412,-0.3412,-0.3412,-0.3412,-0.3412,-0.3412,-0.3412,-0.3412,-0.3412,-0.3412,-0.3412,-0.3412,-0.3412,-0.3412,-0.3412,-0.3624,-0.4047,-0.4465,-0.4045,-0.4898,-0.7228,-0.7228,-0.8286,-1.0196,-1.0785,-1.0925,-1.1027,-1.0891,-1.0932,-1.1394,-1.3282,-1.4277,-1.4616,-1.6434,-1.7161,-1.7053,-1.7154,-1.7209,-1.7249,-1.7487,-1.7595,-1.7629,-1.7772,-1.8494,-1.9368,-1.9632,-2.0278,-2.1376,-2.1384,-2.1384,-2.1384,-2.1384,-2.1384,-2.1384,-2.1384,-2.1343,-2.123,-2.0905,-2.071,-2.0596,-2.0596,-2.0864,-2.1124,-2.1124,-2.1254,-2.1384,-2.1384,-2.1384,-2.1384,-2.1384,-2.1384,-2.1189,-2.058,-2.0369,-2.0011,-1.9256,-1.98,-2.0288,-2.032,-2.1116,-2.1725,-2.1871,-2.1896,-2.232,-2.3405,-2.3497,-2.3502,-2.3671,-2.4551,-2.4466,-2.337,-2.6648,-3.0216,-3.4056,-3.4478,-3.5755,-3.7904,-3.7947,-3.8156,-3.8543,-3.8587,-3.8587,-3.8543,-3.8543,-3.8543,-3.8543,-3.8543,-3.8543,-3.8543,-3.8543,-3.8543,-3.8543,-3.8543,-3.8543,-3.8543,-0.3412,-0.3412,-0.3412,-0.3412,-0.3412,-0.3412,-0.3412,-0.3412,-0.3412,-0.3412,-0.3412,-0.3412,-0.3412,-0.3412,-0.3412,-0.3412,-0.3412,-0.3412,-0.3412,-0.3412,-0.3837,-0.4898,-0.4898,-0.5986,-0.8405,-0.7422,-0.7286,-0.8674,-0.737,-0.7611,-0.8727,-0.9753,-1.1672,-1.4026,-1.4915,-1.5911,-1.7216,-1.7202,-1.729,-1.7453,-1.7595,-1.7704,-1.7772,-1.7846,-1.853,-1.9632,-1.9632,-2.0285,-2.1384,-2.1384,-2.1384,-2.1384,-2.1384,-2.1384,-2.1384,-2.1384,-2.1384,-2.1319,-2.1067,-2.101,-2.1002,-2.0905,-2.1075,-2.1254,-2.1254,-2.1319,-2.1384,-2.1384,-2.1384,-2.1384,-2.1384,-2.1384,-2.1148,-2.0434,-2.032,-2.0044,-1.924,-1.9817,-2.0353,-2.0458,-2.1173,-2.1701,-2.179,-2.179,-2.2187,-2.34,-2.3506,-2.3717,-2.4343,-2.4882,-2.5535,-2.6062,-2.8644,-3.2348,-3.6831,-3.6831,-3.7472,-3.8543,-3.8543,-3.8543,-3.8543,-3.8543,-3.8543,-3.8543,-3.8543,-3.8543,-3.8543,-3.8543,-3.8543,-3.8543,-3.8543,-3.8543,-3.8543,-3.8543,-3.8543,-3.8543,-0.3412,-0.3412,-0.3412,-0.3412,-0.3412,-0.3412,-0.3412,-0.3412,-0.3412,-0.3412,-0.3412,-0.3412,-0.3412,-0.3412,-0.3412,-0.3412,-0.3412,-0.3412,-0.3412,-0.3412,-0.3412,-0.3412,-0.3412,-0.4297,-0.6114,-0.4401,-0.444,-0.6277,-0.4485,-0.4485,-0.6277,-0.6673,-0.8855,-1.2558,-1.3243,-1.4717,-1.6543,-1.7076,-1.7399,-1.765,-1.7684,-1.7758,-1.786,-1.786,-1.853,-1.9632,-1.9632,-2.0285,-2.1384,-2.1384,-2.1384,-2.1384,-2.1384,-2.1384,-2.1384,-2.1384,-2.1408,-2.1408,-2.1181,-2.1222,-2.1295,-2.1157,-2.1254,-2.1384,-2.1384,-2.1384,-2.1384,-2.1384,-2.1384,-2.1384,-2.1384,-2.1384,-2.1148,-2.0434,-2.032,-2.0125,-1.9581,-1.9979,-2.045,-2.0799,-2.1295,-2.1636,-2.1725,-2.1684,-2.2063,-2.3057,-2.3409,-2.3851,-2.4749,-2.5128,-2.6405,-2.8952,-3.1284,-3.4478,-3.8529,-3.8543,-3.8543,-3.8543,-3.8543,-3.8543,-3.8543,-3.8543,-3.8543,-3.8543,-3.8543,-3.8543,-3.8543,-3.8543,-3.8543,-3.8543,-3.8543,-3.8543,-3.8543,-3.8543,-3.8543,-3.8543,-0.3412,-0.3412,-0.3412,-0.3412,-0.3412,-0.3412,-0.3412,-0.3412,-0.3412,-0.3412,-0.3412,-0.3412,-0.3412,-0.3412,-0.3412,-0.3412,-0.3412,-0.3412,-0.3412,-0.3412,-0.3412,-0.3412,-0.3412,-0.344,-0.3718,-0.3502,-0.3534,-0.3815,-0.3589,-0.3589,-0.3815,-0.6046,-0.7356,-0.7512,-1.2022,-1.3934,-1.4377,-1.6537,-1.75,-1.7663,-1.7792,-1.7846,-1.786,-1.786,-1.853,-1.9632,-1.9632,-2.0285,-2.1384,-2.1384,-2.1384,-2.1384,-2.1384,-2.1384,-2.1384,-2.1384,-2.1514,-2.1579,-2.1222,-2.1132,-2.114,-2.1132,-2.1254,-2.1384,-2.1384,-2.1384,-2.1384,-2.1384,-2.1384,-2.1384,-2.1384,-2.1384,-2.1148,-2.0434,-2.032,-2.0304,-2.0247,-2.0288,-2.0637,-2.149,-2.1473,-2.153,-2.1871,-2.1766,-2.194,-2.2768,-2.3449,-2.3834,-2.4293,-2.4964,-2.703,-3.1296,-3.3633,-3.5978,-3.8543,-3.8543,-3.8543,-3.8543,-3.8543,-3.8543,-3.8543,-3.8543,-3.8543,-3.8543,-3.8543,-3.8543,-3.8543,-3.8543,-3.8543,-3.8543,-3.8543,-3.8543,-3.8543,-3.8543,-3.8543,-3.8543,-0.3412,-0.3412,-0.3412,-0.3412,-0.3412,-0.3412,-0.3412,-0.3412,-0.3412,-0.3412,-0.3412,-0.3412,-0.3412,-0.3412,-0.3412,-0.3412,-0.3412,-0.3412,-0.3412,-0.3412,-0.3412,-0.3412,-0.343,-0.346,-0.3502,-0.352,-0.3549,-0.3589,-0.3589,-0.3589,-0.3589,-0.4485,-0.5815,-0.7134,-1.0364,-1.2773,-1.4376,-1.6499,-1.765,-1.7792,-1.7846,-1.786,-1.786,-1.786,-1.853,-1.9632,-1.9632,-2.0285,-2.1384,-2.1384,-2.1384,-2.1384,-2.1384,-2.1384,-2.1384,-2.1384,-2.1425,-2.1465,-2.1319,-2.136,-2.1465,-2.1465,-2.1425,-2.1384,-2.1384,-2.1384,-2.1384,-2.1384,-2.1384,-2.1384,-2.1384,-2.1384,-2.1148,-2.0434,-2.0694,-2.0824,-2.0385,-2.0702,-2.1108,-2.1449,-2.1425,-2.1449,-2.1571,-2.153,-2.1947,-2.2897,-2.3135,-2.3753,-2.4567,-2.6296,-2.8609,-3.1497,-3.3845,-3.6188,-3.8543,-3.8543,-3.8646,-3.8836,-3.8836,-3.8836,-3.8836,-3.8836,-3.8734,-3.8543,-3.8543,-3.8543,-3.8543,-3.8543,-3.8543,-3.8543,-3.8543,-3.8543,-3.8543,-3.8543,-3.8543,-3.8543,-0.3412,-0.3412,-0.3412,-0.3412,-0.3412,-0.3412,-0.3412,-0.3412,-0.3412,-0.3412,-0.3412,-0.3412,-0.3412,-0.3412,-0.3412,-0.3412,-0.3412,-0.3412,-0.3412,-0.3412,-0.3412,-0.3412,-0.3441,-0.3467,-0.3487,-0.3524,-0.3555,-0.3576,-0.3587,-0.3589,-0.3589,-0.3589,-0.4485,-0.6269,-0.8426,-1.087,-1.3399,-1.5498,-1.7059,-1.786,-1.786,-1.786,-1.786,-1.786,-1.853,-1.9419,-1.9625,-2.0301,-2.1172,-2.1384,-2.1384,-2.1384,-2.1384,-2.1384,-2.1384,-2.1384,-2.1384,-2.1408,-2.1449,-2.1514,-2.1579,-2.1579,-2.1473,-2.1384,-2.1384,-2.1384,-2.1384,-2.1384,-2.1384,-2.1384,-2.1384,-2.1384,-2.1222,-2.0734,-2.1067,-2.1213,-2.0718,-2.1075,-2.1408,-2.1465,-2.1465,-2.1465,-2.1465,-2.1465,-2.1889,-2.2699,-2.2909,-2.3574,-2.4882,-2.7022,-2.8941,-3.0644,-3.3633,-3.5768,-3.7472,-3.8112,-3.8646,-3.888,-3.8982,-3.8968,-3.888,-3.8982,-3.8851,-3.8543,-3.8543,-3.8543,-3.8543,-3.8543,-3.8543,-3.8543,-3.8543,-3.8543,-3.8543,-3.8543,-3.8543,-3.8529,-0.3412,-0.3412,-0.3412,-0.3412,-0.3412,-0.3412,-0.3412,-0.3412,-0.3412,-0.3412,-0.3412,-0.3412,-0.3412,-0.3412,-0.3412,-0.3412,-0.3412,-0.3412,-0.3412,-0.3412,-0.3412,-0.3412,-0.3441,-0.3457,-0.3457,-0.3513,-0.3544,-0.3544,-0.3576,-0.3589,-0.3589,-0.3589,-0.3589,-0.3589,-0.5997,-0.8211,-1.0945,-1.3062,-1.5503,-1.786,-1.786,-1.786,-1.786,-1.786,-1.8316,-1.8757,-1.9405,-2.0065,-2.0513,-2.1156,-2.1384,-2.1384,-2.1384,-2.1384,-2.1384,-2.1384,-2.1384,-2.1425,-2.162,-2.153,-2.1384,-2.1384,-2.1384,-2.1384,-2.1384,-2.1384,-2.1384,-2.1384,-2.1384,-2.1384,-2.1384,-2.1384,-2.1384,-2.1384,-2.1384,-2.1384,-2.1384,-2.1384,-2.1449,-2.1636,-2.166,-2.166,-2.166,-2.166,-2.1809,-2.2278,-2.2699,-2.3574,-2.4882,-2.7022,-2.8307,-2.8307,-3.2773,-3.5124,-3.5124,-3.7263,-3.8543,-3.8543,-3.8865,-3.8851,-3.8558,-3.888,-3.8851,-3.8543,-3.8543,-3.8543,-3.8543,-3.8543,-3.8543,-3.8543,-3.8543,-3.8543,-3.8543,-3.8543,-3.8543,-3.8485,-0.3412,-0.3412,-0.3412,-0.3412,-0.3412,-0.3412,-0.3412,-0.3412,-0.3412,-0.3412,-0.3412,-0.3412,-0.3412,-0.3412,-0.3412,-0.3412,-0.3412,-0.3412,-0.3412,-0.3412,-0.3412,-0.3412,-0.342,-0.3435,-0.3457,-0.3475,-0.3493,-0.3516,-0.3544,-0.3558,-0.3558,-0.358,-0.3589,-0.3589,-0.5997,-0.841,-1.0637,-1.3241,-1.5675,-1.7717,-1.7826,-1.786,-1.786,-1.786,-1.853,-1.9419,-1.9632,-2.0301,-2.1172,-2.1384,-2.1384,-2.1384,-2.1384,-2.1384,-2.1384,-2.1384,-2.1384,-2.1408,-2.1449,-2.1425,-2.1408,-2.1555,-2.149,-2.1384,-2.1384,-2.1384,-2.1384,-2.1384,-2.1384,-2.1384,-2.1384,-2.1384,-2.1384,-2.1384,-2.1384,-2.1384,-2.1384,-2.1384,-2.1408,-2.1465,-2.1579,-2.162,-2.1473,-2.2038,-2.2456,-2.2918,-2.3774,-2.4446,-2.4882,-2.5525,-2.659,-2.8307,-3.1071,-3.3409,-3.5124,-3.7263,-3.8646,-3.888,-3.8982,-3.8968,-3.888,-3.8982,-3.8851,-3.8543,-3.8543,-3.8543,-3.8543,-3.8543,-3.8543,-3.8543,-3.8543,-3.8543,-3.8543,-3.8543,-3.8397,-3.8192,-0.3412,-0.3412,-0.3412,-0.3412,-0.3412,-0.3412,-0.3412,-0.3412,-0.3412,-0.3412,-0.3412,-0.3412,-0.3412,-0.3412,-0.3412,-0.3412,-0.3412,-0.3412,-0.3412,-0.3412,-0.3412,-0.3412,-0.3412,-0.342,-0.3438,-0.3463,-0.3478,-0.3484,-0.3513,-0.3534,-0.3544,-0.3562,-0.358,-0.3589,-0.5112,-0.7076,-0.9272,-1.1919,-1.4113,-1.6338,-1.7579,-1.786,-1.786,-1.786,-1.8522,-1.9199,-1.9405,-2.0293,-2.1172,-2.1384,-2.1384,-2.1384,-2.1384,-2.1384,-2.1384,-2.1384,-2.1384,-2.136,-2.1295,-2.1278,-2.1319,-2.1425,-2.1425,-2.1384,-2.1384,-2.1384,-2.1384,-2.1384,-2.1384,-2.1384,-2.1384,-2.1384,-2.1384,-2.1384,-2.1384,-2.1384,-2.1384,-2.1384,-2.1384,-2.1384,-2.162,-2.166,-2.1408,-2.2063,-2.2762,-2.3364,-2.4446,-2.4882,-2.4882,-2.4882,-2.5525,-2.6806,-3.0002,-3.2348,-3.3845,-3.6831,-3.8704,-3.9026,-3.9026,-3.9026,-3.9026,-3.9026,-3.8851,-3.8543,-3.8543,-3.8543,-3.8543,-3.8543,-3.8543,-3.8543,-3.8543,-3.8543,-3.8529,-3.8397,-3.8442,-3.8442,-0.3412,-0.3412,-0.3412,-0.3412,-0.3412,-0.3412,-0.3412,-0.3412,-0.3412,-0.3412,-0.3412,-0.3412,-0.3412,-0.3412,-0.3412,-0.3412,-0.3412,-0.3412,-0.3412,-0.3412,-0.3412,-0.3412,-0.3412,-0.3412,-0.3412,-0.3467,-0.348,-0.3453,-0.3483,-0.3513,-0.3538,-0.354,-0.3558,-0.3583,-0.3558,-0.4865,-0.7292,-0.9704,-1.2115,-1.454,-1.6885,-1.7846,-1.786,-1.786,-1.8316,-1.8757,-1.9405,-2.0065,-2.0733,-2.1156,-2.1384,-2.1384,-2.1384,-2.1384,-2.1384,-2.1384,-2.136,-2.1319,-2.1173,-2.1116,-2.1108,-2.1124,-2.1246,-2.136,-2.1384,-2.1384,-2.1384,-2.1384,-2.1384,-2.1384,-2.1384,-2.1384,-2.1384,-2.1384,-2.1384,-2.1384,-2.1384,-2.1384,-2.1384,-2.1384,-2.1701,-2.1782,-2.1449,-2.2377,-2.3104,-2.4028,-2.4664,-2.4882,-2.4882,-2.4882,-2.4882,-2.4882,-2.9156,-3.1497,-3.171,-3.5978,-3.8466,-3.8982,-3.8982,-3.8982,-3.8982,-3.8982,-3.8821,-3.8543,-3.8543,-3.8543,-3.8543,-3.8543,-3.8543,-3.8543,-3.8543,-3.8529,-3.8456,-3.8178,-3.8442,-3.8702,-0.3412,-0.3412,-0.3412,-0.3412,-0.3412,-0.3412,-0.3412,-0.3412,-0.3412,-0.3412,-0.3412,-0.3412,-0.3412,-0.3412,-0.3412,-0.3412,-0.3412,-0.3412,-0.3412,-0.3412,-0.3412,-0.3412,-0.3412,-0.3412,-0.3412,-0.3425,-0.3429,-0.3422,-0.3452,-0.3469,-0.3478,-0.3524,-0.3549,-0.3555,-0.3549,-0.485,-0.7008,-0.9618,-1.2012,-1.42,-1.675,-1.7758,-1.786,-1.786,-1.853,-1.9405,-1.9632,-2.0278,-2.1156,-2.1384,-2.1384,-2.1384,-2.1384,-2.1384,-2.1384,-2.1384,-2.1295,-2.1173,-2.114,-2.1019,-2.0945,-2.1092,-2.1157,-2.1222,-2.136,-2.1384,-2.1384,-2.1384,-2.1384,-2.1384,-2.1384,-2.1384,-2.1384,-2.1384,-2.1384,-2.1384,-2.1384,-2.1384,-2.1384,-2.1384,-2.1579,-2.1684,-2.162,-2.2549,-2.3621,-2.4683,-2.4882,-2.4882,-2.4882,-2.4882,-2.4882,-2.4882,-2.766,-2.9788,-3.171,-3.4478,-3.6859,-3.8646,-3.8646,-3.8646,-3.8646,-3.8646,-3.8602,-3.8543,-3.8543,-3.8543,-3.8543,-3.8543,-3.8543,-3.8543,-3.8543,-3.8382,-3.8163,-3.809,-3.8146,-3.8259,-0.3412,-0.3412,-0.3412,-0.3412,-0.3412,-0.3412,-0.3412,-0.3412,-0.3412,-0.3412,-0.3412,-0.3412,-0.3412,-0.3412,-0.3412,-0.3412,-0.3412,-0.3412,-0.3412,-0.3412,-0.3412,-0.3412,-0.3412,-0.3412,-0.3412,-0.3412,-0.3412,-0.3412,-0.3427,-0.345,-0.3479,-0.3509,-0.354,-0.3565,-0.3551,-0.4189,-0.5464,-0.7855,-1.0244,-1.264,-1.4948,-1.684,-1.8316,-1.8316,-1.8971,-2.0065,-2.0065,-2.0513,-2.1384,-2.1384,-2.1384,-2.1384,-2.1384,-2.1384,-2.136,-2.1278,-2.1197,-2.1092,-2.0921,-2.0799,-2.0775,-2.0954,-2.0994,-2.1067,-2.1319,-2.1384,-2.1384,-2.1384,-2.1384,-2.1384,-2.1384,-2.1384,-2.1384,-2.1384,-2.1384,-2.1384,-2.1384,-2.1384,-2.1384,-2.1384,-2.1555,-2.1874,-2.254,-2.2906,-2.369,-2.4891,-2.4882,-2.4882,-2.4882,-2.4882,-2.4882,-2.4882,-2.7022,-2.8941,-3.0002,-3.3409,-3.5755,-3.6831,-3.7904,-3.8617,-3.8763,-3.8617,-3.8543,-3.8543,-3.8543,-3.8543,-3.8543,-3.8543,-3.8543,-3.8543,-3.8543,-3.8339,-3.8046,-3.8308,-3.8223,-3.8417,-0.3412,-0.3412,-0.3412,-0.3412,-0.3412,-0.3412,-0.3412,-0.3412,-0.3412,-0.3412,-0.3412,-0.3412,-0.3412,-0.3412,-0.3412,-0.3412,-0.3412,-0.3412,-0.3412,-0.3412,-0.3412,-0.3412,-0.3412,-0.3412,-0.3412,-0.3412,-0.3412,-0.3412,-0.3412,-0.3441,-0.3495,-0.3499,-0.3531,-0.358,-0.3555,-0.3531,-0.3721,-0.6107,-0.8271,-1.0228,-1.316,-1.5693,-1.804,-1.853,-1.9405,-2.0505,-2.0505,-2.0945,-2.1384,-2.1384,-2.1384,-2.1384,-2.1384,-2.136,-2.1319,-2.1173,-2.1083,-2.097,-2.0677,-2.0572,-2.0596,-2.0799,-2.0856,-2.0945,-2.1303,-2.1384,-2.1384,-2.1384,-2.1384,-2.1384,-2.1384,-2.1384,-2.1384,-2.1384,-2.1384,-2.1384,-2.1384,-2.1384,-2.1384,-2.1384,-2.1759,-2.231,-2.3162,-2.3251,-2.3819,-2.4882,-2.4882,-2.4882,-2.4882,-2.4882,-2.4882,-2.4882,-2.6806,-2.7876,-2.8307,-3.2299,-3.4623,-3.5044,-3.7387,-3.8631,-3.8939,-3.866,-3.8543,-3.8543,-3.8543,-3.8543,-3.8543,-3.8543,-3.8543,-3.8543,-3.8543,-3.8309,-3.8134,-3.8373,-3.8676,-3.9167,-0.3412,-0.3412,-0.3412,-0.3412,-0.3412,-0.3412,-0.3412,-0.3412,-0.3412,-0.3412,-0.3412,-0.3412,-0.3412,-0.3412,-0.3412,-0.3412,-0.3412,-0.3412,-0.3412,-0.3412,-0.3412,-0.3412,-0.3412,-0.3412,-0.3412,-0.3412,-0.3412,-0.3412,-0.3412,-0.343,-0.3464,-0.349,-0.352,-0.3551,-0.3549,-0.3531,-0.3718,-0.585,-0.7123,-0.7772,-1.2173,-1.4679,-1.59,-1.7812,-1.9405,-2.0505,-2.0505,-2.0945,-2.1384,-2.1384,-2.1384,-2.1384,-2.1384,-2.1278,-2.1157,-2.1132,-2.0905,-2.0661,-2.0612,-2.0483,-2.0434,-2.0767,-2.0856,-2.0945,-2.1303,-2.1384,-2.1384,-2.1384,-2.1384,-2.1384,-2.1384,-2.1384,-2.1384,-2.1384,-2.1384,-2.1384,-2.1384,-2.1384,-2.1384,-2.1384,-2.1997,-2.2481,-2.3198,-2.3735,-2.4431,-2.4901,-2.4882,-2.4882,-2.4882,-2.4882,-2.4882,-2.4882,-2.51,-2.6383,-2.8307,-3.0634,-3.2634,-3.4736,-3.7059,-3.8295,-3.8602,-3.8558,-3.8543,-3.8543,-3.8543,-3.8543,-3.8543,-3.8543,-3.8543,-3.8543,-3.8543,-3.8178,-3.778,-3.8173,-3.8476,-3.9167,-0.3412,-0.3412,-0.3412,-0.3412,-0.3412,-0.3412,-0.3412,-0.3412,-0.3412,-0.3412,-0.3412,-0.3412,-0.3412,-0.3412,-0.3412,-0.3412,-0.3412,-0.3412,-0.3412,-0.3412,-0.3412,-0.3412,-0.3412,-0.3412,-0.3412,-0.3412,-0.3412,-0.3412,-0.3429,-0.3453,-0.3483,-0.3513,-0.354,-0.3569,-0.3551,-0.3531,-0.3499,-0.4549,-0.5823,-0.7327,-1.1012,-1.3723,-1.587,-1.8587,-2.0216,-2.0945,-2.0945,-2.1172,-2.1384,-2.1384,-2.1319,-2.1238,-2.1238,-2.1116,-2.0954,-2.0856,-2.0718,-2.0572,-2.0474,-2.0458,-2.0531,-2.0791,-2.0929,-2.1075,-2.1319,-2.1384,-2.1384,-2.1384,-2.1384,-2.1384,-2.1384,-2.1384,-2.1384,-2.1384,-2.1384,-2.1384,-2.1384,-2.1384,-2.1384,-2.1384,-2.1677,-2.2142,-2.2927,-2.3532,-2.4293,-2.508,-2.5062,-2.5062,-2.5062,-2.4958,-2.4882,-2.4882,-2.4882,-2.5308,-2.6383,-2.9686,-3.1952,-3.302,-3.6621,-3.8309,-3.828,-3.8456,-3.8543,-3.8543,-3.8543,-3.8543,-3.8543,-3.8543,-3.8543,-3.8543,-3.8543,-3.8545,-3.85,-3.8629,-3.8971,-3.9557]}]]